     2.10           OBSERVATION DATA    G (GPS)             RINEX VERSION / TYPE
teqc 2000Jul20 Karen Wendt 20021004 00:13:55UTC             PGM / RUN BY / DATE
Linux 2.0.36|Pentium II|gcc -static|Linux|486/DX+           COMMENT
BIT 2 OF LLI FLAGS DATA COLLECTED UNDER A/S CONDITION       COMMENT
a270 A270_stmpd_D200_reset_1976_USCGS                       MARKER NAME
A270                                                        MARKER NUMBER
BW USGS MENLO PARK                                          OBSERVER / AGENCY
3335A03898 TRIMBLE 4000SSE NP 7.19; SP 3.04                 REC # / TYPE / VERS
0220126940 TRM22020.00+GP                                   ANT # / TYPE
 -2438592.0000 -4301386.0000  4017441.0000                  APPROX POSITION XYZ
        1.2226        0.0000        0.0000                  ANTENNA: DELTA H/E/N
     1     1                                                WAVELENGTH FACT L1/2
     4    L1    L2    C1    P2                              # / TYPES OF OBSERV
    30.0000                                                 INTERVAL
                                                            COMMENT
National Earthquake Hazard Reduction Program                COMMENT
Crustal Strain Project                                      COMMENT
345 Middlefield Road, MS/977                                COMMENT
U.S. Geological Survey, Menlo Park, California 94025        COMMENT
Contact: kwendt@usgs.gov (Ph: 650-329-4866)                 COMMENT
Antenna height is vertical to base of antenna               COMMENT
                                                            COMMENT
SNR is mapped to RINEX snr flag value [1-9]                 COMMENT
L1: 3 -> 1; 8 -> 5; 40 -> 9                                 COMMENT
L2: 1 -> 1; 5 -> 5; 60 -> 9                                 COMMENT
  2002     9     9    16     8   30.0000000     GPS         TIME OF FIRST OBS
                                                            END OF HEADER
 02  9  9 16  8 30.0000000  0  8G 9G11G 3G14G18G31G15G21
   -100759.76455    -60460.54152  24130037.9144   24130044.1844
  -1431680.34455   -827019.02953  24051967.0784   24051970.7344
    -29413.98255     -6099.87055  23504900.3754   23504906.4224
   -650498.95356   -417565.98456  20320964.8284   20320966.8554
    -95911.18955    -45440.12255  23414614.9384   23414620.0824
   -256685.49555   -193384.10955  22851968.9774   22851974.5554
     81639.82454     56748.39252  24214276.0474   24214286.3754
    -53724.89156    -41864.24956  21364209.5164   21364214.4734
 02  9  9 16  9  0.0000000  0  8G 9G11G 3G14G18G31G15G21
   -107917.29545    -66037.83043  24128676.4384   24128682.9534
  -1605397.63445   -962383.11643  24018910.5784   24018915.6174
    -22390.82345      -627.41545  23506236.0864   23506242.6024
   -722127.21646   -473380.20946  20307334.3594   20307336.4104
    -97844.40445    -46946.62545  23414247.3524   23414252.3674
   -289894.91545   -219261.64045  22845649.2114   22845654.6374
    113609.17144     81659.31842  24220359.6564   24220365.1994
   -105064.41546    -81869.09846  21354439.8284   21354444.6454
 02  9  9 16  9 30.0000000  0  8G 9G11G 3G14G18G31G15G21
   -112461.67445    -69579.01143  24127812.2344   24127819.5864
  -1776832.38145  -1095968.58644  23986288.3524   23986293.0394
    -13058.81945      6644.13645  23508012.7274   23508018.6454
   -791139.89146   -527156.30746  20294201.6644   20294203.4804
    -97549.99145    -46717.34744  23414303.5314   23414308.4064
   -320509.47345   -243117.20245  22839823.3594   22839828.4924
    147864.64644    108351.69243  24226878.8754   24226886.5434
   -154086.36446   -120068.04246  21345111.4924   21345116.2974
 02  9  9 16 10  0.0000000  0  8G 9G11G 3G14G18G31G15G21
   -114492.47745    -71161.46642  24127425.5314   24127433.2464
  -1946080.02545  -1227849.78743  23954079.2424   23954083.6954
     -1518.43645     15636.52345  23510209.3524   23510215.1764
   -857635.48146   -578971.04146  20281547.8054   20281549.6564
    -95125.43445    -44828.16444  23414764.8134   23414770.7664
   -348628.72545   -265028.35945  22834472.9224   22834477.9494
    184307.04545    136748.13143  24233812.9614   24233820.4064
   -200887.42946   -156536.41746  21336205.3914   21336210.3364
 02  9  9 16 10 30.0000000  0  8G 9G11G 3G14G18G31G15G21
   -114099.44045    -70855.31143  24127500.1804   24127507.6844
  -2113226.01945  -1358093.34343  23922272.7194   23922277.0554
     12139.92545     26279.27545  23512807.6334   23512813.2934
   -921702.64546   -628893.49846  20269356.5164   20269358.3794
    -90658.34345    -41347.45744  23415615.3984   23415621.0704
   -374342.36645   -285065.02545  22829579.3524   22829584.0164
    222847.46844    166779.41743  24241147.9304   24241157.6484
   -245554.75446   -191342.13646  21327705.4454   21327710.4384
 02  9  9 16 11  0.0000000  0  8G 9G11G 3G14G18G31G15G21
   -111335.37845    -68701.54643  24128026.6954   24128033.7194
  -2278317.89145  -1486736.33443  23890858.8754   23890863.5164
     27862.77245     38530.70945  23515799.6484   23515805.6604
   -983392.70046   -676963.66046  20257617.3204   20257619.1134
    -84199.61445    -36314.76144  23416844.7664   23416850.6484
   -397703.15345   -303268.30345  22825134.8754   22825139.3634
    263433.36945    198404.55743  24248871.0234   24248878.1884
   -288138.60246   -224524.37246  21319602.1254   21319606.8484
 02  9  9 16 11 30.0000000  0  8G 9G11G 3G14G18G31G15G21
   -106340.84545    -64809.80343  24128977.2734   24128984.0594
  -2441492.11245  -1613885.03443  23859807.4144   23859812.3594
     45509.03445     52280.93445  23519157.6484   23519163.9304
  -1042845.27746   -723290.34646  20246303.7814   20246305.6094
    -75887.28245    -29837.73344  23418425.8444   23418432.1954
   -418851.73145   -319747.76745  22821110.5554   22821115.8754
    305924.77445    231514.50343  24256956.8444   24256965.2504
   -328777.36946   -256190.96246  21311869.0474   21311874.0164
 02  9  9 16 12  0.0000000  0  8G 9G11G 3G14G18G31G15G21
    -99277.74045    -59306.11843  24130321.3134   24130328.5594
  -2602905.55245  -1739661.68543  23829090.9304   23829094.0474
     64916.59345     67403.55144  23522851.3364   23522857.1254
  -1100220.60046   -767998.38546  20235385.5784   20235387.3134
    -65880.88845    -22040.66144  23420330.4774   23420336.5474
   -437949.47045   -334629.17545  22817475.7344   22817481.0314
    350160.94244    265983.97943  24265375.5474   24265383.7194
   -367629.31846   -286465.22646  21304475.4694   21304480.0634
 02  9  9 16 12 30.0000000  0  8G 9G11G 3G14G18G31G15G21
    -90244.14543    -52266.99442  24132039.8834   24132044.5824
  -2762651.77545  -1864139.19243  23798691.7274   23798695.4884
     85986.52345     83821.55745  23526861.7974   23526867.9494
  -1155615.84646   -811163.50946  20224844.3914   20224846.1724
    -54276.85845    -12998.68043  23422538.4304   23422542.8714
   -455094.72045   -347989.17645  22814213.5864   22814219.1174
    396043.97745    301736.72943  24274107.0394   24274115.9964
   -404790.19846   -315421.78146  21297404.1804   21297408.8674
 02  9  9 16 12 59.9990000  0  8G 9G11G 3G14G18G31G15G21
    -79265.78045    -43712.47643  24134129.3154   24134135.1164
  -2920746.22845  -1987329.60243  23768607.9874   23768611.9254
    108691.81945    101513.85745  23531181.6514   23531187.9804
  -1209053.49346   -852803.23746  20214675.6514   20214677.4804
    -41098.42945     -2729.88344  23425046.6674   23425052.2224
   -470312.23145   -359847.03945  22811318.2224   22811323.4134
    443547.53344    338752.23843  24283146.3624   24283157.5114
   -440281.31146   -343077.21346  21290650.4174   21290655.1874
 02  9  9 16 13 29.9990000  0  8G 9G11G 3G14G18G31G15G21
    -66405.66645    -33691.67643  24136576.9874   24136583.3274
  -3077258.68045  -2109287.34043  23738823.9014   23738827.4054
    132969.45045    120431.37245  23535801.5114   23535807.7804
  -1260599.64346   -892969.08046  20204866.4334   20204868.0974
    -26406.74245      8718.01144  23427842.4724   23427848.5654
   -483666.93845   -370253.37745  22808776.5734   22808781.2024
    492611.37143    376983.55542  24292482.5194   24292490.1054
   -474166.74746   -369481.46946  21284202.3154   21284206.9444
 02  9  9 16 13 59.9990000  0  8G 9G11G 3G14G18G31G15G21
    -51690.53845    -22225.41843  24139377.1364   24139383.4644
  -3232205.74245  -2230025.27443  23709338.2304   23709342.8584
    158791.99045    140552.70345  23540716.2694   23540722.8434
  -1310277.84146   -931679.36846  20195413.2304   20195414.9054
    -10226.24345     21326.07743  23430921.6904   23430927.7024
   -495184.56745   -379228.20245  22806585.1834   22806590.5384
    543208.39043    416409.51543  24302111.0504   24302119.8314
   -506468.63346   -394651.78446  21278055.3624   21278060.0034
 02  9  9 16 14 29.9990000  0  9G 9G11G 3G14G18G31G25G15G21
    -35147.08845     -9334.48543  24142525.1514   24142531.4564
  -3385609.18945  -2349560.35943  23680146.3394   23680151.5774
    186132.37045    161856.74145  23545919.1984   23545925.0814
  -1358113.53346   -968953.93646  20186310.6124   20186312.4994
      7418.39745     35075.02643  23434279.1904   23434285.6474
   -504891.67045   -386792.24745  22804737.9174   22804743.1674
         5.06155                  23619508.9334
    595312.66643    457009.96042  24312027.2064   24312036.4094
   -537210.70046   -418606.67146  21272205.5424   21272210.3004
 02  9  9 16 14 59.9990000  0  9G 9G11G 3G14G18G31G25G15G21
    -16806.62145      4956.73743  24146015.4174   24146022.0854
  -3537495.78845  -2467913.52544  23651243.9954   23651248.2964
    214958.56545    184318.57845  23551404.9174   23551411.5384
  -1404136.80046  -1004816.23146  20177552.3554   20177554.0894
     26498.30845     49942.35844  23437910.3154   23437915.8124
   -512819.47845   -392969.81245  22803229.4094   22803234.9994
   -156489.08945    -77099.87054  23589728.4954   23589735.3664
    648893.40443    498760.87742  24322223.2374   24322230.4834
   -566421.20246   -441368.11946  21266646.8704   21266651.7694
 02  9  9 16 15 29.9990000  0  9G 9G11G 3G14G18G31G25G15G21
      3267.79745     20599.04143  24149835.4094   24149841.7264
  -3687924.27945  -2585130.46944  23622618.2534   23622622.2614
    245206.95945    207888.61245  23557160.1284   23557166.2574
  -1448409.50646  -1039314.44646  20169127.8314   20169129.7064
     46952.44145     65880.52343  23441802.7924   23441808.2184
   -519031.25845   -397810.23245  22802047.2924   22802053.3624
   -311616.51545   -197978.19244  23560208.7614   23560215.3704
    703888.16842    541613.66542  24332688.7924   24332698.2884
   -594161.23246   -462983.74646  21261368.1984   21261373.2724
 02  9  9 16 15 59.9990000  0  9G 9G11G 3G14G18G31G25G15G21
     25071.46144     37588.85442  24153984.0344   24153990.3394
  -3836893.79645  -2701210.55544  23594270.4174   23594274.4834
    276872.47145    232562.90845  23563186.2374   23563192.5074
  -1490935.11446  -1072451.28746  20161035.4564   20161037.5194
     68778.52545     82887.71944  23445956.0114   23445962.0224
   -523531.32845   -401316.84545  22801191.0504   22801196.6164
   -465376.37345   -317790.88744  23530948.9804   23530954.7574
    760292.92742    585565.05242  24343423.3704   24343436.1014
   -620432.53746   -483454.91546  21256368.6674   21256373.6944
 02  9  9 16 16 29.9990000  0  9G 9G11G 3G14G18G31G25G15G21
     48531.53743     55869.35543  24158448.4014   24158455.0114
  -3984472.71945  -2816207.06744  23566186.3864   23566190.5934
    309881.74045    258284.28045  23569468.2144   23569473.5224
  -1531785.25546  -1104282.57746  20153261.7694   20153263.7614
     91905.99845    100908.98544  23450356.9014   23450362.6554
   -526392.68345   -403546.53845  22800646.0424   22800652.2064
   -617836.07345   -436590.50644  23501936.9254   23501943.0424
    818035.48842    630559.00442  24354409.4644   24354420.1904
   -645303.97846   -502835.28446  21251635.9564   21251640.8784
 02  9  9 16 16 59.9990000  0  9G 9G11G 3G14G18G31G25G15G21
     73591.67443     75396.67442  24163217.0894   24163223.4644
  -4130712.89445  -2930160.42144  23538358.6204   23538363.6124
    344177.83745    285008.34644  23575994.2924   23576000.9604
  -1571015.34846  -1134851.49246  20145796.6834   20145798.7804
    116280.48345    119901.97243  23454995.4254   23455000.9914
   -527671.77245   -404543.30645  22800402.8314   22800408.6904
   -769047.32545   -554417.29944  23473162.8314   23473169.7374
    877059.97943    676551.83141  24365642.6754   24365651.7844
   -668830.65246   -521167.79046  21247158.9564   21247164.0544
 02  9  9 16 17 29.9990000  0  9G 9G11G 3G14G18G31G25G15G21
    100201.18143     96131.27142  24168281.1834   24168286.6554
  -4275659.69345  -3043105.95044  23510775.8704   23510781.0974
    379709.80845    312695.46244  23582756.2304   23582762.5934
  -1608674.57846  -1164196.35546  20138630.4094   20138632.3664
    141853.81845    139829.09844  23459862.1054   23459867.2724
   -527419.04745   -404346.47145  22800451.2694   22800456.9174
   -919055.52245   -671306.64044  23444616.6674   23444623.1594
    937316.69643    723504.76442  24377109.5034   24377116.6554
   -691059.63546   -538489.10946  21242929.2304   21242934.2574
 02  9  9 16 17 59.9990000  0  9G 9G11G 3G14G18G31G25G15G21
    128294.59843    118022.18942  24173627.3944   24173633.9334
  -4419374.28545  -3155091.29844  23483427.5894   23483432.1714
    416411.34745    341293.94144  23589740.8394   23589748.0504
  -1644827.61146  -1192367.56746  20131751.1674   20131752.9254
    168562.86045    160641.19843  23464945.3944   23464951.3584
   -525700.04145   -403007.07045  22800778.6904   22800784.2224
  -1067920.78045   -787305.38344  23416288.1834   23416294.1014
    998740.68743    771367.29842  24388798.8314   24388809.0424
   -712053.59246   -554848.06646  21238934.3474   21238939.1984
 02  9  9 16 18 29.9990000  0  9G 9G11G 3G14G18G31G25G15G21
    157817.60143    141027.03442  24179246.2614   24179253.5304
  -4561905.98045  -3266154.89044  23456304.5114   23456309.8904
    454227.83645    370761.21844  23596936.8084   23596943.7374
  -1679527.34446  -1219406.33146  20125147.8004   20125149.4404
    196355.57745    182297.72243  23470233.9404   23470239.6944
   -522569.09845   -400567.44545  22801373.9954   22801380.1594
  -1215692.28445   -902451.86045  23388168.4954   23388174.7184
   1061278.42943    820097.69142  24400701.1594   24400714.0194
   -731864.27346   -570284.99746  21235164.6054   21235169.5264
 02  9  9 16 18 59.9990000  0  9G 9G11G 3G14G18G31G25G15G21
    188728.01743    165112.91042  24185128.2764   24185135.7104
  -4703292.06045  -3376325.80644  23429400.1444   23429404.5734
    493116.72445    401064.08444  23604336.6284   23604342.9914
  -1712814.77346  -1245344.60646  20118813.2924   20118815.2724
    225192.20145    204767.69343  23475721.6834   23475728.0584
   -518068.23645   -397060.38545  22802231.1284   22802237.3154
  -1362407.04045  -1016774.86744  23360249.9874   23360256.4094
   1124888.25543    869663.46342  24412803.6204   24412813.3154
   -750530.16346   -584829.88246  21231612.5424   21231617.6874
 02  9  9 16 19 29.9990000  0  9G 9G11G 3G14G18G31G25G15G21
    220963.31043    190231.27842  24191262.1984   24191267.5894
  -4843590.25845  -3485649.00144  23402701.5734   23402706.2264
    533015.03845    432153.51644  23611930.1754   23611936.1054
  -1744751.08446  -1270230.05246  20112736.1594   20112737.9994
    255012.69145    228004.31743  23481396.0654   23481401.3744
   -512259.98845   -392534.57545  22803336.8314   22803342.4334
  -1508122.19745  -1130319.01045  23332520.5974   23332526.8314
   1189508.71943    920016.74942  24425102.6674   24425112.3394
   -768111.75446   -598529.86046  21228266.8704   21228271.9804
 02  9  9 16 19 59.9990000  0  9G 9G11G 3G14G18G31G25G15G21
    254411.92443    216295.05642  24197627.1124   24197632.8314
  -4982907.37945  -3594207.72844  23376191.0424   23376196.2694
    573810.43145    463941.99944  23619692.6754   23619698.6284
  -1775447.07946  -1294149.02546  20106894.8234   20106896.7334
    285707.64345    251922.26843  23487237.6204   23487243.2574
   -505256.06545   -387077.08645  22804669.0114   22804674.0154
  -1652944.36645  -1243167.28645  23304961.6754   23304967.8274
   1255028.78743    971070.99942  24437570.2064   24437582.1984
   -784717.48046   -611469.42546  21225106.9644   21225111.7104
 02  9  9 16 20 29.9990000  0  9G 9G11G 3G14G18G31G25G15G21
    288992.00043    243240.49942  24204207.3004   24204213.0774
  -5121320.22445  -3702061.85044  23349851.7694   23349856.2104
    615420.77845    496365.46244  23627610.6904   23627617.1594
  -1804983.13646  -1317164.15846  20101274.2304   20101276.3394
    317197.60445    276459.79243  23493229.8704   23493236.3044
   -497138.32045   -380751.64645  22806213.7064   22806219.8354
  -1796949.63945  -1355379.05445  23277558.0584   23277564.5734
   1321367.17643   1022762.90541  24450193.6834   24450203.5424
   -800426.18946   -623710.01646  21222117.6674   21222122.8824
 02  9  9 16 20 59.9990000  0  9G 9G11G 3G14G18G31G25G15G21
    324667.52342    271039.51842  24210996.3784   24211004.0584
  -5258859.95445  -3809235.60244  23323678.8554   23323684.1874
    657809.90145    529395.81744  23635677.8394   23635684.2724
  -1833394.30746  -1339302.74646  20095868.1594   20095870.3154
    349448.79745    301590.37643  23499367.0264   23499372.4644
   -487942.54745   -373586.20545  22807964.1984   22807970.0114
  -1940169.01145  -1466978.43045  23250304.8154   23250311.5654
   1388488.63943   1075065.05941  24462966.3234   24462978.3864
   -815271.05046   -635277.47546  21219292.9094   21219297.9374
 02  9  9 16 21 29.9990000  0  9G 9G11G 3G14G18G31G25G15G21
    361464.33142    299712.28142  24217998.9644   24218006.3154
  -5395496.20345  -3915705.34444  23297677.8704   23297682.6164
    701003.05645    563052.66044  23643896.8314   23643904.0194
  -1860653.60746  -1360543.77146  20090680.7844   20090682.8004
    382489.22845    327335.99043  23505655.2764   23505660.5854
   -477643.30345   -365560.94345  22809924.2454   22809929.7414
  -2082571.51245  -1577941.26545  23223206.3004   23223212.1244
   1456419.65843   1127997.89341  24475893.7844   24475908.5774
   -829223.52946   -646149.58546  21216637.9874   21216643.0734
 02  9  9 16 21 59.9990000  0  9G 9G11G 3G14G18G31G25G15G21
    399368.82242    329248.07442  24225211.3624   24225217.3274
  -5531237.44545  -4021477.68544  23271846.3944   23271852.3124
    744986.55845    597325.32644  23652266.9334   23652273.2374
  -1886773.21346  -1380896.72946  20085710.2304   20085712.3044
    416308.11845    353688.22243  23512090.5034   23512096.4214
   -466253.73045   -356686.07245  22812092.1594   22812098.0074
  -2224164.82945  -1688273.58045  23196262.0264   23196268.2844
   1525147.82643   1181551.99742  24488972.7144   24488983.5464
   -842293.85746   -656334.29346  21214150.6124   21214155.4174
 02  9  9 16 22 29.9990000  0  9G 9G11G 3G14G18G31G25G15G21
    438277.74042    359566.64942  24232616.3554   24232622.5544
  -5666181.56345  -4126628.89244  23246168.6364   23246174.2374
    789656.68445    632133.04644  23660767.6594   23660775.1054
  -1911855.27546  -1400441.20246  20080937.1594   20080939.6794
    450804.54345    380568.38243  23518653.9254   23518659.5264
   -453877.23745   -347042.16145  22814446.8234   22814452.8824
  -2365047.38545  -1798052.05845  23169452.3084   23169459.4374
   1594570.29843   1235647.03242  24502183.7304   24502197.7264
   -854582.00846   -665909.51946  21211812.2764   21211817.3514
 02  9  9 16 22 59.9990000  0  9G 9G11G 3G14G18G31G25G15G21
    478120.47842    390612.84042  24240197.4094   24240204.0544
  -5800394.49145  -4231210.33744  23220626.9174   23220631.1014
    834942.44245    667420.46844  23669385.2534   23669392.0264
  -1935969.32346  -1419231.38946  20076348.5194   20076350.6984
    485910.20145    407923.28743  23525334.9564   23525341.1204
   -440584.44545   -336684.24145  22816976.1834   22816982.5694
  -2505284.22645  -1907327.39445  23142766.1364   23142772.4054
   1664617.32343   1290228.75042  24515513.6204   24515523.8194
   -866156.29746   -674928.49646  21209609.8624   21209614.9604
 02  9  9 16 23 29.9990000  0  9G 9G11G 3G14G18G31G25G15G21
    518887.77943    422379.46642  24247955.9954   24247960.4374
  -5933880.59245  -4335225.44745  23195225.7844   23195230.8234
    880834.25745    703180.15644  23678118.3704   23678124.1594
  -1959123.35646  -1437273.50446  20071942.5264   20071944.7184
    521618.46345    435747.76043  23532130.1204   23532136.2844
   -426384.55845   -325619.49645  22819678.3944   22819684.2534
  -2644879.10245  -2016102.47645  23116202.2924   23116207.9764
   1735280.58943   1345290.68142  24528960.3084   24528974.7144
   -877022.86846   -683396.00446  21207542.0734   21207547.3584
 02  9  9 16 23 59.9990000  0  9G 9G11G 3G14G18G31G25G15G21
    560563.54743    454853.99042  24255886.0654   24255890.5194
  -6066650.99245  -4438682.86845  23169961.1054   23169966.7064
    927315.81845    739399.37044  23686963.7924   23686970.7104
  -1981332.38146  -1454579.25546  20067716.4804   20067718.7184
    557915.49045    464030.95143  23539037.7454   23539043.2764
   -411293.73745   -313860.54245  22822550.9954   22822556.8194
  -2783843.12345  -2124386.00745  23089757.9404   23089764.3044
   1806544.78643   1400820.82842  24542522.2454   24542534.0154
   -887194.48946   -691321.99646  21205606.6054   21205611.7614
 02  9  9 16 24 29.9990000  0  9G 9G11G 3G14G18G31G25G15G21
    603139.10843    488029.67242  24263988.2374   24263994.0974
  -6198709.50145  -4541585.57444  23144830.6984   23144834.6244
    974378.01945    776071.05444  23695919.6674   23695925.5854
  -2002603.76946  -1471154.38046  20063668.4334   20063670.7414
    594795.25945    492768.26743  23546056.1834   23546062.6404
   -395320.45345   -301413.94445  22825590.2224   22825595.3784
  -2922179.34945  -2232180.32845  23063433.3624   23063439.3514
   1878402.17542   1456813.17542  24556196.1204   24556210.5974
   -896676.95046   -698710.97746  21203801.9954   21203807.5154
 02  9  9 16 24 59.9990000  0  9G 9G11G 3G14G18G31G25G15G21
    646608.47243    521901.78142  24272258.5584   24272264.7924
  -6330056.80645  -4643934.07344  23119836.4254   23119841.4404
   1022014.67745    813190.34144  23704984.4484   23704991.6834
  -2022942.39546  -1487002.67746  20059798.3154   20059800.5304
    632254.10644    521956.79743  23553184.4094   23553191.1714
   -378470.85445   -288284.49345  22828796.3154   22828802.4804
  -3059888.30645  -2339485.86745  23037228.1124   23037234.4294
   1950847.20442   1513263.46441  24569982.1674   24569994.8864
   -905473.29846   -705565.31446  21202128.1984   21202133.3314
 02  9  9 16 25 29.9990000  0  9G 9G11G 3G14G18G31G25G15G21
    690947.34843    556451.44742  24280697.4014   24280703.4014
  -6460712.42845  -4745743.63245  23094973.1754   23094978.3434
   1070201.04945    850737.99745  23714154.6054   23714161.9914
  -2042371.57346  -1502142.31746  20056101.0034   20056103.2764
    670270.18444    551579.52043  23560418.3624   23560425.1124
   -360769.36345   -274491.23145  22832164.6204   22832170.5504
  -3196989.21145  -2446317.59045  23011138.8784   23011144.9604
   2023856.33742   1570153.26041  24583875.9334   24583885.7574
   -913604.68246   -711901.49446  21200581.0264   21200586.5464
 02  9  9 16 25 59.9990000  0  7G11G 3G14G18G31G25G21
  -6590678.02045  -4847015.44245  23070242.4484   23070246.2574
   1118930.04445    888708.47344  23723426.9404   23723434.2574
  -2060896.89346  -1516577.64046  20052575.7534   20052578.0154
    708839.15845    581633.10043  23567758.5734   23567765.3824
   -342222.64545   -260039.33645  22835694.8004   22835700.3784
  -3333483.26645  -2552676.46045  22985164.9094   22985169.8314
   -921074.44446   -717722.13446  21199159.7694   21199164.9374
 02  9  9 16 26 29.9990000  0  7G11G 3G14G18G31G25G21
  -6719970.72845  -4947762.98545  23045638.2614   23045643.7924
   1168179.32045    927084.36144  23732798.9484   23732806.6514
  -2078539.39046  -1530325.06346  20049218.2924   20049220.5654
    747941.35745    612102.13543  23575199.8474   23575206.0464
   -322853.09145   -244946.30645  22839381.4254   22839386.4174
  -3469387.38945  -2658575.64245  22959302.6594   22959309.0224
   -927902.62146   -723042.84646  21197860.2844   21197865.4874
 02  9  9 16 26 59.9990000  0  7G11G 3G14G18G31G25G21
  -6848593.36945  -5047988.39345  23021161.8784   23021166.8474
   1217941.02445    965859.53844  23742269.0974   23742277.0464
  -2095305.48346  -1543389.57246  20046027.9644   20046030.1554
    787571.75544    642982.77042  23582741.2844   23582748.0934
   -302668.33745   -229218.04245  22843222.1284   22843227.5304
  -3604703.52745  -2764016.64945  22933552.9564   22933559.1084
   -934093.08446   -727866.63546  21196682.3704   21196687.5854
 02  9  9 16 27 29.9990000  0  7G11G 3G14G18G31G25G21
  -6976551.85445  -5147696.23645  22996813.1984   22996817.0774
   1268203.84045   1005025.17943  23751834.0654   23751840.6054
  -2111205.12746  -1555778.92946  20043002.2694   20043004.4254
    827721.52644    674268.07843  23590380.9174   23590385.7574
   -281679.39245   -212863.12945  22847215.3784   22847221.6124
  -3739437.88945  -2869004.32545  22907913.5194   22907919.6714
   -939654.08446   -732199.93746  21195623.9804   21195629.3234
 02  9  9 16 27 59.9990000  0  7G11G 3G14G18G31G25G21
  -7103853.39645  -5246892.19145  22972587.2534   22972592.0344
   1318955.36045   1044571.62644  23761491.6444   23761498.1834
  -2126249.31846  -1567501.69146  20040139.7144   20040141.9404
    868381.23744    705950.81043  23598118.7064   23598124.9174
   -259898.48345   -195891.08945  22851360.4404   22851366.8624
  -3873596.98645  -2973543.73645  22882384.2694   22882389.5654
   -944594.27146   -736049.47446  21194684.0264   21194689.8044
 02  9  9 16 28 29.9990000  0  7G11G 3G14G18G31G25G21
  -7230493.70245  -5345572.90445  22948488.7304   22948493.1014
   1370194.27544   1084497.86043  23771242.1754   23771249.0934
  -2140438.09046  -1578557.89946  20037439.8154   20037442.1244
    909552.22944    738031.87343  23605953.5654   23605959.3554
   -237326.66145   -178302.77745  22855656.2304   22855661.7024
  -4007176.22945  -3077631.31645  22856964.7764   22856971.0344
   -948912.32746   -739414.24946  21193862.5194   21193867.9444
 02  9  9 16 28 59.9990000  0  7G11G 3G14G18G31G25G21
  -7356461.49245  -5443729.59845  22924517.3944   22924522.1284
   1421926.61444   1124808.60744  23781086.6834   23781093.2694
  -2153763.80246  -1588941.58746  20034903.8314   20034906.1164
    951243.59144    770518.42842  23613887.1674   23613892.5344
   -213957.56845   -160093.19445  22860103.0974   22860109.1204
  -4140163.97545  -3181257.99045  22831658.0734   22831663.8624
   -952598.81646   -742286.89746  21193161.2374   21193166.3704
 02  9  9 16 29 29.9990000  0  7G11G 3G14G18G31G25G21
  -7481783.54245  -5541383.08745  22900669.7924   22900674.3744
   1474120.59844   1165479.03243  23791018.8704   23791024.5894
  -2166257.15246  -1598676.68746  20032526.4484   20032528.5464
    993425.94544    803387.56243  23621914.7454   23621921.9804
   -189823.06545   -141287.21945  22864695.8474   22864701.5774
  -4272586.67345  -3284444.36845  22806458.2144   22806463.8974
   -955682.13446   -744689.53746  21192574.1444   21192579.4404
 02  9  9 16 29 59.9980000  0  7G11G 3G14G18G31G25G21
  -7606467.55145  -5638539.39245  22876942.7324   22876947.4794
   1526757.52344   1206494.64943  23801035.9984   23801044.1704
  -2177933.52446  -1607775.18346  20030304.5224   20030306.6544
   1036083.45344    836627.00343  23630031.6624   23630038.6504
   -164940.86745   -121898.62145  22869430.7644   22869436.6004
  -4404451.26845  -3387195.86545  22781365.0764   22781371.1704
   -958175.96346   -746632.84146  21192099.8184   21192104.9164
 02  9  9 16 30 29.9980000  0  7G11G 3G14G18G31G25G21
  -7730525.19045  -5735207.64245  22853335.5454   22853339.9634
   1579831.69544   1247850.98043  23811135.6314   23811143.8734
  -2188801.38646  -1616243.67146  20028236.7014   20028238.9864
   1079212.89444    870234.15542  23638239.6474   23638245.9394
   -139318.28845   -101933.09145  22874307.1934   22874313.0414
  -4535769.99645  -3489522.01545  22756375.9204   22756382.2604
   -960086.12346   -748121.33446  21191736.2324   21191741.6934
 02  9  9 16 30 59.9980000  0  7G11G 3G14G18G31G25G21
  -7853963.98145  -5831393.67945  22829846.4754   22829850.5884
   1633324.67444   1289533.64243  23821314.4594   23821321.7754
  -2198875.59446  -1624093.72846  20026319.6704   20026322.0254
   1122798.71544    904196.93142  23646533.9674   23646539.6394
   -112972.65445    -81404.14045  22879320.3814   22879326.1824
  -4666549.16845  -3591427.73445  22731489.7724   22731495.5494
   -961425.89646   -749165.36646  21191481.5064   21191487.0724
 02  9  9 16 31 29.9980000  0  7G11G 3G14G18G31G25G21
  -7976786.78445  -5927099.69145  22806474.2014   22806478.8654
   1687228.19944   1331536.21143  23831572.9364   23831580.8854
  -2208163.13946  -1631330.79846  20024552.2014   20024554.4634
   1166835.32643    938510.95342  23654913.8034   23654919.7914
    -85912.05745    -60318.09745  22884469.9824   22884475.3264
  -4796791.72145  -3692915.30445  22706705.4044   22706711.5574
   -962200.37746   -749768.90546  21191334.1624   21191339.4364
 02  9  9 16 31 59.9980000  0  7G11G 3G14G18G31G25G21
  -8098988.92545  -6022322.08645  22783219.1704   22783223.7644
   1741542.04344   1373858.48843  23841908.0374   23841914.7524
  -2216663.21646  -1637954.26346  20022934.9594   20022937.1864
   1211325.10943    973178.09042  23663380.2644   23663386.6744
    -58136.89045    -38675.24145  22889755.5684   22889762.2134
  -4926492.40945  -3793980.64845  22682023.6544   22682029.9244
   -962406.65646   -749929.69646  21191295.0924   21191300.2724
 02  9  9 16 32 29.9980000  0  7G11G 3G14G18G31G25G21
  -8220570.49445  -6117060.91345  22760083.1394   22760086.9474
   1796260.90644   1416496.38643  23852321.3814   23852327.2754
  -2224380.01646  -1643967.37346  20021466.5614   20021468.7404
   1256265.40343   1008196.34442  23671932.6544   23671940.6864
    -29652.53245    -16479.74545  22895175.9754   22895181.9984
  -5055651.06645  -3894623.63145  22657445.5374   22657451.4204
   -962046.45546   -749649.07446  21191363.3424   21191368.5804
 02  9  9 16 32 59.9980000  0  7G11G 3G14G18G31G25G21
  -8341529.59145  -6211314.70745  22737064.9284   22737069.7794
   1851380.91244   1459446.86643  23862810.4204   23862818.0184
  -2231315.98846  -1649372.04946  20020146.3894   20020148.5574
   1301655.33443   1043564.89242  23680570.1864   23680575.0024
      -462.40445      6265.69145  22900730.2564   22900736.9244
  -5184265.78445  -3994842.76445  22632971.4434   22632977.6074
   -961120.20246   -748927.36646  21191539.9284   21191545.3304
 02  9  9 16 33 29.9980000  0  7G11G 3G14G18G31G25G21
  -8461868.01345  -6305084.85245  22714165.9904   22714169.6234
   1906895.16844   1502704.49143  23873374.2954   23873383.6394
  -2237476.68946  -1654172.62346  20018973.9754   20018976.1314
   1347490.67944   1079280.49642  23689292.7724   23689298.6784
     29426.69945     29555.76145  22906418.4204   22906424.8894
  -5312338.02545  -4094639.20945  22608599.4284   22608605.3464
   -959631.88746   -747767.68646  21191823.1004   21191828.4204
 02  9  9 16 33 59.9980000  0  7G11G 3G14G18G31G25G21
  -8581587.69145  -6398372.86145  22691383.7644   22691387.3974
   1962797.05344   1546264.23043  23884012.2094   23884020.0064
  -2242867.47746  -1658373.26046  20017948.2644   20017950.5374
   1393767.61844   1115340.24543  23698099.3574   23698105.9794
     60008.09045     53385.28545  22912238.4904   22912244.3614
  -5439868.43546  -4194013.44345  22584331.4364   22584337.7874
   -957585.11246   -746172.84646  21192212.4904   21192217.8224
 02  9  9 16 34 29.9980000  0  7G11G 3G14G18G31G25G21
  -8700679.89445  -6491171.92845  22668721.0534   22668726.1154
   2019089.16044   1590128.02043  23894725.0684   23894732.4674
  -2247484.47146  -1661970.94046  20017069.9594   20017072.1974
   1440491.46644   1151748.26042  23706990.1314   23706998.3504
     91284.55945     77756.42745  22918190.0614   22918195.6744
  -5566848.75645  -4292959.03045  22560167.7094   22560173.7444
   -954973.22546   -744137.65046  21192709.9514   21192715.3074
 02  9  9 16 34 59.9980000  0  7G11G 3G14G18G31G25G21
  -8819152.30045  -6583488.02745  22646175.9904   22646180.6784
   2075758.92944   1634286.10243  23905508.3654   23905515.6114
  -2251339.13646  -1664974.59046  20016336.1234   20016338.3854
   1487652.32844   1188496.72742  23715964.3654   23715970.6354
    123243.40745    102659.33045  22924271.6234   22924277.8224
  -5693286.02845  -4391481.46345  22536107.4204   22536113.7484
   -951806.24746   -741669.92146  21193312.3574   21193317.6194
 02  9  9 16 35 29.9980000  0  7G11G 3G14G18G31G25G21
  -8936997.12945  -6675315.09945  22623751.8344   22623755.9944
   2132808.86244   1678740.37243  23916365.1004   23916372.1114
  -2254427.89846  -1667381.44446  20015748.4824   20015750.6864
   1535255.18044   1225589.69442  23725022.9904   23725031.4084
    155887.08645    128095.82544  22930483.2874   22930489.1824
  -5819172.74446  -4489574.90945  22512152.2174   22512157.8304
   -948077.79646   -738764.67946  21194021.7874   21194027.0724
 02  9  9 16 35 59.9980000  0  7G11G 3G14G18G31G25G21
  -9054215.47945  -6766654.02245  22601445.1154   22601449.4394
   2190232.90343   1723486.21043  23927292.4204   23927301.0254
  -2256755.83946  -1669195.44246  20015305.4514   20015307.7834
   1583296.41744   1263024.26042  23734164.9904   23734172.1194
    189209.24545    154061.03744  22936825.0534   22936831.1824
  -5944509.29246  -4587239.63445  22488301.4754   22488307.5804
   -943791.09546   -735424.44646  21194837.6704   21194843.1194
 02  9  9 16 36 29.9980000  0  7G11G 3G14G18G31G25G21
  -9170790.74245  -6857491.82745  22579261.9824   22579265.7564
   2248042.16044   1768532.16143  23938293.7724   23938301.2524
  -2258310.31446  -1670406.75046  20015009.7254   20015012.1274
   1631790.13244   1300811.35042  23743393.3734   23743400.7134
    223221.37545    180563.84445  22943296.4434   22943301.9634
  -6069278.59345  -4684462.34045  22464558.0144   22464564.0724
   -938931.56646   -731637.84746  21195762.1394   21195768.0924
 02  9  9 16 36 59.9980000  0  7G11G 3G14G18G31G25G21
  -9286719.86445  -6947826.15045  22557201.2564   22557205.4514
   2306234.65343   1813876.78743  23949367.0924   23949374.9004
  -2259092.33446  -1671016.13846  20014860.6864   20014863.4044
   1680736.81744   1338951.42542  23752707.8504   23752716.7724
    257921.22545    207602.58644  22949900.5454   22949907.0024
  -6193477.56246  -4781240.64545  22440923.6154   22440929.5574
   -933498.08446   -727404.01846  21196796.2954   21196801.7914
 02  9  9 16 37 29.9980000  0  7G11G 3G14G18G31G25G21
  -9402001.04145  -7037655.60745  22535263.8184   22535267.4864
   2364806.75843   1859517.20243  23960512.7484   23960518.9244
  -2259104.29446  -1671025.48946  20014858.4824   20014861.0614
   1730136.12644   1377444.17742  23762108.2174   23762114.2644
    293305.31245    235174.48144  22956633.7564   22956640.4714
  -6317103.78046  -4877572.66145  22417398.3894   22417404.2834
   -927490.95346   -722723.19146  21197939.6704   21197945.3544
 02  9  9 16 37 59.9980000  0  7G11G 3G14G18G31G25G21
  -9516601.50446  -7126954.60445  22513456.6004   22513461.1704
   2423786.19843   1905475.02443  23971736.9204   23971745.1044
  -2258317.64046  -1670412.53746  20015008.4514   20015010.8544
   1780017.85544   1416312.90542  23771600.6074   23771606.1274
    329401.07145    263300.91644  22963502.0684   22963509.4674
  -6440124.85846  -4973433.12645  22393988.1314   22393994.0964
   -920879.77946   -717571.67546  21199197.6234   21199203.0964
 02  9  9 16 38 29.9980000  0  7G11G 3G14G18G31G25G21
  -9630496.25546  -7215703.71345  22491782.5224   22491786.6114
   2483192.27343   1951765.29243  23983041.5064   23983049.0924
  -2256711.61946  -1669161.11846  20015313.8264   20015316.3224
   1830404.05043   1455574.63542  23781188.7174   23781194.0254
    366228.05645    291997.14444  22970510.6394   22970516.7914
  -6562515.31946  -5068802.20545  22370697.8574   22370704.1394
   -913641.03646   -711931.13846  21200575.3974   21200581.2914
 02  9  9 16 38 59.9980000  0  7G11G 3G14G18G31G25G21
  -9743681.83346  -7303900.22445  22470244.0684   22470248.2644
   2543023.70643   1998386.97742  23994427.2254   23994434.8694
  -2254286.33646  -1667271.31546  20015775.4824   20015777.8264
   1881296.08944   1495230.51942  23790874.1934   23790882.4714
    403784.84345    321262.05344  22977657.0374   22977663.4124
  -6684270.77146  -5163676.47745  22347528.4514   22347534.3814
   -905773.39346   -705800.54646  21202072.3894   21202077.8974
 02  9  9 16 39 29.9980000  0  7G11G 3G14G18G31G25G21
  -9856163.52646  -7391548.24945  22448839.9124   22448843.8504
   2603270.38043   2045332.20143  24005891.0924   24005899.4284
  -2251051.21546  -1664750.46846  20016391.2324   20016393.7524
   1932686.54844   1535274.88342  23800653.3894   23800662.6394
    442060.88945    351087.40345  22984941.3734   22984947.4084
  -6805396.00246  -5258059.63345  22324479.3504   22324485.4084
   -897283.74346   -699185.28546  21203687.8734   21203693.7214
 02  9  9 16 39 59.9980000  0  7G11G 3G14G18G31G25G21
  -9967960.14446  -7478662.46145  22427565.1474   22427568.1114
   2663907.99143   2092582.14042  24017430.5844   24017440.0684
  -2247029.38046  -1661616.59446  20017156.4984   20017158.9364
   1984553.70544   1575690.60643  23810523.3344   23810530.3814
    481031.93945    381454.32544  22992357.3654   22992363.0614
  -6925909.87546  -5351966.43445  22301546.0924   22301552.2324
   -888192.93946   -692101.58546  21205418.0294   21205423.7134
 02  9  9 16 40 29.9980000  0  7G11G 3G14G18G31G25G21
 -10079063.09846  -7565236.14745  22406423.3734   22406427.5224
   2724939.85443   2140139.19943  24029044.0764   24029050.8144
  -2242216.56646  -1657866.37246  20018072.3034   20018074.7174
   2036903.43844   1616482.42343  23820484.8034   23820492.1434
    520701.14545    412365.26744  22999905.7404   22999912.9514
  -7045803.55646  -5445389.96645  22278731.1544   22278737.0724
   -878494.53246   -684544.43546  21207263.6074   21207269.4324
 02  9  9 16 40 59.9980000  0  7G11G 3G14G18G31G25G21
 -10189474.32146  -7651270.82145  22385412.3184   22385416.5254
   2786358.62943   2187997.79642  24040731.7174   24040739.6544
  -2236618.80446  -1653504.50446  20019137.6474   20019140.0844
   2089731.04244   1657646.57042  23830538.4514   23830544.4284
    561061.06145    443814.42744  23007586.3734   23007592.4554
  -7165079.03846  -5538331.77545  22256033.4434   22256039.8774
   -868192.84646   -676517.18046  21209224.0064   21209229.7014
 02  9  9 16 41 29.9980000  0  7G11G 3G14G18G31G25G21
 -10299221.55346  -7736788.10345  22364528.0844   22364532.7134
   2848131.62643   2236132.41043  24052488.6314   24052498.9124
  -2230267.84946  -1648555.72746  20020345.9514   20020348.4594
   2143006.50843   1699159.66042  23840675.4284   23840685.0064
    602078.94445    475776.26744  23015392.3184   23015398.7524
  -7283763.47446  -5630813.05045  22233447.9904   22233454.2254
   -857317.37646   -668042.83146  21211293.3344   21211298.9004
 02  9  9 16 41 59.9980000  0  7G11G 3G14G18G31G25G21
 -10408302.21546  -7821785.96445  22343770.7254   22343775.2724
   2910256.28343   2284541.08042  24064309.7094   24064318.5724
  -2223165.19646  -1643021.21646  20021697.6784   20021700.3854
   2196729.90943   1741021.83642  23850899.0454   23850908.7874
    643752.05045    508248.65344  23023322.9044   23023329.1624
  -7401854.24246  -5722831.70145  22210976.3734   22210982.4794
   -845867.47846   -659120.88046  21213472.3734   21213478.2684
 02  9  9 16 42 29.9980000  0  7G11G 3G14G18G31G25G21
 -10516738.59146  -7906281.79745  22323135.7254   22323140.2724
   2972705.27943   2333202.43043  24076193.6784   24076201.7564
  -2215337.24546  -1636921.53946  20023187.2794   20023189.9044
   2250876.43043   1783213.65642  23861203.5614   23861209.9594
    686052.73645    541210.09544  23031372.7174   23031378.6114
  -7519373.00346  -5814404.64145  22188613.2324   22188618.9394
   -833867.06546   -649769.94946  21215755.7094   21215761.3694
 02  9  9 16 42 59.9980000  0  7G11G 3G14G18G31G25G21
 -10624543.70146  -7990285.73945  22302621.3504   22302625.8384
   3035460.24243   2382102.19343  24088135.5534   24088144.5804
  -2206801.40646  -1630270.26346  20024811.6704   20024814.0724
   2305430.32343   1825722.97342  23871585.6544   23871591.8654
    728962.62445    574646.24444  23039537.7014   23039543.4434
  -7636332.57246  -5905541.85345  22166356.5764   22166362.4124
   -821330.89646   -640001.55846  21218141.4284   21218147.2644
 02  9  9 16 43 29.9980000  0  7G11G 3G14G18G31G25G21
 -10731724.81746  -8073803.45345  22282225.3894   22282229.4084
   3098508.84843   2431230.80742  24100133.1784   24100142.5454
  -2197568.86246  -1623076.09446  20026568.5534   20026571.0844
   2360381.67543   1868542.00142  23882041.6474   23882048.3264
    772469.01045    608547.19945  23047816.8504   23047822.9434
  -7752740.30746  -5996249.06245  22144204.8424   22144210.8774
   -808268.67846   -629823.24946  21220627.1074   21220633.0494
 02  9  9 16 43 59.9980000  0  7G11G 3G14G18G31G25G21
 -10838278.45646  -8156832.21645  22261949.0684   22261953.2294
   3161849.08543   2480586.63342  24112186.6314   24112195.8344
  -2187640.45946  -1615339.69946  20028457.6864   20028460.2054
   2415731.53042   1911671.52442  23892575.4364   23892582.9044
    816570.00745    642911.47145  23056209.1394   23056215.6784
  -7868592.20946  -6086523.15845  22122158.5224   22122164.1704
   -794679.04646   -619233.97346  21223213.3184   21223219.0374
 02  9  9 16 44 29.9980000  0  7G11G 3G14G18G31G25G21
 -10944219.29746  -8239383.47245  22241788.8504   22241793.1744
   3225461.36742   2530154.50942  24124290.9124   24124301.8504
  -2177035.11346  -1607075.82046  20030476.0684   20030478.7874
   2471462.75142   1955098.10642  23903179.8814   23903186.2794
    861245.63345    677723.52145  23064711.1864   23064718.8074
  -7983902.14246  -6176374.94545  22100215.3424   22100221.3544
   -780578.38346   -608246.47946  21225896.6154   21225902.5924
 02  9  9 16 44 59.9980000  0  7G11G 3G14G18G31G25G21
 -11049553.45546  -8321461.98945  22221744.8504   22221749.0104
   3289334.74143   2579925.69642  24136447.2254   24136456.9674
  -2165763.05946  -1598292.43046  20032621.0614   20032623.4864
   2527566.72443   1998815.27641  23913857.1004   23913863.9714
    906484.56045    712974.49845  23073319.5294   23073325.8224
  -8098676.54146  -6265809.41545  22078375.1394   22078381.1044
   -765974.81946   -596867.12546  21228675.3504   21228681.2094
 02  9  9 16 45 29.9980000  0  7G11G 3G14G18G31G25G21
 -11154294.26046  -8403078.15745  22201813.1074   22201816.8814
   3353450.88443   2629886.14042  24148647.7404   24148654.5144
  -2153841.40046  -1589002.85046  20034889.5534   20034892.1544
   2584027.66743   2042810.59342  23924601.7644   23924610.4284
    952268.26845    748649.97845  23082031.6154   23082039.0724
  -8212928.39146  -6354836.72545  22056633.4904   22056639.3614
   -750883.72846   -585107.87646  21231547.1074   21231552.9084
 02  9  9 16 45 59.9980000  0  7G11G 3G14G18G31G25G21
 -11258440.67246  -8484231.15145  22181994.9754   22181998.8654
   3417805.35343   2680032.25543  24160895.7014   24160904.7874
  -2141273.60646  -1579209.79746  20037281.3894   20037283.9904
   2640843.78843   2087082.67442  23935413.2094   23935423.5614
    998592.06145    784746.28545  23090847.6624   23090853.7444
  -8326656.55346  -6443455.96345  22034991.7014   22034997.5254
   -735305.97646   -572969.40146  21234511.5224   21234517.2874
 02  9  9 16 46 29.9980000  0  7G11G 3G14G18G31G25G21
 -11361986.26746  -8564915.98345  22162290.8974   22162294.8224
   3482399.73242   2730365.38042  24173186.3114   24173194.1434
  -2128057.10846  -1568911.24946  20039796.4434   20039798.9394
   2698019.39343   2131634.90442  23946293.3344   23946300.5224
   1045457.26745    821264.49545  23099765.2874   23099771.3934
  -8439854.11746  -6531661.73845  22013450.7174   22013456.7754
   -719237.05046   -560448.20946  21237569.4514   21237575.5334
 02  9  9 16 46 59.9980000  0  7G11G 3G14G18G31G25G21
 -11464935.51446  -8645136.12945  22142700.0224   22142704.4984
   3547224.15243   2780877.72242  24185522.6704   24185532.8574
  -2114200.81246  -1558114.15646  20042433.1074   20042435.7794
   2755547.07043   2176461.40542  23957239.9364   23957246.5574
   1092854.01945    858196.88844  23108784.6704   23108791.3384
  -8552525.17746  -6619457.25345  21992009.8344   21992015.8224
   -702683.25546   -547549.19046  21240719.5224   21240725.5924
 02  9  9 16 47 29.9980000  0  7G11G 3G14G18G31G25G21
 -11567288.65446  -8724891.76545  22123222.4204   22123227.5184
   3612273.43043   2831565.28042  24197901.7954   24197911.8424
  -2099709.29846  -1546822.09046  20045190.6394   20045193.2874
   2813423.96643   2221560.05441  23968253.4044   23968261.8464
   1140776.60145    895539.02544  23117904.4984   23117910.6274
  -8664669.86146  -6706842.61445  21970669.4594   21970675.4004
   -685647.32746   -534274.48946  21243961.3114   21243967.2754
 02  9  9 16 47 59.9980000  0  7G11G 3G14G18G31G25G21
 -11669043.75246  -8804181.40145  22103859.0684   22103863.4514
   3677544.54143   2882425.67542  24210322.6074   24210329.2994
  -2084584.68746  -1535036.70046  20048068.9284   20048071.6004
   2871649.52143   2266930.40942  23979335.3424   23979345.8464
   1189221.62945    933288.25944  23127123.6074   23127130.9244
  -8776286.02846  -6793816.14945  21949429.9364   21949436.0294
   -668128.85146   -520623.76946  21247295.0844   21247301.1894
 02  9  9 16 48 29.9980000  0  7G11G 3G14G18G31G25G21
 -11770215.72146  -8883016.65445  22084606.8734   22084611.4674
   3743017.28043   2933443.21342  24222781.0064   24222790.2214
  -2068845.85246  -1522772.69146  20051063.8894   20051066.6434
   2930206.55342   2312559.03942  23990476.9204   23990484.5644
   1238168.94745    971428.86344  23136437.9364   23136444.5924
  -8887388.06046  -6880389.05345  21928287.8184   21928293.4674
   -650144.70446   -506610.19946  21250717.3974   21250723.4674
 02  9  9 16 48 59.9980000  0  7G11G 3G14G18G31G25G21
 -11870790.68146  -8961386.69645  22065468.1154   22065473.0964
   3808700.55943   2984624.77342  24235280.3114   24235289.8774
  -2052483.15146  -1510022.55746  20054177.6314   20054180.6544
   2989106.27143   2358454.64542  24001685.7564   24001694.2564
   1287627.01145   1009967.48144  23145849.1784   23145856.1314
  -8997962.02346  -6966550.46845  21907246.2014   21907252.2364
   -631683.15646   -492224.61846  21254230.4594   21254236.4594
 02  9  9 16 49 29.9980000  0  7G11G 3G14G18G31G25G21
 -11970780.78146  -9039301.01945  22046440.4904   22046444.8034
   3874577.35743   3035957.17743  24247816.3424   24247824.8894
  -2035512.82746  -1496798.94646  20057407.1074   20057409.9204
   3048334.13743   2404605.96742  24012957.7254   24012964.5844
   1337578.41045   1048890.50544  23155353.9364   23155360.5454
  -9108019.91246  -7052309.75245  21886302.6074   21886308.4324
   -612758.25746   -477477.99746  21257831.8734   21257837.8734
 02  9  9 16 49 59.9980000  0  7G11G 3G14G18G31G25G21
 -12070173.24746  -9116749.64445  22027526.8344   22027531.1704
   3940655.26543   3087446.25042  24260390.7484   24260398.2754
  -2017926.45846  -1483095.30246  20060753.6394   20060756.2054
   3107900.25743   2451020.89742  24024291.5764   24024300.5224
   1388030.42345   1088203.58844  23164955.9754   23164962.4324
  -9217548.47746  -7137656.57145  21865459.7724   21865465.7834
   -593359.39346   -462362.04146  21261523.6004   21261529.5294
 02  9  9 16 50 29.9980000  0  6G11G14G18G31G25G21
 -12168973.46146  -9193736.78845  22008725.5224   22008729.4244
  -1999733.75946  -1468919.19446  20064215.7404   20064218.4594
   3167796.45043   2497693.00442  24035690.2644   24035700.7684
   1438972.23445   1127898.36844  23174649.8504   23174657.0024
  -9326553.24146  -7222595.24945  21844717.0374   21844722.7324
   -573493.77846   -446882.39246  21265303.8184   21265309.7014
 02  9  9 16 50 59.9980000  0  6G11G14G18G31G25G21
 -12267185.27446  -9270265.43745  21990036.3184   21990040.2094
  -1980942.42646  -1454276.62146  20067791.3974   20067794.3504
   3228016.73843   2544617.74442  24047149.8654   24047157.9904
   1490394.94644   1167967.86744  23184435.5684   23184442.4124
  -9435037.45946  -7307128.28145  21824072.8654   21824078.7364
   -553166.63346   -431043.10246  21269172.1624   21269178.0924
 02  9  9 16 51 29.9980000  0  6G11G14G18G31G25G21
 -12364795.03446  -9346324.94045  21971461.8264   21971465.9284
  -1961543.28846  -1439160.43546  20071482.9904   20071485.6974
   3288571.91843   2591803.40641  24058673.4904   24058681.4514
   1542306.50944   1208418.28243  23194314.3574   23194321.1314
  -9542987.64446  -7391245.20845  21803530.5844   21803536.2324
   -532366.79146   -414835.48046  21273130.2014   21273136.2954
 02  9  9 16 51 59.9980000  0  6G11G14G18G31G25G21
 -12461807.23946  -9421918.82145  21953001.1154   21953005.3574
  -1941544.73446  -1423577.17346  20075288.7254   20075291.3504
   3349455.25043   2639244.67141  24070259.8654   24070268.8934
   1594697.31044   1249242.12543  23204282.8504   23204289.1894
  -9650407.63246  -7474948.98146  21783089.2014   21783094.9434
   -511100.23646   -398264.18446  21277176.7954   21277182.6434
 02  9  9 16 52 29.9980000  0  6G11G14G18G31G25G21
 -12558223.62746  -9497048.43745  21934653.7954   21934657.8734
  -1920952.97546  -1407531.68146  20079207.2564   20079210.1394
   3410662.25843   2686938.26042  24081907.0614   24081915.6894
   1647560.15944   1290433.79743  23214343.6864   23214349.4754
  -9757299.05846  -7558240.89145  21762748.7874   21762754.7174
   -489370.82746   -381332.23146  21281311.9364   21281317.9944
 02  9  9 16 52 59.9980000  0  6G11G14G18G31G25G21
 -12654040.03446  -9571710.51745  21916420.2174   21916424.0614
  -1899767.85546  -1391023.82446  20083238.4904   20083241.5724
   3472194.57943   2734885.30142  24093616.2644   24093628.6544
   1700893.81844   1331992.31143  23224491.9284   23224498.7484
  -9863657.39846  -7641117.39645  21742508.6394   21742514.1114
   -467176.35946   -364037.89546  21285535.4284   21285541.5224
 02  9  9 16 53 29.9980000  0  5G11G14G31G25G21
 -12749250.25946  -9645900.27345  21898302.2954   21898306.5374
  -1877987.26446  -1374051.96046  20087383.2404   20087386.0534
   1754699.27344   1373918.50743  23234731.2324   23234738.3384
  -9969476.45746  -7723573.69845  21722372.2874   21722378.1824
   -444512.69346   -346377.94446  21289847.9124   21289854.0294
 02  9  9 16 53 59.9980000  0  5G11G14G31G25G21
 -12843862.03846  -9719623.70745  21880298.6154   21880302.6474
  -1855622.99046  -1356625.28346  20091639.1394   20091641.9394
   1808963.33944   1416202.04643  23245057.1624   23245063.2684
 -10074763.59046  -7805615.50646  21702336.5844   21702342.6314
   -421389.35346   -328359.81846  21294248.5764   21294254.4244
 02  9  9 16 54 29.9980000  0  5G11G14G31G25G21
 -12937861.44546  -9792869.95945  21862410.7724   21862415.1664
  -1832665.30946  -1338736.20846  20096007.6474   20096010.6004
   1863694.67044   1458849.68543  23255471.9904   23255478.7404
 -10179504.52346  -7887231.71246  21682405.1864   21682410.9864
   -397794.52946   -309974.29046  21298738.7874   21298744.4714
 02  9  9 16 54 59.9980000  0  5G11G14G31G25G21
 -13031259.06646  -9865647.29045  21844637.9204   21844641.7294
  -1809129.08746  -1320396.32446  20100486.6394   20100489.6744
   1918877.43643   1501849.04743  23265973.8814   23265981.4794
 -10283709.66846  -7968430.41446  21662575.6394   21662581.2644
   -373740.62046   -291231.04346  21303315.9984   21303321.9634
 02  9  9 16 55 29.9980000  0  5G11G14G31G25G21
 -13124054.37346  -9937955.26645  21826979.4284   21826983.2014
  -1785018.18246  -1301608.63846  20105074.7014   20105077.7484
   1974506.52844   1545196.23443  23276559.5144   23276566.7834
 -10387378.77646  -8049211.42146  21642848.1544   21642853.8504
   -349229.17646   -272131.28446  21307980.4434   21307986.3974
 02  9  9 16 55 59.9980000  0  5G11G14G31G25G21
 -13216234.95346 -10009784.25445  21809437.9824   21809441.9794
  -1760323.96846  -1282366.42746  20109773.9514   20109776.9164
   2030589.34644   1588896.99543  23287231.5924   23287238.8854
 -10490498.38746  -8129564.25446  21623224.4044   21623230.3814
   -324249.81246   -252666.90346  21312733.9044   21312739.6234
 02  9  9 16 56 29.9980000  0  5G11G14G31G25G21
 -13307810.95046 -10081142.12645  21792011.6544   21792015.7794
  -1735060.93546  -1262680.97646  20114581.3734   20114584.3144
   2087110.12844   1632939.02243  23297987.4124   23297994.9754
 -10593078.77446  -8209496.91946  21603704.0454   21603709.7294
   -298814.53546   -232847.26346  21317574.0224   21317580.1624
 02  9  9 16 56 59.9980000  0  5G11G14G31G25G21
 -13398771.51546 -10152020.44845  21774702.7644   21774706.4904
  -1709222.11946  -1242546.88646  20119498.4904   20119501.4904
   2144074.60644   1677326.74643  23308827.8734   23308836.0924
 -10695109.05146  -8289000.92446  21584288.4754   21584293.9824
   -272913.36346   -212664.55445  21322503.1234   21322508.9124
 02  9  9 16 57 29.9980000  0  5G11G14G31G25G21
 -13489128.22546 -10222428.22745  21757508.6004   21757512.2684
  -1682823.93146  -1221976.89646  20124521.8034   20124524.7564
   2201465.67644   1722046.90143  23319749.1934   23319756.3574
 -10796600.59846  -8368085.14646  21564975.3504   21564981.1044
   -246560.83146                  21327517.9204
 02  9  9 16 57 59.9980000  0  5G11G14G31G25G21
 -13578879.40446 -10292364.17245  21740428.9984   21740432.7364
  -1655868.20646  -1200972.47346  20129651.3424   20129654.5294
   2259279.80444   1767096.71444  23330751.1934   23330758.4754
 -10897551.10446  -8446747.76746  21545764.7404   21545769.9554
   -219757.10846     16042.74556  21332618.2644   21332623.9594
 02  9  9 16 58 29.9980000  0  5G11G14G31G25G21
 -13668031.59546 -10361833.37545  21723464.3424   21723468.3504
  -1628365.65946  -1179541.96146  20134885.1314   20134888.2134
   2317505.15144   1812466.96543  23341831.0374   23341839.2684
 -10997967.40946  -8524994.12546  21526656.1154   21526661.6934
   -192510.37846     37273.89646  21337803.2484   21337809.0724
 02  9  9 16 58 59.9980000  0  5G11G14G31G25G21
 -13756581.98646 -10430833.63845  21706613.6074   21706617.2404
  -1600317.36046  -1157686.18546  20140222.2014   20140225.1784
   2376139.50244   1858155.91544  23352989.3034   23352997.3574
 -11097846.09746  -8602821.57346  21507649.5374   21507655.2324
   -164819.72346     58850.96346  21343072.9754   21343078.8344
 02  9  9 16 59 29.9980000  0  5G11G14G31G25G21
 -13844526.99546 -10499362.18445  21689877.9824   21689881.9794
  -1571724.16346  -1135405.82046  20145663.4984   20145666.6864
   2435180.92144   1904162.02544  23364224.0224   23364231.9244
 -11197183.40646  -8680227.17146  21488746.1934   21488751.7954
   -136683.63546     80775.11946  21348426.7094   21348432.8034
 02  9  9 16 59 59.9980000  0  5G11G14G31G25G21
 -13931868.22046 -10567420.24745  21673257.1934   21673261.2724
  -1542591.97546  -1112705.45746  20151207.1394   20151210.3264
   2494622.24944   1950479.78444  23375535.2954   23375542.6934
 -11295981.08246  -8757212.26746  21469945.9284   21469951.2834
   -108105.32246    103043.87146  21353865.5144   21353871.3504
 02  9  9 17  0 29.9970000  0  5G11G14G31G25G21
 -14018607.26746 -10635009.08845  21656751.2354   21656755.2314
  -1512930.16446  -1089592.40446  20156851.8214   20156854.9974
   2554451.94244   1997100.17744  23386920.7434   23386929.3964
 -11394239.91146  -8833777.48846  21451247.6264   21451252.6654
    -79092.25346    125651.39646  21359386.2674   21359392.1384
 02  9  9 17  0 59.9970000  0  5G11G14G31G25G21
 -14104732.95846 -10702119.97645  21640361.9624   21640366.1814
  -1482723.99546  -1066055.17646  20162599.6654   20162602.6884
   2614685.79644   2044035.47844  23398383.1494   23398389.5014
 -11491949.22346  -8909914.51046  21432654.1964   21432659.7394
    -49627.27746    148611.04146  21364993.2434   21364999.4424
 02  9  9 17  1 29.9970000  0  5G11G14G31G25G21
 -14190253.15746 -10768759.05845  21624088.0874   21624092.3764
  -1451989.02946  -1042105.89446  20168448.4854   20168451.7204
   2675305.65344   2091271.58144  23409918.4854   23409927.5364
 -11589116.09946  -8985628.86546  21414163.7904   21414169.2984
    -19724.08446    171912.16946  21370683.6734   21370689.5444
 02  9  9 17  1 59.9970000  0  5G11G14G31G25G21
 -14275156.51846 -10834917.48545  21607931.6424   21607935.9424
  -1420718.45446  -1017739.25646  20174399.1814   20174402.2744
   2736317.46244   2138813.07744  23421529.6884   23421535.7594
 -11685729.69646  -9060912.09746  21395778.7514   21395784.4814
     10626.44846    195561.87346  21376459.4384   21376465.1574
 02  9  9 17  2 29.9970000  0  6G20G11G14G31G25G21
    -17481.74651                  24066817.9464
 -14359453.93146 -10900603.74945  21591890.3684   21591894.1774
  -1388927.05246   -992966.77946  20180448.7434   20180452.0484
   2797705.01044   2186647.36543  23433210.7674   23433217.1654
 -11781800.36646  -9135772.27746  21377497.0324   21377502.3294
     41412.09246    219550.61746  21382317.8684   21382323.8214
 02  9  9 17  2 59.9970000  0  6G20G11G14G31G25G21
   -122280.39641                  24046875.6034
 -14443143.23046 -10965816.15445  21575965.1344   21575968.9894
  -1356616.57946   -967789.82346  20186597.3134   20186600.7824
   2859465.63844   2234772.36444  23444963.4544   23444971.1464
 -11877325.62546  -9210207.45346  21359319.4784   21359324.6574
     72633.15346    243878.65246  21388258.8064   21388264.5834
 02  9  9 17  3 29.9970000  0  6G20G11G14G31G25G21
   -226882.30541                  24026970.1264
 -14526218.40446 -11030550.02246  21560156.1494   21560160.2984
  -1323785.20646   -942206.97546  20192845.0954   20192848.2824
   2921599.91544   2283188.51144  23456786.6964   23456794.0954
 -11972299.01846  -9284212.60946  21341246.4154   21341251.6064
    104293.25046    268548.79545  21394283.5324   21394289.6614
 02  9  9 17  3 59.9970000  0  6G20G11G14G31G25G21
   -331296.49142    -51509.79852  24007101.2514   24007107.8024
 -14608686.81146 -11094811.08646  21544462.9234   21544466.7784
  -1290444.57146   -916227.29746  20199189.7204   20199193.0014
   2984095.10944   2331885.91643  23468680.4704   23468688.7244
 -12066727.91346  -9357793.48246  21323276.9544   21323282.3334
    136383.51346    293554.12745  21400390.4074   21400396.5134
 02  9  9 17  4 29.9970000  0  6G20G11G14G31G25G21
   -435514.84542   -132718.78242  23987269.7434   23987278.0444
 -14690538.65946 -11158591.70446  21528886.7044   21528890.6304
  -1256588.48446   -889845.97446  20205632.2904   20205635.4544
   3046956.00543   2380868.26244  23480641.5484   23480649.1814
 -12160602.46346  -9430942.40546  21305412.9934   21305418.6774
    168911.89846    318900.85746  21406580.1574   21406586.2514
 02  9  9 17  4 59.9970000  0  6G20G11G14G31G25G21
   -539543.75142   -213780.16142  23967473.1654   23967478.9664
 -14771778.65046 -11221895.57546  21513427.4384   21513431.5054
  -1222225.86146   -863069.93846  20212171.1264   20212174.2314
   3110172.63143   2430127.78043  23492671.4544   23492680.1424
 -12253927.34946  -9503663.01746  21287654.0244   21287659.2044
    201872.03946    344584.03246  21412852.2744   21412858.4154
 02  9  9 17  5 29.9970000  0  6G20G11G14G31G25G21
   -643385.81142   -294695.93942  23947712.4934   23947719.3994
 -14852407.69546 -11284723.35846  21498083.8924   21498088.0284
  -1187361.69246   -835903.09946  20218805.7744   20218808.9624
   3173738.83143   2479659.74743  23504767.9624   23504777.0604
 -12346702.93546  -9575955.60946  21269999.2594   21270004.3924
    235260.97646    370601.30946  21419206.0954   21419212.2594
 02  9  9 17  5 59.9970000  0  6G20G11G14G31G25G21
   -747034.11242   -375460.72442  23927989.2124   23927994.6964
 -14932417.27146 -11347068.46546  21482858.6184   21482862.1224
  -1151991.52747   -808341.96746  20225536.5404   20225539.7514
   3237657.76543   2529466.53243  23516932.0634   23516941.1614
 -12438920.77446  -9647813.59346  21252450.9704   21252456.3134
    269085.17646    396957.75646  21425642.9314   21425649.0134
 02  9  9 17  6 29.9970000  0  6G20G11G14G31G25G21
   -850488.25142   -456074.25442  23908301.3064   23908308.7634
 -15011805.42046 -11408929.32746  21467752.1654   21467755.6814
  -1116117.30447   -780388.06446  20232363.3764   20232366.7634
   3301926.30443   2579545.73243  23529161.5094   23529169.6464
 -12530578.58046  -9719235.17646  21235008.7124   21235014.1614
    303345.52546    423654.06845  21432162.3214   21432168.5914
 02  9  9 17  6 59.9970000  0  6G20G11G14G31G25G21
   -953753.96142   -536540.95442  23888651.5404   23888657.6694
 -15090576.18046 -11470309.12246  21452762.4784   21452766.4624
  -1079747.29247   -752047.82946  20239284.0094   20239287.2434
   3366535.22943   2629890.21743  23541455.0714   23541461.3294
 -12621680.04146  -9790223.25546  21217672.3374   21217677.7864
    338035.59946    450685.22245  21438763.6814   21438769.6924
 02  9  9 17  7 29.9970000  0  6G20G11G14G31G25G21
  -1056819.85243   -616851.93042  23869037.7674   23869045.7164
 -15168716.86546 -11531197.92846  21437892.4154   21437896.4704
  -1042872.56646   -723314.30946  20246301.3214   20246304.4504
   3431492.01643   2680505.75543  23553817.4234   23553826.8254
 -12712212.66646  -9860768.08346  21200444.7044   21200450.3414
    373166.28746    478059.71145  21445448.8064   21445454.6654
 02  9  9 17  7 59.9970000  0  6G20G11G14G31G25G21
  -1159696.16242   -697015.15042  23849461.6184   23849469.6034
 -15246235.85146 -11591602.29846  21423141.0714   21423145.2904
  -1005505.63146   -694197.25446  20253411.7354   20253415.1814
   3496783.19243   2731381.78942  23566242.9234   23566250.3684
 -12802184.81646  -9930876.17546  21183323.5324   21183328.5834
    408727.35646    505769.54745  21452215.9464   21452221.8414
 02  9  9 17  8 29.9970000  0  6G20G11G14G31G25G21
  -1262367.03842   -777018.36942  23829923.7904   23829931.0134
 -15323115.87646 -11651508.78546  21408511.3684   21408515.4934
   -967632.93747   -664686.09346  20260618.9934   20260622.2284
   3562420.98142   2782527.94642  23578732.6734   23578740.0604
 -12891578.29246 -10000533.36146  21166312.7514   21166318.1774
    444734.11346    533826.68945  21459067.7284   21459073.8924
 02  9  9 17  8 59.9970000  0  6G20G11G14G31G25G21
  -1364837.66443   -856865.47442  23810423.1574   23810430.2164
 -15399360.58346 -11710920.22246  21394002.5244   21394006.4504
   -929262.39547   -634787.00146  20267920.4234   20267923.7744
   3628396.48243   2833937.28942  23591287.4624   23591295.0014
 -12980397.06246 -10069742.72046  21149410.6034   21149415.8294
    481181.28246    562226.98845  21466003.6734   21466009.9194
 02  9  9 17  9 29.9970000  0  6G20G11G14G31G25G21
  -1467109.43743   -936557.70942  23790961.6964   23790970.6184
 -15474969.93146 -11769836.57746  21379614.6344   21379618.4544
   -890397.79146   -604502.92846  20275316.1264   20275319.7354
   3694704.53543   2885605.74742  23603905.0954   23603912.3644
 -13068640.90546 -10138504.08646  21132618.3534   21132623.4384
    518066.99346    590969.01645  21473022.8764   21473028.9114
 02  9  9 17  9 59.9970000  0  6G20G11G14G31G25G21
  -1569177.88943  -1016091.47042  23771541.1884   23771547.3534
 -15549937.75646 -11828253.05146  21365348.8134   21365352.7634
   -851036.99446   -573832.20846  20282806.2284   20282809.8604
   3761346.19443   2937534.11542  23616588.3374   23616597.7864
 -13156303.35946 -10206812.42846  21115937.1654   21115942.5094
    555395.73146    620056.25945  21480126.4464   21480132.3884
 02  9  9 17 10 29.9970000  0  6G20G11G14G31G25G21
  -1671041.59943  -1095465.69842  23752155.4854   23752163.7164
 -15624261.24546 -11886167.43046  21351205.2284   21351209.0954
   -811181.11247   -542775.70646  20290390.5714   20290394.0994
   3828319.32543   2989720.83442  23629331.4154   23629341.8024
 -13243381.52946 -10274665.47746  21099366.6034   21099371.8064
    593168.75146    649489.70545  21487314.4784   21487320.3374
 02  9  9 17 10 59.9970000  0  6G20G11G14G31G25G21
  -1772705.75843  -1174684.39842  23732809.1104   23732819.0404
 -15697944.28546 -11943582.75546  21337183.7434   21337187.7864
   -770837.72646   -511339.33046  20298067.8994   20298071.4624
   3895614.85143   3042158.70342  23642137.0484   23642145.7944
 -13329878.75046 -10342065.84446  21082906.2984   21082911.2314
    631380.56446    679265.05945  21494586.1264   21494592.1614
 02  9  9 17 11 29.9970000  0  6G20G11G14G31G25G21
  -1874175.20743  -1253751.42442  23713501.2744   23713508.4034
 -15770990.29746 -12000501.69446  21323283.6034   21323287.8214
   -730014.21646   -479528.83446  20305836.3134   20305840.0524
   3963224.41143   3094841.27242  23655003.0714   23655012.2164
 -13415798.95846 -10409016.59546  21066556.5014   21066561.7984
    670025.64546    709378.02145  21501939.8454   21501945.8924
 02  9  9 17 11 59.9970000  0  6G20G11G14G31G25G21
  -1975436.07643  -1332655.89542  23694229.9624   23694235.9384
 -15843383.89546 -12056912.25846  21309507.4074   21309511.4624
   -688699.33246   -447335.44646  20313698.2204   20313702.0404
   4031158.16443   3147776.55142  23667930.8064   23667939.4934
 -13501126.02046 -10475505.15246  21050319.2674   21050324.3764
    709117.82546    739839.37945  21509378.7904   21509385.0954
 02  9  9 17 12 29.9970000  0  6G20G11G14G31G25G21
  -2076483.34143  -1411393.96742  23675002.1104   23675007.4894
 -15915118.31346 -12112809.17946  21295856.8684   21295860.4664
   -646890.18946   -414756.92246  20321654.4314   20321657.9934
   4099417.61443   3200965.59342  23680920.9234   23680929.2594
 -13585853.54046 -10541526.52946  21034196.1654   21034201.0404
    748661.93746    770652.88645  21516904.2594   21516910.2824
 02  9  9 17 12 59.9970000  0  6G20G11G14G31G25G21
  -2177326.14942  -1489972.66242  23655812.1104   23655819.6494
 -15986201.68846 -12168198.79146  21282330.1654   21282334.1494
   -604598.55746   -381802.43346  20329702.1884   20329705.7394
   4167989.95243   3254398.45543  23693970.1574   23693980.7674
 -13669988.89246 -10607086.48646  21018185.4624   21018190.5364
    788648.46146    801811.12945  21524513.0244   21524519.2004
 02  9  9 17 13 29.9970000  0  6G20G11G14G31G25G21
  -2277957.11543  -1568386.31542  23636662.7284   23636670.8294
 -16056625.29946 -12223074.30846  21268929.0244   21268933.0674
   -561819.50047   -348468.13046  20337842.7044   20337846.3134
   4236878.88043   3308077.91242  23707078.7044   23707088.7284
 -13753523.62446 -10672178.43046  21002289.5714   21002294.6924
    829083.79746    833319.10945  21532208.1494   21532214.2204
 02  9  9 17 13 59.9970000  0  6G20G11G14G31G25G21
  -2378377.31343  -1646635.74742  23617552.8684   23617558.9854
 -16126388.69146 -12277435.36546  21255653.2354   21255657.0324
   -518556.65346   -314756.84946  20346075.5174   20346078.9384
   4306079.69143   3362000.48143  23720248.7124   23720259.1814
 -13836457.06646 -10736801.83846  20986507.8604   20986512.7594
    869967.36546    865176.35145  21539987.4384   21539993.4274
 02  9  9 17 14 29.9970000  0  6G20G11G14G31G25G21
  -2478598.03142  -1724729.69242  23598479.6104   23598484.1694
 -16195501.93146 -12331289.80446  21242501.5874   21242505.7244
   -474823.72446   -280679.27146  20354397.5174   20354401.1734
   4375577.46443   3416154.43243  23733473.5564   23733483.1924
 -13918798.76046 -10800964.14246  20970838.4314   20970843.7164
    911286.85246    897373.27845  21547850.6264   21547856.5094
 02  9  9 17 14 59.9970000  0  6G20G11G14G31G25G21
  -2578610.88043  -1802661.70042  23579450.7284   23579458.8644
 -16263955.26646 -12384630.03746  21229475.2204   21229479.2044
   -430614.68946   -246230.70346  20362810.2124   20362813.7984
   4445376.97043   3470543.46843  23746755.2044   23746766.2944
 -14000538.74446 -10864657.58046  20955283.6734   20955289.0054
    953050.51446    929916.30045  21555798.0324   21555804.0444
 02  9  9 17 15 29.9970000  0  6G20G11G14G31G25G21
  -2678413.93343  -1880430.23442  23560457.3994   23560463.3534
 -16331745.21246 -12437453.34746  21216575.3064   21216579.6884
   -385930.43246   -211411.83146  20371313.4544   20371316.9584
   4515476.19443   3525166.07242  23760095.2674   23760104.9034
 -14081673.72946 -10927879.58846  20939844.3214   20939849.3134
    995259.56146    962806.38345  21563830.3764   21563836.3644
 02  9  9 17 15 59.9970000  0  6G20G11G14G31G25G21
  -2778011.43243  -1958038.55842  23541505.6184   23541512.5014
 -16398875.05446 -12489762.29346  21203800.8134   21203804.8454
   -340777.46946   -176227.73746  20379905.8604   20379909.6344
   4585867.46643   3580016.26042  23773488.7904   23773498.6964
 -14162206.65746 -10990632.46346  20924519.7044   20924524.8604
   1037909.71146    996040.19245  21571946.6494   21571952.6494
 02  9  9 17 16 29.9970000  0  6G20G11G14G31G25G21
  -2877395.33943  -2035480.44642  23522592.9624   23522599.0674
 -16465335.42946 -12541549.58546  21191153.7204   21191157.7164
   -295150.44346   -140674.24546  20388588.1964   20388591.9704
   4656555.07743   3635097.37142  23786939.8454   23786947.5134
 -14242128.36046 -11052909.06046  20909310.7434   20909316.0754
   1081008.49346   1029623.57745  21580147.9854   21580153.9154
 02  9  9 17 16 59.9970000  0  6G20G11G14G31G25G21
  -2976566.99643  -2112757.02342  23503721.7044   23503728.4544
 -16531126.32746 -12592815.19346  21178634.5014   21178638.4274
   -249052.97046   -104754.16946  20397360.4624   20397364.2714
   4727534.13443   3690405.51443  23800448.1814   23800457.1964
 -14321438.24046 -11114708.91846  20894218.3684   20894223.4314
   1124553.84746   1063554.93345  21588434.3374   21588440.2784
 02  9  9 17 17 29.9970000  0  6G20G11G14G31G25G21
  -3075532.39742  -2189872.81342  23484886.8294   23484891.6344
 -16596252.45546 -12643562.80346  21166241.2204   21166244.9114
   -202493.54647    -68474.13546  20406220.3684   20406224.0484
   4798794.79743   3745933.14743  23814009.5874   23814019.5754
 -14400141.28746 -11176035.91246  20879241.8684   20879247.0484
   1168539.48546   1097829.36445  21596804.7904   21596810.7314
 02  9  9 17 17 59.9970000  0  6G20G11G14G31G25G21
  -3174283.44343  -2266821.54842  23466098.0244   23466104.6224
 -16660704.97446 -12693785.52646  21153976.3374   21153980.2044
   -155466.99747    -31830.11046  20415169.3534   20415172.7744
   4870341.33143   3801683.48243  23827624.6654   23827633.3064
 -14478228.23946 -11236882.83746  20864382.1654   20864387.3454
   1212973.02246   1132452.82045  21605260.0874   21605266.1574
 02  9  9 17 18 29.9970000  0  6G20G11G14G31G25G21
  -3272832.45644  -2343612.90342  23447344.9704   23447352.3214
 -16724494.60246 -12743491.71146  21141837.7904   21141841.3884
   -107987.76046      5166.65946  20424204.3454   20424208.1774
   4942158.11843   3857644.51743  23841291.4624   23841300.2314
 -14555709.59146 -11297257.86846  20849638.2514   20849643.0794
   1257841.97146   1167415.54345  21613798.5404   21613804.5994
 02  9  9 17 18 59.9970000  0  6G20G11G14G31G25G21
  -3371168.45944  -2420238.30742  23428631.4934   23428638.2554
 -16787609.43446 -12792672.08546  21129827.1034   21129831.1344
    -60047.71146     42522.49346  20433327.0874   20433330.8604
   5014252.03943   3913821.40843  23855008.6494   23855017.6424
 -14632573.15846 -11357151.51846  20835011.4314   20835016.3884
   1303156.22346   1202725.26945  21622421.5484   21622427.7594
 02  9  9 17 19 29.9970000  0  6G20G11G14G31G25G21
  -3469303.16844  -2496706.79442  23409956.0954   23409962.2824
 -16850059.78046 -12841334.66446  21117943.2204   21117947.1344
    -11660.85946     80226.48846  20442534.9154   20442538.6424
   5086607.98643   3970202.50943  23868778.5404   23868787.8374
 -14708829.25346 -11416571.80446  20820500.5244   20820505.4704
   1348903.90146   1238372.71645  21631126.9934   21631133.0404
 02  9  9 17 19 59.9970000  0  6G20G11G14G31G25G21
  -3567224.46945  -2573009.02143  23391323.4154   23391329.8254
 -16911832.58446 -12889469.29146  21106188.0954   21106192.0094
     37182.43147    118286.15146  20451829.3994   20451833.1854
   5159234.13543   4026794.12942  23882600.3844   23882611.2744
 -14784464.81046 -11475508.55846  20806107.4384   20806112.6424
   1395097.06146   1274367.29845  21639917.3764   21639923.3644
 02  9  9 17 20 29.9970000  0  6G20G11G14G31G25G21
  -3664932.99545  -2649145.41943  23372730.0634   23372737.0524
 -16972927.44346 -12937075.65246  21094562.2594   21094566.2204
     86478.92146    156698.96346  20461210.3454   20461214.1884
   5232126.35942   4083593.09843  23896470.5564   23896479.4424
 -14859479.12246 -11533961.23346  20791832.5094   20791837.4074
   1441733.85146   1310707.56745  21648792.3374   21648798.3724
 02  9  9 17 20 59.9970000  0  6G20G11G14G31G25G21
  -3762444.13844  -2725128.06544  23354173.5484   23354181.1224
 -17033358.37746 -12984164.67146  21083062.6494   21083066.5174
    136210.59046    195450.87246  20470673.8684   20470677.4664
   5305265.50542   4140584.49042  23910387.3684   23910396.4664
 -14933885.99146 -11591940.55846  20777673.6264   20777678.2434
   1488798.43246   1347381.17745  21657748.3064   21657754.5284
 02  9  9 17 21 29.9970000  0  6G20G11G14G31G25G21
  -3859755.44444  -2800954.95444  23335656.0714   23335663.5874
 -17093121.95446 -13030733.66246  21071689.7434   21071693.6104
    186377.30646    234541.77546  20480220.4314   20480224.4034
   5378650.18942   4197767.11943  23924354.5404   23924365.2204
 -15007681.97146 -11649443.88146  20763630.7284   20763635.5444
   1536292.84946   1384389.72945  21666786.3064   21666792.1654
 02  9  9 17 21 59.9970000  0  6G20G11G14G31G25G21
  -3956857.58644  -2876618.86643  23317178.9234   23317184.4424
 -17152208.10546 -13076774.80346  21060446.0954   21060449.8564
    236985.81846    273976.93246  20489850.8844   20489854.7744
   5452286.00342   4255145.48742  23938367.1814   23938376.8534
 -15080856.64946 -11706463.06446  20749705.8684   20749710.9664
   1584225.59046   1421739.82245  21675907.3924   21675913.3804
 02  9  9 17 22 29.9970000  0  6G20G11G14G31G25G21
  -4053762.57344  -2952129.16843  23298738.8134   23298743.6304
 -17210627.42346 -13122296.32846  21049329.6264   21049333.5404
    288021.87446    313745.24446  20499562.6424   20499566.5564
   5526157.48241   4312707.47841  23952422.5094   23952433.0604
 -15153420.81546 -11763006.52446  20735897.3064   20735902.1104
   1632584.49646   1459421.99945  21685110.1884   21685116.2714
 02  9  9 17 22 59.9970000  0  6G20G11G14G31G25G21
  -4150461.82344  -3027479.09243  23280336.3844   23280342.5364
 -17268370.53946 -13167290.95346  21038341.1184   21038345.0444
    339491.21846    353851.18546  20509357.1494   20509360.9934
   5600269.29442   4370456.82542  23966526.5014   23966537.7434
 -15225364.76146 -11819066.69646  20722206.7354   20722211.7044
   1681377.30146   1497442.27945  21694394.9624   21694401.0444
 02  9  9 17 23 29.9970000  0  6G20G11G14G31G25G21
  -4246954.16743  -3102667.84643  23261972.7204   23261979.1534
 -17325435.20546 -13211756.91946  21027482.1424   21027485.9744
    391392.52446    394293.71946  20519233.4464   20519237.3844
   5674619.02542   4428391.50542  23980674.7044   23980685.2084
 -15296685.87846 -11874641.55046  20708634.7904   20708639.6884
   1730605.01246   1535801.43745  21703762.9234   21703769.0874
 02  9  9 17 23 59.9970000  0  6G20G11G14G31G25G21
  -4343242.23944  -3177697.37343  23243651.1884   23243657.0954
 -17381823.49446 -13255695.84246  21016751.5954   21016755.5674
    443720.51946    435068.74346  20529191.2514   20529194.9664
   5749200.12742   4486506.45242  23994868.0174   23994878.0054
 -15367386.15946 -11929732.62746  20695180.8294   20695185.7164
   1780264.00546   1574496.66345  21713212.9704   21713219.1814
 02  9  9 17 24 29.9970000  0  6G20G11G14G31G25G21
  -4439334.09143  -3252574.04443  23225365.1574   23225372.2984
 -17437542.14946 -13299112.97446  21006148.8064   21006152.9664
    496464.69846    476168.06146  20539228.4154   20539232.3064
   5824000.86143   4544792.58342  24009103.3294   24009113.3764
 -15437472.16946 -11984345.05946  20681844.0874   20681848.8334
   1830345.09946   1613520.79145  21722743.2514   21722749.0994
 02  9  9 17 24 59.9970000  0  6G20G11G14G31G25G21
  -4535223.63743  -3327293.11043  23207117.5014   23207124.0054
 -17492583.98346 -13342002.71046  20995674.9314   20995678.8684
    549628.79546    517594.59246  20549345.0714   20549349.0094
   5899023.69342   4603251.78042  24023377.9074   24023388.3884
 -15506937.00146 -12038473.45446  20668625.1654   20668630.2744
   1880854.65646   1652878.78645  21732354.9234   21732360.9584
 02  9  9 17 25 29.9970000  0  6G20G11G14G31G25G21
  -4630909.12144  -3401853.09242  23188911.1654   23188917.6924
 -17546946.89546 -13384363.41446  20985330.1654   20985333.9034
    603211.62646    559347.41046  20559541.7204   20559545.7284
   5974266.48541   4661882.35942  24037696.6264   24037710.4114
 -15575777.77946 -12092115.56946  20655525.1814   20655530.1384
   1931793.51946   1692571.31345  21742048.1264   21742054.3724
 02  9  9 17 25 59.9970000  0  6G20G11G14G31G25G21
  -4726396.15244  -3476258.48843  23170739.4784   23170745.6654
 -17600635.28646 -13426198.51046  20975113.3374   20975117.1924
    657205.28046    601420.34546  20569816.2824   20569820.3494
   6049719.98441   4720677.09841  24052054.1344   24052070.1814
 -15643999.32046 -12145275.16946  20642542.9074   20642547.6534
   1983155.55246   1732593.58245  21751822.2434   21751828.2084
 02  9  9 17 26 29.9970000  0  6G20G11G14G31G25G21
  -4821681.35444  -3550506.58443  23152607.2514   23152615.1774
 -17653645.22046 -13467504.93646  20965025.8374   20965029.4584
    711610.21346    643813.75446  20580169.3134   20580173.3564
   6125383.70341   4779635.56141  24066453.2674   24066460.2674
 -15711596.94446 -12197948.59546  20629679.7354   20629684.4584
   2034943.06846   1772947.37845  21761676.8684   21761683.1614
 02  9  9 17 26 59.9970000  0  6G20G11G14G31G25G21
  -4916773.86244  -3624604.57143  23134512.1654   23134518.4934
 -17705984.80946 -13508289.00146  20955066.1344   20955069.9194
    766415.06846    686518.79346  20590598.0714   20590602.2554
   6201244.97142   4838748.15542  24080890.0714   24080898.8174
 -15778578.88146 -12250142.26146  20616933.5014   20616938.3764
   2087146.04546   1813624.93345  21771611.1814   21771617.6854
 02  9  9 17 27 29.9970000  0  6G20G11G14G31G25G21
  -5011666.15144  -3698546.47443  23116453.2674   23116459.6654
 -17757645.47546 -13548544.03946  20945235.4624   20945239.2354
    821624.53246    729539.10946  20601104.3844   20601108.2634
   6277307.35642   4898017.30942  24095363.3604   24095374.9424
 -15844936.48046 -12301849.43246  20604305.7284   20604310.7314
   2139771.56946   1854631.73345  21781625.4154   21781631.9314
 02  9  9 17 27 59.9970000  0  6G20G11G14G31G25G21
  -5106362.55644  -3772335.79843  23098432.2984   23098438.2164
 -17808631.14646 -13588273.11146  20935533.0794   20935536.7944
    877231.68546    772869.31846  20611685.8844   20611689.9624
   6353562.82142   4957437.03341  24109874.4314   24109882.6144
 -15910673.43146 -12353072.97946  20591796.5874   20591801.5564
   2192814.64146   1895963.90145  21791719.3534   21791725.6224
 02  9  9 17 28 29.9970000  0  5G20G11G14G25G21
  -5200863.78343  -3845973.02342  23080449.1734   23080453.9424
 -17858941.47846 -13627475.95146  20925959.1574   20925963.1654
    933233.49646    816507.04846  20622342.8684   20622346.6534
 -15975789.26547 -12403812.53746  20579405.5484   20579410.1304
   2246274.10046   1937620.50845  21801892.1424   21801897.9074
 02  9  9 17 28 59.9970000  0  5G20G11G14G25G21
  -5295172.20444  -3919460.04043  23062504.2824   23062511.2474
 -17908578.33346 -13666154.00746  20916513.5094   20916517.6104
    989624.76347    860448.24946  20633074.0014   20633077.9504
 -16040285.80547 -12454069.53046  20567132.2824   20567136.6424
   2300146.61046   1979598.96945  21812144.1424   21812150.3884
 02  9  9 17 29 29.9970000  0  5G20G11G14G25G21
  -5389291.69644  -3992799.79443  23044593.6344   23044600.6924
 -17957544.94946 -13704309.80146  20907195.6814   20907199.7474
   1046399.00746    904687.88246  20643877.4854   20643881.3884
 -16104166.29846 -12503846.49246  20554975.6494   20554980.3844
   2354427.40546   2021895.57445  21822473.5714   21822479.7124
 02  9  9 17 29 59.9970000  0  5G20G11G14G25G21
  -5483224.00644  -4065993.71143  23026720.8994   23026727.3804
 -18005842.18446 -13741943.99746  20898005.1264   20898008.9704
   1103552.01746    949222.64746  20654753.4544   20654757.4384
 -16167431.31946 -12553143.85746  20542936.8844   20542941.9464
   2409113.89546   2064508.30845  21832880.4704   21832886.4584
 02  9  9 17 30 29.9970000  0  5G20G11G14G25G21
  -5576962.35544  -4139036.46243  23008879.5174   23008886.7744
 -18053462.90146 -13779051.02846  20888942.9544   20888947.0324
   1161088.03746    994055.86646  20665702.0404   20665706.1884
 -16230073.16947 -12601955.64346  20531016.8064   20531021.5174
   2464211.89946   2107441.70245  21843364.9704   21843370.9114
 02  9  9 17 30 59.9970000  0  5G20G11G14G25G21
  -5670504.02145  -4211925.97744  22991080.1654   22991086.2004
 -18100403.69046 -13815628.25546  20880010.4384   20880014.2944
   1219006.91446   1039187.41846  20676724.0174   20676727.9314
 -16292088.31347 -12650279.08346  20519215.6574   20519220.2514
   2519723.53446   2150697.41145  21853928.5874   21853934.7634
 02  9  9 17 31 29.9970000  0  5G20G11G14G25G21
  -5763851.32545  -4284664.04444  22973317.8684   22973323.6694
 -18146666.28546 -13851677.01446  20871207.1654   20871211.3134
   1277303.85946   1084613.56546  20687817.3294   20687821.2904
 -16353478.75747 -12698115.74546  20507533.0564   20507537.8844
   2575645.72846   2194273.03045  21864570.1654   21864576.3294
 02  9  9 17 31 59.9970000  0  5G20G11G14G25G21
  -5857017.01545  -4357260.62544  22955588.1104   22955594.4744
 -18192262.68846 -13887206.66446  20862530.4704   20862534.1964
   1335963.48846   1130322.32546  20698980.2744   20698984.1184
 -16414256.40746 -12745474.90446  20495967.6344   20495972.2284
   2631964.73346   2238157.84745  21875287.7744   21875294.1384
 02  9  9 17 32 29.9970000  0  5G20G11G14G25G21
  -5950000.65345  -4429715.28844  22937894.3684   22937901.2514
 -18237191.81246 -13922216.36446  20853980.7984   20853984.3724
   1394983.67346   1176312.03246  20710211.3684   20710215.4584
 -16474419.83047 -12792355.44946  20484518.7514   20484523.2284
   2688680.21046   2282351.60645  21886080.4074   21886087.0174
 02  9  9 17 32 59.9970000  0  5G20G11G14G25G21
  -6042803.00345  -4502028.69444  22920235.7594   22920242.2514
 -18281454.38546 -13956706.67346  20845557.8534   20845561.7434
   1454360.78146   1222579.86346  20721510.3604   20721514.5914
 -16533969.12847 -12838757.44746  20473187.0014   20473191.6884
   2745790.57746   2326853.05045  21896948.0174   21896954.1104
 02  9  9 17 33 29.9970000  0  5G20G11G14G25G21
  -6135415.11345  -4574193.90544  22902610.8374   22902616.3924
 -18325040.10746 -13990669.56246  20837263.4854   20837267.2474
   1514101.75946   1269131.22646  20732878.6964   20732882.8924
 -16592894.46347 -12884673.25246  20461973.7434   20461978.4314
   2803304.48046   2371668.94945  21907892.8534   21907899.2984
 02  9  9 17 33 59.9970000  0  5G20G11G14G25G21
  -6227848.16245  -4646219.56144  22885020.5094   22885027.2124
 -18367960.36846 -14024113.91046  20829095.8994   20829099.9074
   1574192.29246   1315954.97746  20744313.7744   20744318.1344
 -16651207.03147 -12930111.57246  20450877.1424   20450881.6884
   2861209.22146   2416789.42345  21918911.6264   21918917.6034
 02  9  9 17 34 29.9970000  0  5G20G11G14G25G21
  -6320102.66645  -4718106.07644  22867465.8844   22867471.5674
 -18410215.18646 -14057039.72246  20821055.0714   20821059.3024
   1634629.28146   1363048.68246  20755814.4384   20755818.6344
 -16708906.41747 -12975072.09546  20439897.3764   20439902.0284
   2919503.37745   2462213.30045  21930004.7354   21930011.1344
 02  9  9 17 34 59.9970000  0  5G20G11G14G25G21
  -6412181.84045  -4789855.96444  22849943.2204   22849949.5484
 -18451807.17546 -14089449.04446  20813140.7744   20813144.4074
   1695406.98046   1410407.88846  20767379.9784   20767384.4664
 -16765995.06447 -13019556.72046  20429033.7674   20429038.2084
   2978183.02445   2507937.57545  21941171.0014   21941177.8214
 02  9  9 17 35 29.9970000  0  5G20G11G14G25G21
  -6504092.83345  -4861474.80444  22832453.6574   22832459.7514
 -18492743.16946 -14121347.19846  20805350.7434   20805354.5404
   1756515.48846   1458024.86346  20779008.7744   20779013.0404
 -16822479.85947 -13063570.81146  20418285.0094   20418289.6034
   3037239.65645   2553955.60245  21952409.3134   21952415.4194
 02  9  9 17 35 59.9970000  0  5G20G11G14G25G21
  -6595827.75945  -4932956.46744  22814997.8534   22815004.0404
 -18533014.85646 -14152727.70946  20797686.9934   20797690.8374
   1817960.23546   1505903.83746  20790701.1574   20790705.5634
 -16878352.55247 -13107107.94046  20407652.9314   20407657.4664
   3096680.75045   2600273.20345  21963720.6884   21963727.0174
 02  9  9 17 36 29.9970000  0  5G20G11G14G25G21
  -6687396.56545  -5004308.64944  22797572.3684   22797578.1694
 -18572631.98746 -14183598.16446  20790148.1734   20790152.2984
   1879728.71046   1554035.08046  20802455.8374   20802460.1144
 -16933622.19347 -13150175.16646  20397135.3064   20397139.7594
   3156495.27445   2646881.78945  21975103.3214   21975109.6964
 02  9  9 17 36 59.9970000  0  5G20G11G14G25G21
  -6778791.61145  -5075525.46444  22780178.2594   22780185.0324
 -18611586.37346 -14213952.20246  20782735.4314   20782739.0994
   1941826.04046   1602422.56546  20814272.3764   20814276.6064
 -16988280.56947 -13192766.07546  20386734.4074   20386739.0134
   3216690.17645   2693786.77945  21986557.8844   21986565.1534
 02  9  9 17 37 29.9970000  0  5G20G11G14G25G21
  -6870013.88145  -5146607.66344  22762820.7594   22762827.2394
 -18649878.71746 -14243790.36646  20775448.6884   20775452.4274
   2004248.23446   1651063.19046  20826150.7674   20826155.0564
 -17042328.32847 -13234881.18346  20376449.5094   20376453.9974
   3277262.64045   2740985.97145  21998084.7514   21998092.3374
 02  9  9 17 37 59.9970000  0  5G20G11G14G25G21
  -6961062.67045  -5217554.66944  22745494.7984   22745500.2004
 -18687508.18846 -14273112.00746  20768287.7354   20768291.5324
   2066993.67646   1699955.69746  20838090.8684   20838095.3454
 -17095764.64947 -13276519.84346  20366280.4234   20366284.9464
   3338212.82045   2788479.47045  22009683.3764   22009690.0094
 02  9  9 17 38 29.9970000  0  5G20G11G14G25G21
  -7051935.31445  -5288364.41744  22728200.4234   22728207.1264
 -18724471.83546 -14301914.82746  20761253.9384   20761258.1574
   2130062.12546   1749099.89946  20850092.3374   20850096.9194
 -17148586.34247 -13317679.58346  20356228.8134   20356233.4194
   3399542.49345   2836268.69745  22021353.5404   22021359.6924
 02  9  9 17 38 59.9970000  0  5G20G11G14G25G21
  -7142644.62345  -5359046.88544  22710937.8924   22710944.7004
 -18760782.38446 -14330208.73846  20754344.4464   20754348.2204
   2193438.10346   1798483.73046  20862152.6574   20862156.8644
 -17200805.85847 -13358370.08746  20346292.1734   20346296.8374
   3461237.33845   2884342.46345  22033094.0954   22033101.2474
 02  9  9 17 39 29.9970000  0  5G20G11G14G25G21
  -7233188.66845  -5429600.60444  22693709.2434   22693715.2314
 -18796437.65946 -14357992.04346  20747559.4314   20747563.0054
   2257120.98146   1848106.69846  20874271.1424   20874275.2554
 -17252420.78647 -13398589.48846  20336469.9234   20336474.4234
   3523298.66045   2932701.79445  22044904.0714   22044911.5874
 02  9  9 17 39 59.9970000  0  5G20G11G14G25G21
  -7323554.38445  -5500015.36844  22676513.5404   22676519.2944
 -18831424.17146 -14385254.23946  20740901.8214   20740905.4784
   2321121.19846   1897976.95246  20886450.0244   20886454.5014
 -17303418.06547 -13438327.60046  20326765.1264   20326769.7554
   3585738.65845   2981356.21445  22056786.5094   22056793.8134
 02  9  9 17 40 29.9970000  0  5G20G11G14G25G21
  -7413751.08245  -5570298.43144  22659350.0174   22659356.1464
 -18865751.35546 -14412002.66546  20734369.4704   20734373.2904
   2385426.96646   1948085.28746  20898686.8764   20898691.2714
 -17353806.12647 -13477591.00446  20317176.7124   20317181.3064
   3648546.90445   3030297.57845  22068738.0954   22068745.4934
 02  9  9 17 40 59.9970000  0  5G20G11G14G25G21
  -7503768.44645  -5640441.70944  22642220.9624   22642226.5284
 -18899408.91646 -14438229.31246  20727964.4784   20727968.4624
   2450045.67446   1998437.47346  20910983.6964   20910988.5714
 -17403574.59347 -13516371.60146  20307706.1344   20307710.7864
   3711732.26245   3079532.78045  22080762.5014   22080769.0634
 02  9  9 17 41 29.9970000  0  5G20G11G14G25G21
  -7593605.12845  -5710444.23744  22625125.0174   22625131.6854
 -18932395.25546 -14463932.92546  20721687.1964   20721691.2864
   2514976.09446   2049032.55146  20923339.3924   20923343.9974
 -17452722.00647 -13554668.26346  20298353.7284   20298358.4744
   3775294.81245   3129061.90245  22092857.9544   22092865.1774
 02  9  9 17 41 59.9970000  0  5G20G11G14G25G21
  -7683279.34445  -5780320.15645  22608061.0014   22608067.0014
 -18964728.57546 -14489127.70546  20715534.6654   20715538.6144
   2580197.46746   2099854.34546  20935750.8374   20935755.2784
 -17501266.38547 -13592495.03246  20289115.7904   20289120.5364
   3839215.33645   3178869.95145  22105021.6734   22105028.4814
 02  9  9 17 42 29.9970000  0  5G20G11G14G25G21
  -7772790.01245  -5850068.61144  22591026.1884   22591032.7514
 -18996407.69646 -14513812.72246  20709506.3994   20709510.0094
   2645708.28546   2150901.67746  20948217.0094   20948221.7434
 -17549206.34747 -13629850.81946  20279993.1884   20279997.7594
   3903493.85345   3228956.96945  22117253.8064   22117260.2634
 02  9  9 17 42 59.9970000  0  5G20G11G14G25G21
  -7862120.48145  -5919676.70344  22574027.4544   22574033.6774
 -19027416.02746 -14537975.05046  20703605.6184   20703609.3684
   2711522.26946   2202185.24346  20960741.0714   20960745.6064
 -17596525.43047 -13666722.81546  20270988.7044   20270993.2164
   3968145.68545   3279334.86545  22129556.1574   22129562.2864
 02  9  9 17 43 29.9970000  0  5G20G11G14G25G21
  -7951273.37745  -5989146.38944  22557063.1264   22557069.4544
 -19057756.23246 -14561616.76346  20697831.8994   20697836.0364
   2777634.36746   2253701.09646  20973321.8994   20973326.4464
 -17643225.54447 -13703112.49846  20262102.0094   20262106.4504
   4033167.37845   3330000.94945  22141929.9544   22141936.3174
 02  9  9 17 43 59.9970000  0  5G20G11G14G25G21
  -8040267.02545  -6058492.01445  22540127.1574   22540133.4274
 -19087446.63046 -14584752.12846  20692182.1104   20692186.0244
   2844023.49046   2305432.81046  20985955.2904   20985959.9664
 -17689325.42147 -13739034.45946  20253329.4154   20253334.1144
   4098539.59645   3380940.21845  22154369.5634   22154377.1144
 02  9  9 17 44 29.9970000  0  5G20G11G14G25G21
  -8129091.43645  -6127705.73945  22523224.5094   22523230.1814
 -19116477.45246 -14607373.54546  20686657.6574   20686661.1144
   2910696.91146   2357386.05346  20998642.9234   20998647.7044
 -17734814.75247 -13774480.68246  20244673.2124   20244677.8414
   4164270.80945   3432159.18045  22166878.0564   22166885.5604
 02  9  9 17 44 59.9970000  0  5G20G11G14G25G21
  -8217744.18845  -6196785.72745  22506354.4624   22506360.9314
 -19144846.40046 -14629479.20946  20681259.3454   20681263.0714
   2977654.46746   2409560.69946  21011384.6574   21011388.8884
 -17779690.82147 -13809449.03446  20236133.6264   20236138.1494
   4230362.04245   3483658.68145  22179455.1264   22179462.9584
 02  9  9 17 45 29.9970000  0  5G20G11G14G25G21
  -8306238.50545  -6265742.27245  22489515.0874   22489520.8644
 -19172566.79746 -14651079.51746  20675984.4314   20675988.2634
   3044880.41746   2461944.47646  21024177.1574   21024181.6924
 -17823967.17547 -13843950.07147  20227707.9854   20227712.5794
   4296799.04845   3535427.61945  22192097.7044   22192104.5244
 02  9  9 17 45 59.9970000  0  5G20G11G14G25G21
  -8394572.72645  -6334574.07445  22472706.2904   22472712.5604
 -19199637.24346 -14672173.37046  20670832.9544   20670836.5994
   3112373.70246   2514536.57246  21037020.7514   21037025.6264
 -17867642.07947 -13877982.45547  20219397.1814   20219401.9504
   4363582.38545   3587466.42145  22204806.4624   22204813.8134
 02  9  9 17 46 29.9970000  0  5G20G11G14G25G21
  -8482730.35445  -6403268.27045  22455929.2594   22455935.2354
 -19226041.71646 -14692748.29246  20665808.1814   20665812.0604
   3180147.94046   2567347.57246  21049917.9384   21049922.6614
 -17910699.25347 -13911533.49847  20211203.3994   20211207.8294
   4430726.80645   3639786.55945  22217583.3764   22217590.6814
 02  9  9 17 46 59.9970000  0  5G20G11G14G25G21
  -8570708.73245  -6471822.77645  22439188.2594   22439194.2714
 -19251777.48546 -14712802.14246  20660911.2434   20660914.9464
   3248203.15846   2620377.53446  21062868.4234   21062873.7084
 -17953136.08147 -13944601.14647  20203127.8374   20203132.3024
   4498234.09945   3692389.47045  22230429.7284   22230437.5714
 02  9  9 17 47 29.9970000  0  5G20G11G14G25G21
  -8658519.10045  -6540246.37145  22422477.0874   22422483.4974
 -19276855.84746 -14732343.72946  20656138.6264   20656142.7164
   3316525.48946   2673615.62446  21075869.9784   21075875.2984
 -17994963.61847 -13977194.02347  20195168.6814   20195173.2514
   4566092.17645   3745265.70645  22243343.3844   22243351.6494
 02  9  9 17 47 59.9970000  0  5G20G11G14G25G21
  -8746151.11345  -6608530.99645  22405801.8374   22405807.8844
 -19301266.89846 -14751365.33346  20651493.3134   20651497.3334
   3385122.76046   2727067.96046  21088923.5794   21088928.4074
 -18036171.62947 -14009304.15047  20187326.7514   20187331.3454
   4634309.48345   3798421.86945  22256324.5484   22256332.8964
 02  9  9 17 48 29.9970000  0  5G20G11G14G25G21
  -8833606.60345  -6676678.05645  22389159.4234   22389164.8844
 -19325012.87246 -14769868.69146  20646974.4074   20646978.1464
   3453990.44346   2780730.99946  21102028.9154   21102033.7784
 -18076761.95147 -14040932.95947  20179602.7744   20179607.2634
   4702882.72545   3851855.41345  22269373.9704   22269381.6734
 02  9  9 17 48 59.9970000  0  5G20G11G14G25G21
  -8920890.50345  -6744691.37545  22372550.4704   22372556.3644
 -19348099.14046 -14787857.99946  20642581.7984   20642585.7474
   3523120.76046   2834598.69446  21115184.0324   21115188.7554
 -18116740.08347 -14072084.73847  20171995.1884   20171999.5954
   4771805.61445   3905561.37045  22282488.8684   22282496.5364
 02  9  9 17 49 29.9970000  0  5G20G11G14G25G21
  -9008000.91245  -6812569.56145  22355973.4934   22355979.4814
 -19370523.94546 -14805331.87446  20638314.5794   20638318.6924
   3592513.03346   2888670.50446  21128388.8844   21128393.6884
 -18156103.99647 -14102757.89847  20164504.4934   20164509.0634
   4841078.70345   3959540.21645  22295671.9074   22295679.5874
 02  9  9 17 49 59.9970000  0  5G20G11G14G25G21
  -9094924.60645  -6880302.24045  22339431.8924   22339438.2084
 -19392274.76946 -14822280.57446  20634175.0484   20634179.3844
   3662177.71646   2942954.55846  21141645.6104   21141650.2044
 -18194841.05847 -14132942.61147  20157132.8994   20157137.7164
   4910713.91645   4013801.40041  22308922.6104   22308941.8924
 02  9  9 17 50 29.9970000  0  5G20G11G14G25G21
  -9181688.23345  -6947910.16345  22322921.0714   22322927.3764
 -19413378.54246 -14838725.07846  20630159.4234   20630163.5244
   3732085.50946   2997428.08946  21154948.7984   21154954.0134
 -18232977.78947 -14162659.53047  20149875.7044   20149880.4504
   4980683.31945                  22322238.0404
 02  9  9 17 50 59.9970000  0  5G20G11G14G25G21
  -9268282.06745  -7015385.78645  22306442.2824   22306448.2714
 -19433826.11446 -14854658.24546  20626268.4704   20626272.4544
   3802243.51146   3052096.57746  21168299.2354   21168304.4624
 -18270505.08547 -14191901.56747  20142734.5634   20142739.2284
   5050995.20245        -2.04455  22335617.3924   22335625.2354
 02  9  9 17 51 29.9970000  0  5G20G11G14G25G21
  -9354705.48745  -7082728.62345  22289996.9234   22290003.8994
 -19453617.28546 -14870079.94946  20622501.9464   20622505.7204
   3872649.72346   3106958.47246  21181697.3844   21181702.4464
 -18307422.64647 -14220668.47947  20135709.4234   20135713.9234
   5121648.85545     55052.58345  22349063.5324   22349070.6494
 02  9  9 17 51 59.9970000  0  5G20G11G14G25G21
  -9440954.54345  -7149935.58745  22273583.7124   22273590.1104
 -19472748.74746 -14884987.58846  20618861.2904   20618865.6144
   3943305.26046   3162014.64346  21195142.8604   21195147.6534
 -18343726.88047 -14248957.47147  20128801.0714   20128805.8764
   5192646.47745    110375.24245  22362574.0094   22362582.5094
 02  9  9 17 52 29.9970000  0  5G20G11G14G25G21
  -9527027.44545  -7217005.28545  22257205.5564   22257212.1184
 -19491219.07846 -14899380.06746  20615346.6424   20615350.9074
   4014209.59946   3217264.68546  21208635.4784   21208640.8104
 -18379415.95347 -14276767.12447  20122009.4934   20122014.2984
   5263989.04945    165966.68145  22376150.0174   22376158.5054
 02  9  9 17 52 59.9970000  0  5G20G11G14G25G21
  -9612918.52545  -7283933.31245  22240859.9464   22240865.3964
 -19509023.41046 -14913253.57946  20611958.9464   20611962.7904
   4085365.59546   3272710.82146  21222176.0404   21222181.1034
 -18414485.19847 -14304093.78147  20115336.0714   20115340.9814
   5335680.48145    221829.95845  22389792.4934   22389800.3494
 02  9  9 17 53 29.9970000  0  5G20G11G14G25G21
  -9698634.19045  -7350724.64645  22224549.4784   22224555.7594
 -19526168.87546 -14926613.69946  20608696.1424   20608699.8214
   4156763.83746   3328345.72546  21235762.7514   21235767.7554
 -18448941.11047 -14330942.52147  20108779.1344   20108783.6924
   5407712.39345    277958.53145  22403499.4234   22403507.1034
 02  9  9 17 53 59.9970000  0  5G20G11G14G25G21
  -9784172.30945  -7417377.62845  22208271.7284   22208277.4114
 -19542653.65046 -14939458.98546  20605559.2744   20605562.9544
   4228404.00546   3384169.14446  21249395.3764   21249400.6144
 -18482781.72547 -14357311.80447  20102339.3214   20102344.2784
   5480085.76345    334353.17845  22417272.3294   22417281.1464
 02  9  9 17 54 29.9970000  0  5G20G11G14G25G21
  -9869525.04545  -7483886.14745  22192030.1494   22192036.1384
 -19558470.96046 -14951784.16946  20602549.4384   20602553.2124
   4300291.18946   3440185.04446  21263075.1424   21263080.2864
 -18515999.95047 -14383196.11247  20096018.1734   20096022.8604
   5552807.18545    391019.03745  22431110.4784   22431119.1774
 02  9  9 17 54 59.9970000  0  5G20G11G14G25G21
  -9954682.90345  -7550242.84345  22175825.1424   22175831.3644
 -19573611.91646 -14963582.32446  20599668.0324   20599672.0054
   4372431.99846   3496398.57746  21276803.2284   21276808.2904
 -18548586.99247 -14408588.58647  20089817.1814   20089821.9034
   5625884.13145    447961.93745  22445017.2124   22445026.8604
 02  9  9 17 55 29.9970000  0  5G20G11G14G25G21
 -10039663.38645  -7616461.29745  22159653.3454   22159659.4504
 -19588094.66046 -14974867.59046  20596912.3064   20596916.1144
   4444806.48846   3552794.19846  21290575.6964   21290581.2634
 -18580560.75747 -14433503.17547  20083732.7824   20083737.3294
   5699297.69045    505167.13145  22458987.1964   22458994.9114
 02  9  9 17 55 59.9970000  0  5G20G11G14G25G21
 -10124444.40945  -7682524.34445  22143519.8294   22143526.0524
 -19601898.07746 -14985623.51646  20594285.1654   20594289.0094
   4517433.86346   3609386.87046  21304396.3064   21304401.7204
 -18611899.73347 -14457923.12447  20077768.9314   20077773.4194
   5773067.84245    562650.18545  22473025.3604   22473034.0954
 02  9  9 17 56 29.9970000  0  6G20G11G30G14G25G21
 -10209044.95045  -7748446.77445  22127421.8064   22127427.6654
 -19615041.89846 -14995865.46046  20591784.3684   20591788.4114
        -0.00154                  23707048.0714
   4590292.67146   3666159.87546  21318261.0324   21318266.0954
 -18642623.52947 -14481863.71747  20071922.5174   20071927.2984
   5847174.81145    620395.71045  22487127.3374   22487135.6964
 02  9  9 17 56 59.9970000  0  6G20G11G30G14G25G21
 -10293448.15845  -7814215.40145  22111360.2204   22111366.0914
 -19627509.78646 -15005580.71046  20589411.9624   20589415.7944
    -29353.81444    -14434.81952  23701462.0794   23701471.3884
   4663397.34146   3723124.47346  21332172.2824   21332177.5914
 -18672715.74347 -14505312.17247  20066196.2674   20066200.8844
   5921633.80445    678415.52645  22501296.7674   22501305.7474
 02  9  9 17 57 29.9970000  0  6G20G11G30G14G25G21
 -10377656.04645  -7879831.86045  22095335.4544   22095341.2084
 -19639304.87346 -15014771.70246  20587167.0094   20587170.9584
    -58141.68344    -36866.79442  23695983.8214   23695993.9274
   4736742.83646   3780276.71746  21346129.5874   21346135.0714
 -18702178.87747 -14528270.43347  20060589.5094   20060594.1384
   5996441.45345    736706.99445  22515532.9704   22515542.4894
 02  9  9 17 57 59.9970000  0  7G20G11G30G14G 1G25G21
 -10461676.31445  -7945302.12545  22079346.2434   22079352.0214
 -19650435.71746 -15023445.09446  20585048.8064   20585052.9784
    -86370.82444    -58863.42643  23690612.6344   23690619.6814
   4810318.60846   3837608.39546  21360130.7594   21360136.0914
    -47663.93551                  23771365.3454
 -18731021.44847 -14550745.13847  20055100.8994   20055105.5874
   6071587.69345    795262.30745  22529833.0484   22529841.8764
 02  9  9 17 58 29.9970000  0  7G20G11G30G14G 1G25G21
 -10545516.00545  -8010631.65445  22063392.8994   22063399.0174
 -19660910.63346 -15031607.38146  20583055.8374   20583059.8924
   -114047.91244    -80429.84943  23685345.0094   23685356.6614
   4884114.96546   3895111.96746  21374173.7354   21374178.9974
   -131602.42642                  23755393.7904
 -18759251.53947 -14572742.58347  20049728.9384   20049733.6144
   6147063.96945    854074.80945  22544195.2284   22544204.1614
 02  9  9 17 58 59.9970000  0  7G20G11G30G14G 1G25G21
 -10629178.51845  -8075823.15345  22047472.1964   22047477.7984
 -19670733.99646 -15039261.95846  20581186.3134   20581190.3924
   -141175.77144   -101568.26442  23680182.7434   23680191.8064
   4958125.74846   3952782.62346  21388257.6034   21388262.9584
   -215319.58642     -2169.70052  23739462.6814   23739479.1854
 -18786873.49447 -14594266.16447  20044472.6264   20044477.0564
   6222865.23545    913140.51845  22558620.2594   22558628.4544
 02  9  9 17 59 29.9970000  0  6G20G11G30G14G25G21
 -10712653.95145  -8140868.84645  22031587.0634   22031593.0994
 -19679896.30446 -15046401.42846  20579442.8214   20579446.9114
   -167743.87644   -122270.52943  23675126.7984   23675137.2784
   5032358.53146   4010626.27546  21402383.6964   21402389.3214
 -18813877.70347 -14615308.38347  20039333.9854   20039338.5214
   6298999.62645    972465.85044  22573108.0634   22573116.4464
 02  9  9 17 59 59.9970000  0  7G20G11G30G14G 1G25G21
 -10795948.19345  -8205773.38345  22015736.7204   22015742.5674
 -19688404.67146 -15053031.33646  20577824.1964   20577827.6884
   -193757.74944   -142540.99742  23670176.5244   23670185.7284
   5106804.69346   4068636.17746  21416550.4624   21416555.8644
    -63813.10352                  23707731.5874
 -18840270.73847 -14635874.36247  20034311.3924   20034315.9154
   6375459.84045   1032045.07644  22587658.1344   22587666.1654
 02  9  9 18  0 29.9970000  0  7G20G11G30G14G 1G25G21
 -10879058.74045  -8270534.77045  21999921.0094   21999926.9974
 -19696258.08746 -15059150.89346  20576329.3684   20576333.2354
   -219214.71543   -162377.40942  23665331.7434   23665342.8104
   5181463.67546   4126811.92546  21430757.7124   21430763.4314
   -146851.19642                  23691929.2904
 -18866051.37247 -14655963.15047  20029405.5404   20029410.1224
   6452246.73945   1091878.79444  22602270.1424   22602277.9624
 02  9  9 18  0 59.9970000  0  7G20G11G30G14G 1G25G21
 -10961992.89745  -8335158.72145  21984139.0484   21984145.0014
 -19703464.97846 -15064766.67046  20574957.8684   20574961.8414
   -244121.49543   -181785.14143  23660592.4854   23660601.8994
   5256325.71646   4185145.90346  21445003.4154   21445008.6424
   -229672.48044    -15043.82253  23676170.7984   23676180.9034
 -18891227.62247 -14675580.98647  20024614.5634   20024619.0874
   6529351.15645   1151959.95844  22616942.7124   22616951.4704
 02  9  9 18  1 29.9970000  0  7G20G11G30G14G 1G25G21
 -11044750.85845  -8399645.35545  21968391.0014   21968396.7204
 -19710026.02446 -15069879.17946  20573709.3924   20573713.2944
   -268477.82443   -200763.99742  23655958.8994   23655976.5994
   5331387.97646   4243635.88246  21459287.2204   21459292.8214
   -312278.00944    -79411.62844  23660449.8764   23660460.8134
 -18915800.69147 -14694728.81147  20019938.4074   20019942.9424
   6606771.26945   1212287.13644  22631675.3684   22631685.4384
 02  9  9 18  1 59.9970000  0  7G20G11G30G14G 1G25G21
 -11127327.59145  -8463990.77345  21952676.8454   21952682.5874
 -19715937.90446 -15074485.84846  20572584.2354   20572588.0094
   -292278.63743   -219309.97642  23651428.0954   23651439.5134
   5406652.53346   4302283.51045  21473609.6884   21473615.6304
   -394664.03343   -143608.34944  23644772.5174   23644782.5054
 -18939766.41447 -14713403.38747  20015377.8134   20015382.2434
   6684509.91545   1272862.50144  22646469.0404   22646477.1774
 02  9  9 18  2 29.9970000  0  7G20G11G30G14G 1G25G21
 -11209713.36345  -8528187.41145  21936999.2674   21937005.1384
 -19721191.58446 -15078579.64146  20571584.9154   20571588.6184
   -315513.43443   -237414.86142  23647006.6574   23647024.9784
   5482126.78046   4361094.52745  21487971.6734   21487977.5674
   -476821.37843   -207626.93143  23629137.5484   23629148.2044
 -18963115.42547 -14731597.40446  20010934.8454   20010939.3454
   6762575.51445   1333692.63744  22661324.0324   22661332.4504
 02  9  9 18  2 59.9970000  0  7G20G11G30G14G 1G25G21
 -11291915.87545  -8592241.23345  21921356.6964   21921362.6734
 -19725796.53046 -15082167.92446  20570708.6034   20570712.4354
   -338189.93443                  23642691.6344
   5557799.99346   4420060.57445  21502372.1494   21502377.9854
   -558759.26343   -271474.44743  23613544.9384   23613558.6184
 -18985856.85947 -14749317.98447  20006607.2124   20006611.8644
   6840957.99644   1394769.70144  22676239.7984   22676247.7714
 02  9  9 18  3 29.9970000  0  7G20G11G30G14G 1G25G21
 -11373923.16745  -8656142.93945  21905751.0714   21905756.8494
 -19729741.80746 -15085242.17246  20569957.3064   20569961.4074
   -360295.93243                  23638484.7434
   5633681.45846   4479188.89945  21516812.2124   21516818.0484
   -640466.92243   -335142.60643  23597997.1034   23598007.1034
 -19007980.02447 -14766556.79346  20002397.3294   20002401.7004
   6919667.71145   1456101.72443  22691217.3534   22691228.0214
 02  9  9 18  3 59.9970000  0  7G20G11G30G14G 1G25G21
 -11455741.59645  -8719897.49145  21890181.5634   21890187.7864
 -19733034.84946 -15087808.18846  20569331.2044   20569335.1774
   -381837.51343                  23634384.7594
   5709762.33446   4538472.61945  21531289.8214   21531295.6224
   -721951.49044   -398636.96643  23582491.7284   23582503.6964
 -19029492.20547 -14783319.52047  19998303.6884   19998308.3534
   6998696.59045   1517682.43343  22706256.6964   22706264.9034
 02  9  9 18  4 29.9970000  0  7G20G11G30G14G 1G25G21
 -11537364.76345  -8783499.89345  21874649.0324   21874654.8564
 -19735670.85446 -15089862.22446  20568829.5564   20568833.2714
   -402807.95743                  23630393.9784
   5786046.50046   4597914.74745  21545806.5484   21545812.1734
   -803207.51544   -461953.22043  23567027.7284   23567038.4664
 -19050387.78247 -14799601.77447  19994327.5324   19994331.9034
   7078049.13545   1579515.38243  22721357.9314   22721366.8414
 02  9  9 18  4 59.9970000  0  7G20G11G30G14G 1G25G21
 -11618790.63645  -8846948.55445  21859154.3454   21859160.2634
 -19737649.22246 -15091403.82246  20568452.8924   20568456.5604
   -423205.41443    -14285.31052  23626513.2744   23626522.5014
   5862532.71346   4657514.30245  21560361.0484   21560366.5444
   -884234.31744   -525090.87243  23551609.1034   23551619.9114
 -19070665.91247 -14815402.89447  19990468.6734   19990473.0564
   7157725.27445   1641600.50944  22736519.4544   22736529.5364
 02  9  9 18  5 29.9970000  0  7G20G11G30G14G 1G25G21
 -11700013.94246  -8910239.37145  21843698.2744   21843704.3684
 -19738965.97146 -15092429.86446  20568202.4854   20568206.4464
   -443024.34142    -29728.67741  23622741.9704   23622755.7434
   5939223.82846   4717273.53345  21574955.0564   21574961.1034
   -965027.75243   -588046.62343  23536234.3534   23536247.6924
 -19090322.65947 -14830719.82847  19986727.8454   19986732.4974
   7237728.59545   1703940.54344  22751744.0094   22751752.8724
 02  9  9 18  5 59.9970000  0  7G20G11G30G14G 1G25G21
 -11781033.85946  -8973371.71045  21828280.2594   21828286.4354
 -19739621.38446 -15092940.58046  20568077.7594   20568082.0134
   -462263.37243    -44720.07041  23619081.0794   23619099.0714
   6016118.14946   4777191.09645  21589588.2284   21589593.3724
  -1045587.94943   -650820.71542  23520902.8454   23520913.5484
 -19109358.23347 -14845552.72947  19983105.7044   19983110.1224
   7318058.27945   1766534.87244  22767030.6424   22767039.9274
 02  9  9 18  6 29.9970000  0  7G20G11G30G14G 1G25G21
 -11861830.17646  -9036329.81945  21812905.3994   21812911.3414
 -19739596.87546 -15092921.48946  20568082.6964   20568086.4354
   -480902.71242    -59244.09842  23615534.0174   23615541.5094
   6093232.96346   4837280.48345  21604262.5484   21604267.8104
  -1125896.03743   -713398.28342  23505620.7674   23505633.3214
 -19127753.56047 -14859886.74047  19979605.2204   19979609.6614
   7398732.57245   1829397.73244  22782382.0324   22782392.4664
 02  9  9 18  6 59.9970000  0  7G20G11G30G14G 1G25G21
 -11942413.26646  -9099121.79545  21797570.7594   21797576.5604
 -19738904.49246 -15092381.98046  20568214.2984   20568218.5054
   -498952.58042    -73308.85242  23612098.5634   23612108.9504
   6170555.14046   4897531.43445  21618976.4314   21618982.0794
  -1205963.42743   -775788.32043  23490384.6104   23490396.6964
 -19145520.33047 -14873730.96447  19976224.2984   19976228.7514
   7479738.99845   1892519.40244  22797797.0484   22797806.6494
 02  9  9 18  7 29.9970000  0  7G20G11G30G14G 1G25G21
 -12022776.81646  -9161742.67645  21782277.9154   21782283.7744
 -19737539.18846 -15091318.11546  20568473.7594   20568478.1424
   -516406.56042    -86909.34842  23608777.0174   23608793.1924
   6248088.16046   4957946.68645  21633730.7044   21633736.2824
  -1285785.02343   -837986.81742  23475194.9384   23475202.5714
 -19162653.35247 -14887081.35947  19972963.8994   19972968.3174
   7561082.19645   1955903.51144  22813276.2354   22813285.9074
 02  9  9 18  7 59.9970000  0  7G20G11G30G14G 1G25G21
 -12102927.87546  -9224198.00045  21767025.9234   21767032.0174
 -19735509.83546 -15089736.80946  20568859.9934   20568864.1304
   -533271.73043   -100050.96442  23605568.9384   23605580.2864
   6325822.38646   5018518.72545  21648523.2044   21648529.1224
  -1365368.83343   -900000.10442  23460052.8214   23460063.7714
 -19179161.14247 -14899944.56147  19969822.5324   19969826.8684
   7642752.68245   2019542.61844  22828818.6574   22828827.5794
 02  9  9 18  8 29.9970000  0  7G20G11G30G14G 1G25G21
 -12182876.28846  -9286495.39145  21751812.6424   21751818.7594
 -19732827.69446 -15087646.84046  20569370.6654   20569374.4974
   -549557.82042   -112741.32742  23602467.9154   23602479.6034
   6403745.60946   5079238.03845  21663350.8684   21663356.6574
  -1444725.78943   -961836.51042  23444951.1884   23444962.7004
 -19195054.21747 -14912328.76547  19966798.5324   19966802.8564
   7724738.69645   2083427.62244  22844420.0324   22844430.0794
 02  9  9 18  8 59.9970000  0  7G20G11G30G14G 1G25G21
 -12262612.21546  -9348627.22845  21736639.0714   21736644.9314
 -19729484.73246 -15085041.95146  20570007.0714   20570010.8214
   -565255.16842   -124972.95242  23599481.1814   23599490.4314
   6481864.56946   5140109.84745  21678216.8294   21678222.6534
  -1523847.55143  -1023489.68842  23429894.5794   23429905.9744
 -19210324.46847 -14924227.65047  19963892.4154   19963896.7744
   7807048.24645   2147564.72844  22860083.8134   22860092.8294
 02  9  9 18  9 29.9970000  0  7G20G11G30G14G 1G25G21
 -12342145.10446  -9410600.83045  21721504.4234   21721510.4814
 -19725491.37746 -15081930.26046  20570766.6344   20570770.6064
   -580373.39842   -136753.38042  23596604.7204   23596612.8104
   6560167.45646   5201124.99945  21693117.6184   21693123.3724
  -1602744.39542  -1084967.61742  23414880.5244   23414894.0754
 -19224982.65647 -14935649.60147  19961103.1344   19961107.5284
   7889669.82645   2211944.93844  22875805.1034   22875815.1144
 02  9  9 18  9 59.9970000  0  7G20G11G30G14G 1G25G21
 -12421469.76746  -9472412.19045  21706409.5324   21706415.5564
 -19720844.89246 -15078309.63346  20571650.8684   20571655.0994
   -594907.37442   -148078.44142  23593838.3994   23593850.0754
   6638656.53446   5262285.23545  21708053.5634   21708059.1534
  -1681412.55642  -1146267.28542  23399908.8134   23399919.3884
 -19239024.95147 -14946591.63447  19958431.0794   19958435.4504
   7972606.64445   2276570.81044  22891588.5244   22891599.1694
 02  9  9 18 10 29.9970000  0  7G20G11G30G14G 1G25G21
 -12500589.99246  -9534064.24045  21691352.9624   21691358.5404
 -19715550.51546 -15074184.15846  20572658.3534   20572662.2084
   -608861.13843   -158951.43642  23591183.1494   23591191.9544
   6717325.27946   5323585.46145  21723023.8294   21723029.5484
  -1759857.26743  -1207392.91243  23384983.4074   23384994.0874
 -19252457.01247 -14957058.16147  19955874.9624   19955879.3454
   8055852.79845   2341437.71744  22907429.3764   22907438.6144
 02  9  9 18 10 59.9970000  0  7G20G11G30G14G 1G25G21
 -12579492.09146  -9595546.31945  21676338.2744   21676344.1814
 -19709596.03546 -15069544.31846  20573791.6884   20573795.1104
   -622221.01343   -169361.67542  23588641.4314   23588648.9234
   6796184.71646   5385034.28445  21738030.4624   21738036.5794
  -1838065.92443  -1268334.58142  23370100.9234   23370112.6344
 -19265266.43847 -14967039.52047  19953437.0174   19953441.3994
   8139420.37844   2406555.11644  22923331.4314   22923342.5674
 02  9  9 18 11 29.9970000  0  7G20G11G30G14G 1G25G21
 -12658187.57846  -9656867.41045  21661363.2514   21661369.3924
 -19702994.80746 -15064400.52946  20575047.9624   20575051.8294
   -634998.98744   -179318.42843  23586209.9544   23586216.4234
   6875220.77046   5446620.72845  21753070.0094   21753076.0444
  -1916051.40943  -1329102.31942  23355258.6734   23355268.9074
 -19277466.29347 -14976545.89047  19951115.7594   19951119.9664
   8223295.21145   2471911.83544  22939293.4854   22939302.9704
 02  9  9 18 11 59.9970000  0  7G20G11G30G14G 1G25G21
 -12736672.42946  -9718024.34545  21646427.8994   21646434.0054
 -19695744.73446 -15058751.14046  20576427.3214   20576431.3994
   -647190.99344   -188818.60242  23583890.4544   23583898.4274
   6954434.47846   5508345.60745  21768144.1494   21768149.8454
  -1993810.80043  -1389693.86442  23340462.6034   23340473.1304
 -19289053.73047 -14985575.04247  19948910.7824   19948914.9074
   8307479.36244   2537509.66943  22955312.7044   22955322.3064
 02  9  9 18 12 29.9970000  0  7G20G11G30G14G 1G25G21
 -12814941.31146  -9779013.01145  21631533.8684   21631539.9854
 -19687842.20446 -15052593.34146  20577930.9154   20577935.0874
   -658792.02143   -197858.29642  23581681.7124   23581689.4504
   7033828.73946   5570211.17745  21783252.3214   21783258.0524
  -2071340.07843  -1450106.14243  23325707.7904   23325718.6694
 -19300024.72147 -14994123.85447  19946823.1884   19946827.4784
   8391975.89544   2603350.87243  22971392.7354   22971404.6814
 02  9  9 18 12 59.9970000  0  7G20G11G30G14G 1G25G21
 -12892998.24546  -9839836.51345  21616680.1344   21616686.0404
 -19679293.43246 -15045931.98346  20579558.1814   20579562.0834
   -669806.44143   -206440.95243  23579586.3764   23579594.3844
   7113396.75146   5632212.13945  21798393.6574   21798399.5284
  -2148644.54243  -1510343.21743  23310997.8294   23311007.8534
 -19310385.20447 -15002196.95047  19944851.4074   19944855.6964
   8476778.58644   2669430.63343  22987529.9854   22987539.3414
 02  9  9 18 13 29.9970000  0  7G20G11G30G14G 1G25G21
 -12970843.09346  -9900494.76245  21601866.6104   21601872.2714
 -19670099.93846 -15038768.24346  20581307.6344   20581311.3964
   -680234.52042   -214566.66042  23577600.6424   23577608.0874
   7193135.61946   5694346.25145  21813567.8684   21813573.8804
  -2225725.42543  -1570406.07943  23296330.0244   23296340.2714
 -19320136.63947 -15009795.45047  19942995.6884   19942999.8844
   8561885.68843   2735747.62142  23003723.6034   23003734.6224
 02  9  9 18 13 59.9970000  0  7G20G11G30G14G 1G25G21
 -13048476.97546  -9960988.61445  21587093.3994   21587099.1884
 -19660264.60846 -15031104.37046  20583178.8764   20583183.0954
   -690077.62043   -222236.63342  23575729.0404   23575738.5834
   7273041.73346   5756610.66445  21828773.6344   21828779.5874
  -2302585.15644  -1630296.62243  23281704.5954   23281715.8844
 -19329281.55547 -15016921.35047  19941255.5324   19941259.6694
   8647294.14444   2802299.42343  23019978.2984   23019988.4154
 02  9  9 18 14 29.9970000  0  7G20G11G30G14G 1G25G21
 -13125896.71646 -10021315.60945  21572360.6734   21572366.4854
 -19649786.39346 -15022939.54346  20585172.8454   20585177.0994
   -699332.86842   -229448.48942  23573966.7354   23573973.0524
   7353115.76946   5819005.92945  21844011.3604   21844017.2904
  -2379221.75444  -1690013.28043  23267120.1884   23267130.5054
 -19337818.76547 -15023573.71147  19939630.9704   19939635.2004
   8733004.32743   2869086.29743  23036289.7354   23036301.2474
 02  9  9 18 14 59.9970000  0  7G20G11G30G14G 1G25G21
 -13203097.92946 -10081472.32445  21557670.0014   21557675.6144
 -19638662.98146 -15014271.97546  20587289.6344   20587293.8174
   -707996.44242   -236199.36242  23572318.3064   23572330.3924
   7433359.13046   5881533.14745  21859280.9384   21859286.4934
  -2455632.38744  -1749553.89643  23252579.0794   23252588.7514
 -19345745.34947 -15029750.26847  19938122.5954   19938126.9194
   8819018.70943   2936110.22342  23052656.3454   23052667.5874
 02  9  9 18 15 29.9970000  0  7G20G11G30G14G 1G25G21
 -13280082.05746 -10141459.89045  21543020.0244   21543025.8374
 -19626897.53646 -15005104.12446  20589528.7284   20589532.7124
   -716070.12642   -242490.51742  23570781.2354   23570791.2944
   7513767.86646   5944189.21645  21874582.4784   21874588.1144
  -2531819.83344  -1808920.57943  23238081.4154   23238091.9894
 -19353064.58947 -15035453.56147  19936730.0404   19936734.3174
   8905333.98944   3003368.70442  23069083.0874   23069089.1464
 02  9  9 18 15 59.9970000  0  7G20G11G30G14G 1G25G21
 -13356846.46846 -10201276.23645  21528412.2824   21528418.1534
 -19614489.61946 -14995435.64446  20591890.0564   20591894.1814
   -723551.91142   -248320.50342  23569357.5244   23569364.3334
   7594341.84446   6006974.04745  21889915.0714   21889921.1534
  -2607782.75044  -1868112.30644  23223626.2984   23223637.1064
 -19359775.28547 -15040682.66447  19935452.9854   19935457.0874
   8991950.06943   3070861.47442  23085563.5174   23085574.2674
 02  9  9 18 16 29.9970000  0  7G20G11G30G14G 1G25G21
 -13433388.46146 -10260919.27345  21513846.9074   21513853.1654
 -19601438.90646 -14985266.28246  20594373.1264   20594377.4384
   -730439.50642   -253687.40342  23568047.5404   23568055.8414
   7675081.04146   6069887.61845  21905279.4314   21905285.3374
  -2683520.02544  -1927128.18844  23209213.5634   23209223.9384
 -19365876.78947 -15045437.07647  19934291.6574   19934295.9584
   9078867.61844   3138589.14443  23102104.8534   23102116.4934
 02  9  9 18 16 59.9970000  0  7G20G11G30G14G 1G25G21
 -13509710.19146 -10320390.67845  21499323.2044   21499329.1344
 -19587749.26346 -14974599.06046  20596978.2514   20596982.4114
   -736735.60842   -258593.44842  23566849.2904   23566858.6924
   7755980.68546   6132926.21045  21920674.2284   21920680.2634
  -2759034.97445  -1985970.86444  23194842.8924   23194852.6694
 -19371373.01947 -15049719.84847  19933245.8994   19933250.2714
   9166082.36244   3206548.54642  23118702.1344   23118710.5874
 02  9  9 18 17 29.9970000  0  7G20G11G30G14G 1G25G21
 -13585823.52546 -10379699.71145  21484839.2744   21484844.9704
 -19573434.92846 -14963445.06946  20599702.6574   20599706.4424
   -742452.59242   -263048.22442  23565761.0094   23565771.3844
   7837026.00746   6196078.32345  21936096.4074   21936102.5014
  -2834340.91045  -2044650.65844  23180513.1734   23180522.4934
 -19376277.83747 -15053541.77647  19932312.4934   19932316.6884
   9253580.18044   3274728.34642  23135351.8294   23135364.8884
 02  9  9 18 17 59.9970000  0  7G20G11G30G14G 1G25G21
 -13661732.02046 -10438849.11945  21470394.0404   21470399.7594
 -19558501.28646 -14951808.50246  20602544.2284   20602548.3884
   -747594.58943   -267054.95142  23564783.4074   23564790.9584
   7918210.86546   6259339.16145  21951545.8294   21951551.8064
  -2909442.75145  -2103171.42045  23166221.3764   23166230.8254
 -19380596.23547 -15056906.75247  19931490.7284   19931495.0404
   9341354.58345   3343123.75943  23152055.6424   23152066.6964
 02  9  9 18 18 29.9970000  0  7G20G11G30G14G 1G25G21
 -13737431.15946 -10497835.38945  21455989.1184   21455995.0604
 -19542946.25546 -14939687.73546  20605504.1814   20605508.5754
   -752157.88743   -270610.73742  23563914.8134   23563922.5284
   7999537.04546   6322710.12245  21967021.9934   21967028.0404
  -2984337.51144  -2161530.78744  23151969.3294   23151980.5604
 -19384325.73847 -15059812.85147  19930781.1494   19930785.4154
   9429408.04444   3411736.57943  23168811.4384   23168821.8494
 02  9  9 18 18 59.9970000  0  7G20G11G30G14G 1G25G21
 -13812912.22946 -10556651.72945  21441625.4854   21441631.2044
 -19526763.69046 -14927077.97746  20608583.7354   20608587.9544
   -756134.42442   -273709.38942  23563157.9704   23563165.9784
   8081010.58046   6386195.89845  21982525.9464   21982531.7244
  -3059017.94144  -2219723.16444  23137756.8924   23137766.8214
 -19387459.40247 -15062254.65747  19930184.7204   19930188.9504
   9517746.99945   3480571.86943  23185623.1264   23185631.0524
 02  9  9 18 19 29.9970000  0  7G20G11G30G14G 1G25G21
 -13888169.53646 -10615293.72445  21427304.2594   21427310.2004
 -19509949.58446 -14913976.11746  20611783.6264   20611787.5874
   -759518.94643   -276346.62142  23562514.4074   23562525.2744
   8162634.59846   6449798.93845  21998058.2044   21998064.3684
  -3133479.59645  -2277745.05644  23123588.8064   23123597.5874
 -19389993.53547 -15064229.31047  19929702.4464   19929706.8534
   9606375.39545   3549632.67643  23202487.7984   23202497.5634
 02  9  9 18 19 59.9970000  0  7G20G11G30G14G 1G25G21
 -13963200.95546 -10673759.70845  21413026.4854   21413032.1574
 -19492504.45046 -14900382.55046  20615103.2204   20615107.2634
   -762310.22042   -278521.63943  23561982.9464   23561989.8294
   8244408.39946   6513518.68745  22013619.5014   22013625.0794
  -3207722.10544  -2335596.19444  23109461.0014   23109470.7314
 -19391928.15447 -15065736.80847  19929334.4234   19929338.9354
   9695292.70945   3618918.59443  23219408.3214   23219417.7714
 02  9  9 18 20 29.9970000  0  7G20G11G30G14G 1G25G21
 -14038010.39846 -10732052.72845  21398790.4854   21398796.3104
 -19474434.67446 -14886302.25046  20618541.7984   20618546.1814
   -764512.76542   -280237.93042  23561564.4784   23561573.7284
   8326325.48846   6577350.08645  22029207.6264   22029213.2864
  -3281750.78544  -2393280.72644  23095373.9234   23095384.1224
 -19393268.88547 -15066781.53147  19929079.2594   19929083.4424
   9784492.55944   3688424.70443  23236382.1424   23236393.9704
 02  9  9 18 20 59.9970000  0  7G20G11G30G14G 1G25G21
 -14112592.50846 -10790168.59646  21384598.2354   21384604.1424
 -19455736.74246 -14871732.47146  20622099.7824   20622104.0244
   -766122.12443   -281491.92842  23561257.1104   23561265.2004
   8408388.33446   6641295.04845  22044823.3844   22044829.1734
  -3355561.72544  -2450795.53943  23081327.5564   23081337.5794
 -19394012.56947 -15067361.02647  19928937.8134   19928942.2084
   9873977.50844   3758152.96643  23253411.4934   23253422.6184
 02  9  9 18 21 29.9970000  0  7G20G11G30G14G 1G25G21
 -14186949.48446 -10848109.04845  21370448.3374   21370454.1614
 -19436415.57246 -14856677.05646  20625776.8214   20625780.8994
   -767141.35043   -282286.09042  23561064.2904   23561074.7354
   8490591.87846   6705349.66245  22060466.7354   22060472.7354
  -3429158.60443  -2508143.59843  23067321.4234   23067331.3764
 -19394163.36147 -15067478.52547  19928908.8994   19928913.3994
   9963743.19843   3828099.95343  23270491.9544   23270504.1464
 02  9  9 18 21 59.9970000  0  7G20G11G30G14G 1G25G21
 -14261080.60146 -10905873.50546  21356342.0404   21356347.7944
 -19416472.75246 -14841137.24446  20629571.9074   20629575.6464
   -767570.40843   -282620.38342  23560981.1734   23560990.4704
   8572934.54946   6769512.69545  22076135.9784   22076141.9424
  -3502542.14243  -2565325.41444  23053358.1884   23053367.6384
 -19393722.90147 -15067135.30947  19928992.8764   19928997.1884
  10053787.91843   3898264.38642  23287628.1574   23287641.9314
 02  9  9 18 22 29.9970000  0  7G20G11G30G14G 1G25G21
 -14334977.46646 -10963455.42046  21342279.6734   21342285.4974
 -19395902.65946 -14825108.64846  20633485.7984   20633489.9934
   -767401.99942   -282489.18143  23561012.6734   23561022.8024
   8655421.69046   6833788.26845  22091832.7984   22091838.7164
  -3575705.67043  -2622335.79843  23039433.8374   23039443.4384
 -19392684.30647 -15066326.01147  19929190.6264   19929194.8334
  10144117.62443   3968650.89343  23304817.9464   23304829.6104
 02  9  9 18 22 59.9970000  0  7G20G11G30G14G 1G25G21
 -14408650.28846 -11020862.76146  21328260.1264   21328265.9154
 -19374717.90546 -14808601.09046  20637517.2204   20637521.5214
   -766647.10943   -281900.95643  23561157.9934   23561166.9154
   8738040.27546   6898166.27745  22107554.8454   22107560.7394
  -3648661.02144  -2679183.98143  23025551.6344   23025559.7824
 -19391060.35147 -15065060.59447  19929499.6424   19929503.7784
  10234719.72042   4039249.57042  23322058.0094   23322068.8764
 02  9  9 18 23 29.9970000  0  7G20G11G30G14G 1G25G21
 -14482097.52746 -11078094.33746  21314283.4854   21314288.9354
 -19352919.17046 -14791615.10846  20641665.7984   20641669.9584
   -765305.05142   -280855.20342  23561411.8924   23561420.5324
   8820789.62846   6962646.18145  22123301.7204   22123307.5444
  -3721407.86844  -2735869.66743  23011708.7674   23011717.4784
 -19388851.50647 -15063339.41547  19929919.8134   19929924.0564
  10325593.73542   4110060.15942  23339352.6104   23339368.2824
 02  9  9 18 23 59.9970000  0  7G20G11G30G14G 1G25G21
 -14555325.47146 -11135155.01946  21300348.5404   21300354.3884
 -19330515.30646 -14774157.60346  20645928.8214   20645932.8764
   -763383.04843   -279357.52042  23561777.8534   23561785.8374
   8903660.64146   7027220.88045  22139071.7044   22139077.5524
  -3793954.20644  -2792399.12843  22997902.9154   22997911.4974
 -19386066.06747 -15061168.93747  19930449.9544   19930454.4784
  10416730.48342   4181075.50542  23356694.7204   23356706.0564
 02  9  9 18 24 29.9970000  0  7G20G11G30G14G 1G25G21
 -14628320.82146 -11192034.47846  21286458.2124   21286463.5914
 -19307495.91746 -14756220.46646  20650309.4384   20650313.9744
   -760868.92143   -277398.47842  23562256.7674   23562263.0834
   8986663.74945   7091898.51645  22154866.2744   22154871.8294
  -3866288.43244  -2848763.29843  22984138.8764   22984148.0094
 -19382693.15947 -15058540.69547  19931091.7674   19931096.2204
  10508140.49242   4252303.81342  23374089.0564   23374100.4504
 02  9  9 18 24 59.9970000  0  7G20G11G30G14G 1G25G21
 -14701085.59646 -11248734.24846  21272611.6264   21272617.1574
 -19283865.51646 -14737807.22246  20654805.8214   20654810.3924
   -757765.70442   -274980.36342  23562847.3924   23562855.1884
   9069794.12646   7156675.33145  22170686.1104   22170692.3804
  -3938414.06244  -2904964.92944  22970413.0874   22970422.0214
 -19378737.34847 -15055458.24147  19931844.3374   19931848.7314
  10599819.30642   4323741.51242  23391535.7744   23391549.5714
 02  9  9 18 25 29.9970000  0  7G20G11G30G14G 1G25G21
 -14773614.85346 -11305250.50546  21258809.3294   21258814.8494
 -19259621.77746 -14718916.05546  20659419.7674   20659423.9854
   -754069.60442   -272100.30442  23563551.1424   23563558.9974
   9153053.95746   7221553.00245  22186530.0094   22186536.0094
  -4010327.78544  -2961001.42944  22956728.7434   22956736.3884
 -19374195.67747 -15051919.27447  19932708.7124   19932713.1424
  10691769.39942   4395390.60942  23409032.7284   23409046.6774
 02  9  9 18 25 59.9970000  0  7G20G11G30G14G 1G25G21
 -14845907.62046 -11361582.46946  21245052.6264   21245058.3804
 -19234766.16746 -14699548.10246  20664149.8294   20664153.8254
   -749780.44142   -268758.06442  23564368.7284   23564375.9974
   9236441.92845   7286530.52445  22202397.5634   22202403.4934
  -4082030.10144  -3016873.20044  22943084.4384   22943092.7634
 -19369069.35647 -15047924.73547  19933684.1734   19933688.5674
  10783989.43542   4467250.01141  23426583.0564   23426599.7244
 02  9  9 18 26 29.9970000  0  7G20G11G30G14G 1G25G21
 -14917954.19446 -11417722.60946  21231342.4544   21231348.2434
 -19209291.59646 -14679697.84546  20668997.3844   20669001.6614
   -744889.66742   -264947.08742  23565297.1734   23565305.5794
   9319964.96745   7351613.29045  22218291.8534   22218298.2284
  -4153512.98444  -3072573.98144  22929481.5714   22929489.3924
 -19363350.61947 -15043468.57947  19934772.5244   19934776.9894
  10876486.60543   4539325.41442  23444185.3454   23444197.1854
 02  9  9 18 26 59.9970000  0  7G20G11G30G14G 1G25G21
 -14989756.82846 -11473672.66346  21217678.6964   21217684.4274
 -19183203.44346 -14659369.47846  20673961.7124   20673966.2004
   -739400.87242   -260670.09942  23566341.7984   23566348.3494
   9403618.01045   7416797.37345  22234210.8764   22234216.7824
  -4224780.38745  -3128106.88144  22915920.2434   22915927.9584
 -19357044.76447 -15038554.93347  19935972.3374   19935976.7904
  10969256.14942   4611613.02942  23461838.1574   23461852.8804
 02  9  9 18 27 29.9970000  0  6G20G11G30G14G 1G25
 -15061313.04746 -11529430.69946  21204061.8604   21204067.6264
 -19156501.92946 -14638563.16246  20679042.9464   20679047.2124
   -733312.55643   -255925.98043  23567502.0714   23567511.0754
   9487400.81045   7482082.55645  22250154.1494   22250160.1494
  -4295831.29545  -3183471.03244  22902398.9074   22902408.1924
 -19350151.64347 -15033183.67547  19937284.2354   19937288.5714
 02  9  9 18 27 59.9970000  0  6G20G11G30G14G 1G25
 -15132624.28146 -11584997.84046  21190491.7674   21190497.6384
 -19129190.88446 -14617281.88346  20684239.9704   20684244.5174
   -726627.43043   -250716.76743  23568773.0244   23568781.5604
   9571309.28845   7547465.67745  22266121.7674   22266128.0834
  -4366668.77844  -3238668.91244  22888917.5634   22888928.2784
 -19342674.73047 -15027357.51347  19938706.8214   19938711.1694
 02  9  9 18 28 29.9970000  0  6G20G11G30G14G 1G25
 -15203685.59246 -11640370.23446  21176969.1344   21176974.9354
 -19101268.39146 -14595524.15246  20689553.6424   20689557.7554
   -719341.67043   -245039.53843  23570159.4384   23570168.7474
   9655345.71845   7612948.51445  22282112.9074   22282119.3294
  -4437289.52945  -3293697.90344  22875478.2354   22875487.0754
 -19334611.31647 -15021074.33347  19940241.3844   19940245.6734
 02  9  9 18 28 59.9970000  0  6G20G11G30G14G 1G25
 -15274496.01046 -11695547.13546  21163494.6654   21163500.5954
 -19072736.71146 -14573291.73646  20694982.7744   20694987.0054
   -711455.89443   -238894.72942  23571658.8994   23571665.6494
   9739508.28445   7678529.61045  22298128.6884   22298134.1494
  -4507694.54345  -3348558.78645  22862081.5954   22862090.3064
 -19325963.30847 -15014335.62947  19941887.0874   19941891.3534
 02  9  9 18 29 29.9970000  0  6G20G11G30G14G 1G25
 -15345062.21746 -11750533.73146  21150066.0794   21150072.0444
 -19043605.09446 -14550591.83046  20700526.4464   20700530.7354
   -702977.90443   -232288.51842  23573273.3534   23573283.4234
   9823787.58645   7744201.67245  22314166.5174   22314172.9624
  -4577892.13745  -3403258.04245  22848722.9074   22848731.8064
 -19316739.84847 -15007148.52747  19943642.3454   19943646.6814
 02  9  9 18 29 59.9970000  0  6G20G11G30G14G 1G25
 -15415382.71746 -11805328.87646  21136684.7984   21136690.5054
 -19013874.59446 -14527425.26746  20706183.9854   20706188.4504
   -693907.39342   -225220.56742  23574998.9544   23575007.9584
   9908182.55245   7809963.88145  22330226.7124   22330232.6304
  -4647882.23045  -3457795.62445  22835405.2204   22835414.1424
 -19306941.59447 -14999513.52747  19945506.8534   19945511.2474
 02  9  9 18 30 29.9970000  0  6G20G11G30G14G 1G25
 -15485455.95146 -11859931.35446  21123350.2434   21123355.9154
 -18983546.82846 -14503793.29846  20711955.4154   20711959.9974
   -684244.33942   -217690.94342  23576837.9784   23576849.9934
   9992691.92245   7875815.22145  22346308.2044   22346314.2744
  -4717664.97145  -3512171.59645  22822126.2124   22822135.1694
 -19296569.42347 -14991431.32247  19947480.8214   19947485.0524
 02  9  9 18 30 59.9970000  0  6G20G11G30G14G 1G25
 -15555279.87346 -11914339.55346  21110063.1964   21110068.5284
 -18952623.03446 -14479696.88946  20717840.1424   20717844.3374
   -673987.91142   -209698.80241  23578789.6814   23578795.3414
  10077315.32245   7941755.41045  22362411.6964   22362417.4854
  -4787239.88345  -3566385.65045  22808885.5954   22808894.4234
 -19285624.19747 -14982902.58147  19949563.4314   19949567.8604
 02  9  9 18 31 29.9970000  0  6G20G11G30G14G 1G25
 -15624854.79246 -11968553.71546  21096823.2514   21096828.8884
 -18921106.27346 -14455138.43646  20723837.3134   20723841.9894
   -663139.98142   -201245.93442  23580852.8454   23580861.0054
  10162049.55545   8007781.96645  22378536.3764   22378542.3414
  -4856609.24845  -3620439.55145  22795684.1884   22795694.2354
 -19274108.62847 -14973929.42347  19951754.7514   19951759.1224
 02  9  9 18 31 59.9970000  0  6G20G11G30G14G 1G25
 -15694180.36946 -12022573.60146  21083631.3604   21083637.0094
 -18888999.03246 -14430119.85946  20729947.3684   20729952.1384
   -651701.70542   -192332.95241  23583029.1034   23583035.4784
  10246892.38645   8073893.15545  22394681.3844   22394688.3604
  -4925774.55645  -3674334.43545  22782523.0634   22782531.5994
 -19262024.97147 -14964513.59547  19954054.1494   19954058.5214
 02  9  9 18 32 29.9970000  0  6G20G11G30G14G 1G25
 -15763260.12046 -12076401.91946  21070485.7594   21070491.6424
 -18856308.16046 -14404646.51046  20736168.5564   20736173.1034
   -639677.91943   -182963.75742  23585319.6884   23585328.6344
  10331837.42045   8140083.98745  22410845.9314   22410852.1304
  -4994740.82645  -3728074.26144  22769398.5874   22769408.5054
 -19249379.60147 -14954660.06747  19956460.6654   19956465.0014
 02  9  9 18 32 59.9970000  0  6G20G11G30G14G 1G25
 -15832083.07846 -12130030.14846  21057388.9934   21057394.5484
 -18823025.76746 -14378712.24146  20742501.8214   20742506.2044
   -627059.31843   -173131.03842  23587720.4704   23587727.4584
  10416893.01145   8206360.96545  22427031.5174   22427037.6814
  -5063498.94245  -3781651.79344  22756314.1344   22756331.7044
 -19236163.92047 -14944362.14147  19958975.4384   19958979.8334
 02  9  9 18 33 29.9970000  0  6G20G11G30G14G 1G25
 -15900642.53246 -12183453.05646  21044342.6184   21044348.2434
 -18789147.86946 -14352313.93946  20748948.5564   20748953.2314
   -613840.59243   -162830.74342  23590234.9704   23590241.8764
  10502063.16845   8272727.19445  22443239.0634   22443245.2164
  -5132043.88745  -3835063.13645  22743270.4074   22743283.7594
 -19222374.15347 -14933616.86847  19961599.5564   19961603.9154
 02  9  9 18 33 59.9970000  0  6G20G11G30G14G 1G25
 -15968931.60746 -12236665.24946  21031347.5484   21031353.4074
 -18754670.65146 -14325448.63246  20755509.2434   20755514.0134
   -600016.43143   -152058.60043  23592866.0094   23592874.1694
  10587352.20045   8339186.07945  22459469.3214   22459475.7434
  -5200370.59845                  22730269.0484
 -19208005.80547 -14922420.75447  19964334.0174   19964338.5634
 02  9  9 18 34 29.9970000  0  6G20G11G30G14G 1G25
 -16036965.50746 -12289678.61546  21018400.8764   21018406.5014
 -18719612.91446 -14298130.97446  20762180.7824   20762185.4814
   -585603.71143   -140827.91542  23595608.5484   23595617.9504
  10672742.24945   8405723.65345  22475718.3374   22475723.8924
  -5268496.03845                  22717305.3534
 -19193077.06047 -14910787.97147  19967174.6264   19967178.8214
 02  9  9 18 34 59.9970000  0  6G20G11G30G14G 1G25
 -16104753.14246 -12342500.10046  21005501.3994   21005507.2124
 -18683986.49546 -14270370.18946  20768960.3764   20768964.8064
   -570612.72143   -129146.63343  23598461.1964   23598470.4114
  10758221.79345   8472330.96945  22491984.7904   22491991.5284
  -5336430.76845    -37038.36955  22704376.6814   22704385.1694
 -19177598.98347 -14898727.13747  19970120.0324   19970124.5794
 02  9  9 18 35 29.9970000  0  6G20G11G30G14G 1G25
 -16172291.89946 -12395127.65246  20992649.4314   20992654.9154
 -18647792.21246 -14242166.90946  20775847.7674   20775852.1034
   -555042.70643   -117014.08543  23601424.9784   23601432.2004
  10843790.46745   8539007.74045  22508268.3924   22508274.9314
  -5404174.10745    -89825.24845  22691485.8064   22691494.4934
 -19161572.15947 -14886238.70947  19973169.7354   19973174.0834
 02  9  9 18 35 59.9970000  0  6G20G11G30G14G 1G25
 -16239593.45946 -12447570.37646  20979842.2904   20979847.9974
 -18611044.96746 -14213532.76146  20782840.6264   20782845.2784
   -538907.16043   -104440.90042  23604494.4704   23604502.3964
  10929434.07645   8605742.88845  22524565.5174   22524571.7984
  -5471739.68945   -142473.61745  22678628.5404   22678638.0604
 -19145011.15947 -14873334.03447  19976321.1184   19976325.4424
 02  9  9 18 36 29.9970000  0  6G20G11G30G14G 1G25
 -16306647.77446 -12499820.44546  20967082.1734   20967088.0444
 -18573737.82646 -14184462.32246  20789940.0244   20789944.7354
   -522197.70943    -91420.55642  23607674.5404   23607685.1494
  11015160.09645   8672542.26845  22540878.9234   22540885.4854
  -5539119.00645   -194976.85245  22665806.8764   22665815.2944
 -19127908.59447 -14860007.36947  19979575.7044   19979580.0994
 02  9  9 18 36 59.9970000  0  6G20G11G30G14G 1G25
 -16373448.64346 -12551873.03146  20954370.1494   20954375.5284
 -18535867.87946 -14154953.33646  20797146.3924   20797151.2674
   -504909.79443    -77949.40243  23610963.3844   23610972.9974
  11100971.96545   8739408.56245  22557208.2984   22557214.3104
  -5606307.76345   -247331.60144  22653020.2824   22653028.3254
 -19110261.20847 -14846256.16347  19982933.9624   19982938.4504
 02  9  9 18 37 29.9970000  0  6G20G11G30G14G 1G25
 -16439984.24646 -12603718.90846  20941709.0094   20941714.5404
 -18497426.50746 -14124999.08546  20804461.9624   20804466.5324
   -487033.24942    -64019.66842  23614365.7124   23614373.8254
  11186878.89045   8806348.87345  22573555.4934   22573561.3064
  -5673295.91145   -299530.01345  22640273.2594   22640281.5134
 -19092059.92547 -14832073.35147  19986397.4464   19986401.7124
 02  9  9 18 37 59.9970000  0  6G20G11G30G14G 1G25
 -16506250.20546 -12655354.68146  20929099.0404   20929104.8534
 -18458413.12146 -14094599.11446  20811885.7434   20811890.4424
   -468566.04442    -49629.62342  23617879.9854   23617886.5244
  11272882.23745   8873364.36045  22589921.8214   22589927.6924
  -5740081.22945   -351570.41145  22627565.1034   22627572.0324
 -19073303.57447 -14817458.01847  19989966.7434   19989971.1264
 02  9  9 18 38 29.9970000  0  6G20G11G30G14G 1G25
 -16572251.80846 -12706784.46246  20916539.1734   20916544.6464
 -18418835.87646 -14063759.78046  20819417.1344   20819422.1854
   -449514.71342    -34784.48642  23621505.4314   23621519.4974
  11358974.45545   8940449.07445  22606304.3764   22606311.2594
  -5806670.52045   -403458.03945  22614892.8684   22614900.8294
 -19054000.03647 -14802416.30247  19993640.1184   19993644.6654
 02  9  9 18 38 59.9970000  0  6G20G11G30G14G 1G25
 -16637984.86346 -12758004.98246  20904030.4314   20904036.0674
 -18378693.86946 -14032480.36146  20827055.8454   20827060.9194
   -429876.89542    -19482.35841  23625242.1734   23625255.5834
  11445156.97245   9007604.17845  22622705.0954   22622711.7864
  -5873061.38345   -455191.04945  22602258.6884   22602265.1814
 -19034147.84047 -14786947.07247  19997417.7514   19997422.4034
 02  9  9 18 39 29.9970000  0  6G20G11G30G14G 1G25
 -16703444.89946 -12809012.75946  20891573.8844   20891579.6384
 -18337986.57046 -14000760.46546  20834802.5324   20834807.6774
   -409650.35042     -3721.41241  23629091.2904   23629106.1424
  11531431.61145   9074831.01145  22639122.3374   22639128.7594
  -5939251.30245   -506767.48245  22589663.1184   22589670.4234
 -19013745.51147 -14771049.15847  20001300.3924   20001304.7984
 02  9  9 18 39 59.9970000  0  6G20G11G30G14G 1G25
 -16768645.38446 -12859818.29846  20879166.7744   20879172.4584
 -18296730.79246 -13968613.18446  20842653.2354   20842658.1104
   -388850.36143     12486.41942  23633049.4854   23633060.5874
  11617782.14745   9142117.01945  22655554.2044   22655561.1344
  -6005255.73145   -558199.39945  22577103.4154   22577110.9074
 -18992809.58647 -14754735.45047  20005284.1884   20005288.4894
 02  9  9 18 40 29.9970000  0  6G20G11G30G14G 1G25
 -16833589.42246 -12910424.00246  20866808.0484   20866814.0604
 -18254932.71346 -13936043.33146  20850606.9234   20850611.7744
   -367481.96943     29137.14142  23637116.4234   23637129.4814
  11704203.01745   9209457.80545  22671999.9314   22672007.1304
  -6071079.37945   -609490.41045  22564577.8064   22564585.3454
 -18971346.29147 -14738010.81247  20009368.5324   20009373.3134
 02  9  9 18 40 59.9970000  0  6G20G11G30G14G 1G25
 -16898263.77946 -12960819.57146  20854501.0954   20854506.9424
 -18212582.97246 -13903043.60646  20858665.9704   20858671.0794
   -345533.82143                  23641291.4464
  11790704.64345   9276861.50944  22688460.4784   22688466.8534
  -6136711.08445   -660631.89045  22552087.3294   22552095.2434
 -18949345.47347 -14720867.32247  20013555.3214   20013559.7394
 02  9  9 18 41 29.9970000  0  5G20G11G14G 1G25
 -16962670.59246 -13011006.66146  20842244.8604   20842250.6264
 -18169687.12946 -13869618.34846  20866828.7434   20866833.9584
  11877282.23945   9344324.44544  22704935.9544   22704941.6384
  -6202154.86745   -711626.92945  22539634.2824   22539641.7284
 -18926811.85647 -14703308.66847  20017843.2204   20017847.3104
 02  9  9 18 41 59.9970000  0  5G20G11G14G 1G25
 -17026816.53046 -13060990.47346  20830038.4464   20830044.1304
 -18126255.43746 -13835775.54346  20875093.7434   20875098.6774
  11963926.40345   9411839.23645  22721424.4074   22721431.8174
  -6267419.33845   -762482.24145  22527215.0634   22527222.6384
 -18903755.59947 -14685342.76047  20022230.6184   20022235.1304
 02  9  9 18 42 29.9970000  0  6G20G11G30G14G 1G25
 -17090698.58746 -13110768.66346  20817881.5634   20817887.1774
 -18082288.21946 -13801515.45546  20883460.5324   20883465.4894
     22877.55642                  23654475.3294
  12050637.77845   9479406.39645  22737924.6814   22737931.4424
  -6332503.11445   -813196.74045  22514829.3534   22514837.3724
 -18880176.49347 -14666969.44247  20026717.6964   20026722.2904
 02  9  9 18 42 59.9970000  0  6G20G11G30G14G 1G25
 -17154323.25646 -13160346.28746  20805774.4704   20805779.9894
 -18037796.01346 -13766846.28046  20891927.1814   20891932.1384
     47094.96642                  23659082.8374
  12137407.10045   9547018.71945  22754437.0174   22754443.1464
  -6397414.87345   -863777.21945  22502476.6884   22502484.2164
 -18856084.39547 -14648196.39047  20031302.1884   20031306.8064
 02  9  9 18 43 29.9970000  0  6G20G11G30G14G 1G25
 -17217675.00346 -13209711.24846  20793718.8684   20793724.7164
 -17992766.66746 -13731758.56246  20900495.9784   20900500.5014
     71884.87142      1950.30652  23663800.5094   23663815.1854
  12224247.12945   9614686.12744  22770962.1034   22770967.8104
  -6462140.96145   -914213.00045  22490159.5014   22490167.5324
 -18831466.78247 -14629013.84347  20035986.7354   20035991.2124
 02  9  9 18 43 59.9970000  0  6G20G11G30G14G 1G25
 -17280758.37946 -13258867.08346  20781714.5174   20781720.3534
 -17947208.07846 -13696258.44946  20909165.3294   20909170.3104
     97240.87142     21708.34541  23668626.1344   23668642.9784
  12311150.93445   9682403.25245  22787499.0714   22787505.0364
  -6526687.75445   -964509.08745  22477877.1734   22477884.3724
 -18806331.22947 -14609427.70847  20040769.8374   20040774.4424
 02  9  9 18 44 29.9970000  0  6G20G11G30G14G 1G25
 -17343570.25846 -13307811.36646  20769761.8294   20769767.5014
 -17901120.64746 -13660346.26046  20917935.6264   20917940.8764
    123163.48842                  23673558.3294
  12398118.67045   9750170.16545  22804048.7514   22804055.3844
  -6591054.33845  -1014664.74345  22465628.4074   22465636.6494
 -18780677.93047 -14589438.13747  20045651.6574   20045656.1694
 02  9  9 18 44 59.9970000  0  6G20G11G30G14G 1G25
 -17406102.85046 -13356538.01946  20757862.3294   20757867.7554
 -17854500.79646 -13624019.18946  20926807.2434   20926812.7634
    149658.42042                  23678600.0714
  12485155.45645   9817990.90645  22820611.1964   22820618.2084
  -6655234.61345  -1064675.23045  22453414.9854   22453422.3724
 -18754502.17947 -14569041.45647  20050632.6104   20050637.0404
 02  9  9 18 45 29.9970000  0  6G20G11G30G14G 1G25
 -17468357.19246 -13405047.85446  20746015.7824   20746020.8804
 -17807353.23746 -13587280.92246  20935779.1734   20935784.3534
    176722.69442                  23683749.9384
  12572257.75845   9885862.69744  22837186.7904   22837193.0954
  -6719231.44345  -1114542.77445  22441236.7354   22441243.9814
 -18727807.92447 -14548240.74747  20055712.5324   20055717.2904
 02  9  9 18 45 59.9970000  0  7G20G11G30G14G 1G22G25
 -17530331.53446 -13453339.50946  20734222.1424   20734227.6264
 -17759680.10146 -13550133.11246  20944851.1344   20944856.3494
    204355.64942      7945.16152  23689009.6184   23689022.0094
  12659425.01145   9953785.10944  22853773.8844   22853780.7904
  -6783045.04645  -1164267.53945  22429093.1494   22429100.7004
         2.75753                  23810012.0094
 -18700597.12647 -14527037.54447  20060890.5094   20060895.1384
 02  9  9 18 46 29.9970000  0  7G20G11G30G14G 1G22G25
 -17592027.05646 -13501413.90046  20722482.0324   20722487.5054
 -17711485.77346 -13512579.18246  20954022.2354   20954027.2164
    232553.80742     29917.67042  23694375.4314   23694389.9894
  12746653.34045  10021755.07744  22870372.9074   22870378.4624
  -6846678.61845  -1213852.01645  22416984.6104   22416992.1494
    -96818.27943    -32695.17552  23791585.9784   23791603.7244
 -18672874.22747 -14505435.29747  20066165.9624   20066170.5914
 02  9  9 18 46 59.9970000  0  7G20G11G30G14G 1G22G25
 -17653442.70246 -13549270.20946  20710795.0404   20710801.0054
 -17662773.54546 -13474621.69646  20963292.1034   20963297.4934
    261315.90842     52329.61942  23699847.7514   23699858.5014
  12833940.85945  10089771.18044  22886983.1884   22886989.9154
  -6910133.01245  -1263296.90645  22404909.0484   22404916.4584
   -193683.67043   -108174.33042  23773153.6184   23773170.1344
 -18644640.80247 -14483435.24447  20071538.7354   20071543.2824
 02  9  9 18 47 29.9970000  0  7G20G11G30G14G 1G22G25
 -17714572.64146 -13596903.88846  20699161.9544   20699167.7084
 -17613540.81446 -13436258.62746  20972660.7984   20972666.0484
    290645.50842     75183.80142  23705430.8064   23705443.8764
  12921291.02145  10157836.09644  22903605.6424   22903611.7124
  -6973404.51145  -1312599.26445  22392869.3844   22392876.9114
   -290586.54443   -183682.70942  23754713.6264   23754732.2744
 -18615894.68547 -14461035.69347  20077008.8684   20077013.5094
 02  9  9 18 47 59.9970000  0  7G20G11G30G14G 1G22G25
 -17775410.71546 -13644310.14646  20687585.0014   20687590.8374
 -17563785.81746 -13397488.59546  20982128.9464   20982134.1264
    320546.16942     98483.07742  23711119.5094   23711130.7864
  13008707.15145  10225952.41144  22920240.7904   22920247.8964
  -7036489.08845  -1361755.94645  22380864.2204   22380871.8764
   -387520.12943   -259215.09242  23736267.3064   23736284.3844
 -18586633.03047 -14438234.42347  20082577.0874   20082581.7394
 02  9  9 18 48 29.9970000  0  7G20G11G30G14G 1G22G25
 -17835976.32946 -13691504.09746  20676059.8214   20676065.5054
 -17513531.38046 -13358329.39246  20991692.0954   20991697.2864
    350996.20743    122210.37342  23716913.7124   23716921.0284
  13096167.31145  10294103.05044  22936883.1344   22936890.4274
  -7099407.86345  -1410783.46745  22368890.9704   22368898.2864
   -484502.70443   -334785.48942  23717812.1344   23717827.9814
 -18556878.45547 -14415049.06047  20088239.4314   20088243.9894
 02  9  9 18 48 59.9970000  0  7G20G11G30G14G 1G22G25
 -17896246.83146 -13738468.10146  20664590.6814   20664596.1304
 -17462758.66446 -13318766.33846  21001353.9784   21001359.5094
    382016.05543    146381.69342  23722816.3844   23722825.6694
  13183691.67345  10362303.69744  22953539.0014   22953545.7044
  -7162140.15745  -1459665.69445  22356953.5244   22356960.7714
   -581510.69343   -410375.84642  23699350.4704   23699365.0754
 -18526611.63047 -14391464.54547  20093998.9234   20094003.3764
 02  9  9 18 49 29.9970000  0  7G20G11G30G14G 1G22G25
 -17956227.38446 -13785206.16246  20653176.7824   20653182.2314
 -17411477.12546 -13278806.79346  21011112.4464   21011117.9314
    413597.90442    170990.86642  23728825.9314   23728833.8564
  13271272.42545  10430548.31645  22970205.2284   22970212.3214
  -7224692.99545  -1508408.05545  22345050.0014   22345056.8844
   -678548.44643   -485989.32942  23680885.9314   23680901.1344
 -18495841.44747 -14367487.79047  20099854.3134   20099858.7554
 02  9  9 18 49 59.9970000  0  7G20G11G30G14G 1G22G25
 -18015904.36446 -13831707.67246  20641820.6184   20641825.9744
 -17359677.06946 -13238443.21246  21020969.8454   21020975.0244
    445752.62442    196046.52242  23734945.0874   23734952.9544
  13358920.44845  10498845.32744  22986883.7984   22986889.8564
  -7287055.10945  -1557001.80645  22333182.7204   22333190.7864
   -775601.82943   -561615.02142  23662416.0174   23662431.8994
 -18464557.71047 -14343110.87347  20105807.3374   20105812.0244
 02  9  9 18 50 29.9970000  0  7G20G11G30G14G 1G22G25
 -18075276.90046 -13877971.95546  20630522.2904   20630527.5284
 -17307361.23346 -13197677.72546  21030925.1424   21030930.5674
    478478.97543    221547.52142  23741173.3684   23741182.2674
  13446634.10645  10567193.48244  23003575.3604   23003581.9584
  -7349227.22945  -1605447.50345  22321351.6574   22321359.3024
   -872668.41143   -637250.94042  23643943.3764   23643960.4074
 -18432762.22047 -14318335.18247  20111857.8604   20111862.2674
 02  9  9 18 50 59.9970000  0  7G20G11G30G14G 1G22G25
 -18134343.35146 -13923997.73246  20619282.4854   20619287.7824
 -17254531.85046 -13156512.07546  21040978.4074   21040983.8804
    511776.08243    247493.31442  23747509.1574   23747517.8214
  13534412.66345  10635592.21644  23020279.4544   23020285.9704
  -7411209.78545  -1653745.49445  22309556.5094   22309564.6224
   -969745.98843   -712895.46242  23625471.4704   23625485.9354
 -18400456.84247 -14293162.17347  20118005.3604   20118009.8374
 02  9  9 18 51 29.9970000  0  7G20G11G30G14G 1G22G25
 -18193098.11846 -13969780.63446  20608101.7204   20608107.1694
 -17201187.74246 -13114945.34146  21051129.4854   21051134.8884
    545646.63243    273885.98542  23753953.7124   23753962.2124
  13622258.69445  10704043.53244  23036996.0634   23037002.8494
  -7472999.61945  -1701893.31445  22297798.6654   22297805.8994
  -1066828.16043   -788543.53042  23606997.3374   23607012.8804
 -18367639.97447 -14267590.60447  20124250.3684   20124255.0794
 02  9  9 18 51 59.9970000  0  7G20G11G30G14G 1G22G25
 -18251539.89846 -14015319.65946  20596980.6104   20596985.9544
 -17147331.06246 -13072979.20146  21061378.1734   21061383.7744
    580089.62143    300724.61242  23760508.1734   23760517.1064
  13710171.03445  10772546.51744  23053726.1184   23053733.2474
  -7534597.05145  -1749891.21445  22286076.6494   22286082.8494
  -1163912.57342   -864193.32742  23588522.5404   23588539.6304
 -18334313.33947 -14241621.81347  20130592.0484   20130596.8064
 02  9  9 18 52 29.9970000  0  7G20G11G30G14G 1G22G25
 -18309672.00946 -14060617.37546  20585918.5564   20585924.0634
 -17092969.51846 -13030619.65546  21071722.9784   21071728.3684
    615099.12943    328004.74242  23767171.3924   23767177.9314
  13798143.79445  10841096.56544  23070465.6104   23070471.9274
  -7596007.52345  -1797743.43645  22274390.4544   22274397.3134
  -1261001.59242   -939846.80042  23570047.0874   23570058.9974
 -18300483.70747 -14215261.07847  20137029.6494   20137034.0914
 02  9  9 18 52 59.9970000  0  7G20G11G30G14G 1G22G25
 -18367486.80146 -14105667.83346  20574916.7044   20574921.9784
 -17038099.18346 -12987863.66446  21082164.6574   21082170.1184
    650680.17643    355730.19542  23773942.0094   23773949.6884
  13886182.14845  10909697.75043  23087219.9314   23087226.4934
  -7657225.30845  -1845445.50745  22262740.9624   22262748.6654
  -1358086.66342  -1015497.17242  23551571.7434   23551588.7164
 -18266147.02547 -14188505.23947  20143563.9854   20143568.5564
 02  9  9 18 53 29.9970000  0  7G20G11G30G14G 1G22G25
 -18424985.55046 -14150472.01846  20563975.1034   20563980.3644
 -16982725.74546 -12944715.64246  21092701.8294   21092707.5714
    686828.65843    383897.84242  23780821.3924   23780828.9314
  13974282.31445  10978347.09744  23103984.6344   23103992.7594
  -7718253.93145  -1893000.17545  22251127.8844   22251135.0714
  -1455168.34442  -1091144.90742  23533097.4704   23533114.2084
 -18231308.05647 -14161358.00847  20150193.3924   20150198.1144
 02  9  9 18 53 59.9970000  0  7G20G11G30G14G 1G22G25
 -18482161.52146 -14195024.69546  20553094.7124   20553100.0564
 -16926846.25046 -12901173.29546  21103335.4784   21103341.0444
    723548.70843    412510.82342  23787808.3294   23787816.7354
  14062448.44245  11047047.82243  23120762.0484   23120769.2124
  -7779088.44045  -1940403.59345  22239551.8294   22239559.6144
  -1552238.52142  -1166783.65942  23514626.6184   23514641.0484
 -18195963.20147 -14133816.58947  20156919.3454   20156924.0214
 02  9  9 18 54 29.9970000  0  7G20G11G30G14G 1G22G25
 -18539015.93346 -14239326.80046  20542275.5954   20542280.9384
 -16870466.32446 -12857240.99746  21114064.2434   21114070.0794
    760836.35743    441566.07142  23794904.7284   23794910.0014
  14150676.45245  11115796.78743  23137551.2904   23137558.3494
  -7839732.28945  -1987658.44445  22228011.2744   22228017.8494
  -1649297.92543  -1242414.03942  23496155.3684   23496168.6734
 -18160117.76547 -14105885.09747  20163740.4544   20163745.3294
 02  9  9 18 54 59.9970000  0  6G20G11G14G 1G22G25
 -18595544.29546 -14283374.84146  20531518.3994   20531524.0014
 -16813585.37646 -12812918.29446  21124888.4074   21124894.0674
  14238968.48745  11184595.62843  23154352.0404   23154358.4854
  -7900182.87245  -2034762.68645  22216507.7204   22216514.0134
  -1746340.82043  -1318031.58643  23477689.5174   23477702.9624
 -18123770.56647 -14077562.62647  20170657.2204   20170661.8604
 02  9  9 18 55 29.9970000  0  6G20G11G14G 1G22G25
 -18651752.56446 -14327173.45646  20520822.4784   20520827.7394
 -16756213.29546 -12768212.88046  21135805.9234   21135811.3724
  14327316.16644  11253437.85543  23171165.3924   23171171.4384
  -7960448.08645  -2081722.48845  22205039.6494   22205046.9194
  -1843372.15843  -1393640.12142  23459224.2744   23459237.4274
 -18086930.63447 -14048856.21447  20177667.8064   20177672.3414
 02  9  9 18 55 59.9970000  0  6G20G11G14G 1G22G25
 -18707633.19046 -14370716.77446  20510188.7904   20510194.1814
 -16698347.03746 -12723122.39846  21146817.8764   21146823.3604
  14415724.15845  11322327.06343  23187989.1264   23187997.7784
  -8020522.77245  -2128533.83845  22193606.9784   22193614.4704
  -1940383.65343  -1469233.17742  23440762.3134   23440775.3604
 -18049594.65247 -14019763.26047  20184772.4624   20184777.0564
 02  9  9 18 56 29.9970000  0  6G20G11G14G 1G22G25
 -18763168.08446 -14413990.68546  20499620.8924   20499626.2714
 -16639972.49646 -12677635.85446  21157926.4624   21157932.1464
  14504208.08344  11391275.44243  23204826.3214   23204833.7434
  -8080390.77945  -2175184.13045  22182215.2434   22182222.4194
  -2037356.18443  -1544795.83642  23422308.7824   23422324.3494
 -18011747.88447 -13990272.29947  20191974.4784   20191979.2354
 02  9  9 18 56 59.9970000  0  6G20G11G14G 1G22G25
 -18818366.60346 -14457002.49046  20489116.8604   20489122.1694
 -16581103.37946 -12631763.91946  21169128.5404   21169134.3414
  14592756.04644  11460273.70143  23221676.4624   23221685.1734
  -8140063.47845  -2221682.24845  22170859.4934   22170866.6924
  -2134297.97743  -1620334.60943  23403861.8454   23403876.6614
 -17973403.19947 -13960393.34647  20199271.3534   20199276.0404
 02  9  9 18 57 29.9970000  0  6G20G11G14G 1G22G25
 -18873226.81146 -14499750.67646  20478677.0564   20478682.5994
 -16521741.91146 -12585508.33946  21180424.7744   21180430.5874
  14681367.38444  11529321.34743  23238539.0564   23238549.1264
  -8199540.97545  -2268028.25045  22159541.0714   22159547.4464
  -2231206.25443  -1695847.22843  23385421.0484   23385436.7784
 -17934562.48247 -13930127.87547  20206662.3994   20206667.2514
 02  9  9 18 57 59.9970000  0  6G20G11G14G 1G22G25
 -18927747.64546 -14542234.41346  20468302.3064   20468307.7084
 -16461890.77546 -12538871.19846  21191814.3924   21191820.2044
  14770040.78743  11598417.34943  23255413.3534   23255421.2314
  -8258824.15345  -2314222.82445  22148259.9934   22148267.0284
  -2328078.83244  -1771331.98243  23366986.3454   23366999.8604
 -17895227.90347 -13899477.58147  20214147.6104   20214152.4744
 02  9  9 18 58 29.9970000  0  6G20G11G14G 1G22G25
 -18981926.78546 -14584451.90446  20457992.0954   20457997.8134
 -16401552.39146 -12491854.39546  21203296.5634   21203302.2244
  14858775.94143  11667561.45043  23272298.3684   23272305.5914
  -8317912.74445  -2360265.77845  22137015.9624   22137022.1614
  -2424912.52344  -1846786.49643  23348558.8994   23348573.6344
 -17855400.92747 -13868443.60247  20221726.5484   20221731.1884
 02  9  9 18 58 59.9970000  0  6G20G11G14G 1G22G25
 -19035752.80246 -14626394.22646  20447749.5714   20447755.2204
 -16340719.35246 -12444452.13346  21214872.7434   21214878.4624
  14947581.78244  11736760.64043  23289198.4074   23289205.1574
  -8376797.44945  -2406149.87345  22125810.1344   22125816.9544
  -2521694.73844  -1922200.91543  23330141.2354   23330156.3804
 -17815074.02047 -13837020.06547  20229400.3924   20229405.1264
 02  9  9 18 59 29.9970000  0  6G20G11G14G 1G22G25
 -19089241.12446 -14668073.40946  20437571.2434   20437576.7634
 -16279411.62546 -12396680.00146  21226539.2514   21226545.1814
  15036440.32744  11806000.92143  23306108.0714   23306115.7044
  -8435495.74645  -2451888.70245  22114640.4314   22114647.7124
  -2618439.91944  -1997586.44643  23311731.1654   23311745.9584
 -17774265.99647 -13805221.63647  20237165.7594   20237170.4704
 02  9  9 18 59 59.9970000  0  6G20G11G14G 1G22G25
 -19142389.67146 -14709487.83146  20427457.0094   20427462.0834
 -16217631.30946 -12348539.59746  21238295.1814   21238301.0524
  15125351.17844  11875281.97543  23323027.3454   23323035.2594
  -8494007.65445  -2497482.30145  22103506.1104   22103513.6614
  -2715145.12444  -2072940.80543  23293329.0634   23293343.0134
 -17732978.59047 -13773049.66047  20245022.4624   20245027.3254
 02  9  9 19  0 29.9970000  0  6G20G11G14G 1G22G25
 -19195133.21546 -14750586.67046  20417420.3924   20417425.9464
 -16155317.30646 -12299983.34446  21250153.3924   21250159.3684
  15214377.18144  11944652.68843  23339968.1344   23339976.4464
  -8552270.10145  -2542881.50945  22092419.0634   22092426.0874
  -2811744.05244  -2148212.34543  23274946.9384   23274961.9314
 -17691150.07447 -13740456.04247  20252982.3214   20252987.0794
 02  9  9 19  0 59.9970000  0  6G20G11G14G 1G22G25
 -19247506.35146 -14791396.87446  20407453.8764   20407459.7474
 -16092508.55246 -12251041.57546  21262105.9074   21262111.5794
  15303480.87545  12014084.00743  23356924.3374   23356933.2824
  -8610319.76845  -2588114.92645  22081372.1654   22081379.1424
  -2908270.22444  -2223427.25043  23256577.4854   23256589.6884
 -17648818.74047 -13707470.61447  20261037.7514   20261042.7554
 02  9  9 19  1 29.9970000  0  6G20G11G14G 1G22G25
 -19299520.36446 -14831927.24346  20397555.8764   20397561.7594
 -16029220.83646 -12201726.58646  21274149.1654   21274155.0014
  15392648.76545  12083565.31744  23373891.8994   23373899.0754
  -8668169.83545  -2633192.80245  22070363.9154   22070370.8214
  -3004733.73543  -2298593.31543  23238221.1344   23238236.0914
 -17605999.60447 -13674105.08247  20269186.0174   20269190.8804
 02  9  9 19  1 59.9970000  0  6G20G11G14G 1G22G25
 -19351164.55146 -14872169.43646  20387728.3764   20387734.1654
 -15965447.60346 -12152033.27146  21286285.0634   21286290.9464
  15481888.98145  12153103.01243  23390874.4934   23390882.5714
  -8725811.73445  -2678108.48545  22059394.6184   22059402.2164
  -3101122.92343  -2373701.45442  23219878.1494   23219891.5364
 -17562685.74947 -13640354.05747  20277428.3214   20277433.1964
 02  9  9 19  2 29.9970000  0  6G20G11G14G 1G22G25
 -19402453.39946 -14912134.74446  20377968.6574   20377974.2244
 -15901207.48746 -12101976.15746  21298509.5564   21298515.2284
  15571184.53445  12222683.79343  23407866.8064   23407874.7554
  -8783261.97645  -2722874.80045  22048462.5244   22048469.8764
  -3197451.22343  -2448762.20242  23201547.4784   23201562.7744
 -17518895.36747 -13606231.71747  20285761.5954   20285766.5404
 02  9  9 19  2 59.9970000  0  6G20G11G14G 1G22G25
 -19453385.18946 -14951821.82246  20368276.2594   20368281.6034
 -15836503.77946 -12051557.80446  21310822.2284   21310828.1694
  15660534.26844  12292306.83443  23424868.8994   23424877.5874
  -8840521.12445  -2767492.22645  22037566.2284   22037573.1924
  -3293716.03643  -2523773.42742  23183229.1574   23183239.1344
 -17474630.65247 -13571739.75647  20294184.8454   20294189.7904
 02  9  9 19  3 29.9970000  0  6G20G11G14G 1G22G25
 -19503963.02146 -14991233.09046  20358651.6734   20358657.4624
 -15771343.64346 -12000783.77846  21323221.6264   21323227.3564
  15749932.92544  12361967.96043  23441881.7354   23441889.3564
  -8897594.04445  -2811964.53645  22026705.7044   22026712.8564
  -3389919.28243  -2598736.69842  23164922.7434   23164935.6854
 -17429898.16047 -13536883.29947  20302697.0174   20302702.1034
 02  9  9 19  3 59.9970000  0  6G20G11G14G 1G22G25
 -19554191.72446 -15030372.31046  20349093.6034   20349099.1344
 -15705736.08046 -11949661.12546  21335706.4784   21335712.3494
  15839373.32444  12431661.62243  23458901.9074   23458908.6344
  -8954487.61645  -2856297.08045  22015879.1344   22015885.9664
  -3486064.56143  -2673654.80343  23146624.9784   23146637.7204
 -17384706.59647 -13501669.12947  20311296.7594   20311301.6814
 02  9  9 19  4 29.9970000  0  7G20G11G 2G14G 1G22G25
 -19604062.67646 -15069232.76546  20339603.5014   20339609.1144
 -15639677.31446 -11898186.87946  21348277.4234   21348283.3414
    -43891.71952                  23815458.1814
  15928861.60244  12501392.55842  23475931.0564   23475939.1224
  -9011195.46645  -2900484.90145  22005087.8454   22005094.3604
  -3582142.26543  -2748520.26142  23128342.6104   23128355.8104
 -17339051.09947 -13466093.45047  20319984.7824   20319989.7514
 02  9  9 19  4 59.9970000  0  7G20G11G 2G14G 1G22G25
 -19653596.15446 -15107830.25446  20330177.6264   20330183.3684
 -15573191.71146 -11846380.02746  21360929.1814   21360935.1104
   -121349.76243                  23800721.3844
  16018374.92444  12571143.04843  23492964.8924   23492973.8024
  -9067739.93445  -2944545.42145  21994327.6184   21994334.6304
  -3678171.60743  -2823348.03942  23110067.7594   23110081.1814
 -17292955.94947 -13430175.17647  20328756.2744   20328761.1494
 02  9  9 19  5 29.9970000  0  7G20G11G 2G14G 1G22G25
 -19702789.76346 -15146162.91246  20320816.4154   20320821.7474
 -15506281.36146 -11794242.21546  21373661.9074   21373667.8964
   -198809.61043     -2010.31352  23785978.8994   23785995.3214
  16107913.12844  12640912.87043  23510003.7354   23510012.9154
  -9124120.80545  -2988478.44845  21983598.4544   21983605.2164
  -3774149.07543  -2898135.40243  23091804.9854   23091818.7004
 -17246422.54147 -13393915.40747  20337611.5014   20337616.5874
 02  9  9 19  5 59.9970000  0  7G20G11G 2G14G 1G22G25
 -19751632.72846 -15184222.34246  20311521.8214   20311527.0714
 -15438939.82546 -11741768.41246  21386476.6344   21386482.5054
   -276260.01243    -62360.89242  23771240.5484   23771256.7474
  16197484.61844  12710708.66543  23527048.7284   23527057.8844
  -9180329.21845  -3032277.10145  21972902.3374   21972909.2784
  -3870062.69844  -2972872.97943  23073551.8994   23073565.7784
 -17199443.43147 -13357308.33947  20346551.3924   20346556.2674
 02  9  9 19  6 29.9970000  0  7G20G11G 2G14G 1G22G25
 -19800122.61946 -15222006.64446  20302294.5564   20302299.6304
 -15371169.50046 -11688960.49646  21399373.1734   21399379.2314
   -353698.07643   -122701.85143  23756503.7984   23756519.4934
  16287089.37143  12780530.40742  23544099.7124   23544108.5754
  -9236364.93446  -3075941.18045  21962239.2434   21962246.0054
  -3965909.02544  -3047558.18043  23055313.1034   23055325.9744
 -17152020.39947 -13320355.35547  20355575.6814   20355580.5444
 02  9  9 19  6 59.9970000  0  7G20G11G 2G14G 1G22G25
 -19848252.38046 -15259510.32946  20293135.8844   20293141.0634
 -15302967.58646 -11635816.26746  21412351.4854   21412357.3924
   -431116.41443   -183027.44543  23741770.6654   23741786.3024
  16376732.03043  12850381.64242  23561158.1494   23561167.5874
  -9292223.03846  -3119466.86045  21951609.3684   21951615.8134
  -4061679.83245  -3122184.50243  23037088.5874   23037101.9744
 -17104150.18847 -13283053.92547  20364684.9934   20364690.0444
 02  9  9 19  7 29.9970000  0  7G20G11G 2G14G 1G22G25
 -19896030.44846 -15296739.96646  20284043.8924   20284048.9784
 -15234346.95146 -11582345.77646  21425409.8064   21425415.6654
   -508522.92744   -243343.83643  23727041.3374   23727055.9424
  16466401.61743  12920253.88143  23578221.7674   23578230.1854
  -9347913.98345  -3162862.28245  21941011.6104   21941018.5754
  -4157382.47445  -3196757.69244  23018877.0174   23018889.7354
 -17055844.69447 -13245413.30847  20373877.2744   20373882.3374
 02  9  9 19  7 59.9970000  0  7G20G11G 2G14G 1G22G25
 -19943460.95146 -15333698.77346  20275018.0484   20275023.4854
 -15165316.43146 -11528555.87646  21438545.5714   21438551.4894
   -585921.27044   -303653.86543  23712312.0714   23712329.1384
  16556091.68944  12990142.10643  23595289.6184   23595298.3414
  -9403443.90045  -3206132.23845  21930444.1034   21930450.8884
  -4253019.85645  -3271280.06244  23000677.4384   23000690.6264
 -17007112.29447 -13207440.04147  20383150.7284   20383155.8724
 02  9  9 19  8 29.9970000  0  7G20G11G 2G14G 1G22G25
 -19990530.25446 -15370376.13346  20266061.0794   20266066.1884
 -15095866.93146 -11474439.52446  21451761.5244   21451767.3374
   -663297.51844   -363946.66244  23697588.8454   23697604.3764
  16645813.22843  13060054.80542  23612363.2124   23612372.6494
  -9458801.47246  -3249267.89545  21919910.2124   21919916.8924
  -4348577.42145  -3345740.20144  22982492.7744   22982506.0674
 -16957943.11647 -13169126.42947  20392507.3134   20392512.3764
 02  9  9 19  8 59.9970000  0  7G20G11G 2G14G 1G22G25
 -20037236.27646 -15406770.41446  20257173.0874   20257178.2904
 -15026000.61046 -11419998.36145  21465056.8294   21465062.5714
   -740648.80445   -424220.02644  23682868.2824   23682884.5174
  16735566.12843  13129991.97242  23629442.1654   23629450.9234
  -9513986.30946  -3292268.95445  21909408.9784   21909415.5054
  -4444051.55845  -3420135.32844  22964324.9154   22964337.2594
 -16908338.97547 -13130473.87747  20401946.6264   20401951.6534
 02  9  9 19  9 29.9970000  0  7G20G11G 2G14G 1G22G25
 -20083581.58446 -15442883.62046  20248353.7204   20248358.9934
 -14955724.45846 -11365237.84045  21478430.2744   21478436.2164
   -817977.44445   -484475.76543  23668153.0954   23668168.7784
  16825345.45843  13199949.69842  23646527.4934   23646536.3564
  -9569003.19446  -3335139.15645  21898939.3134   21898945.6774
  -4539443.76445  -3494466.62044  22946171.9314   22946184.0524
 -16858305.99747 -13091487.17247  20411467.5794   20411472.5364
 02  9  9 19  9 59.9970000  0  7G20G11G 2G14G 1G22G25
 -20129565.29046 -15478715.05846  20239603.5014   20239608.8334
 -14885042.83846 -11310161.38345  21491880.7284   21491886.8564
   -895282.22345   -544712.89943  23653442.1424   23653457.0754
  16915149.37443  13269926.63743  23663616.0794   23663625.2354
  -9623853.59046  -3377879.63145  21888501.3294   21888508.1614
  -4634752.18145  -3568732.59444  22928035.3844   22928047.6344
 -16807847.46747 -13052168.86547  20421069.6654   20421074.7164
 02  9  9 19 10 29.9970000  0  7G20G11G 2G14G 1G22G25
 -20175177.81746 -15514257.26146  20230923.7124   20230929.0324
 -14813950.02746 -11254764.52845  21505409.3214   21505415.3564
   -972552.82244   -604923.40843  23638737.0634   23638753.9784
  17004985.37543  13339928.53042  23680711.0634   23680719.8334
  -9678529.66846  -3420484.26845  21878097.1654   21878103.4114
  -4729965.83545  -3642924.76544  22909916.0634   22909928.0914
 -16756957.46947 -13012514.35247  20430753.6264   20430758.8414
 02  9  9 19 10 59.9970000  0  7G20G11G 2G14G 1G22G25
 -20220414.08346 -15549506.27646  20222315.4704   20222320.7314
 -14742445.39646 -11199046.75645  21519016.2204   21519022.1614
  -1049783.66444   -665102.93643  23624040.8374   23624055.2904
  17094855.97843  13409957.36742  23697813.5174   23697823.0834
  -9733028.36246  -3462950.69645  21867726.7124   21867732.6774
  -4825078.52845  -3717038.24844  22891816.6884   22891828.6464
 -16705634.50647 -12972522.45947  20440520.2984   20440525.3604
 02  9  9 19 11 29.9970000  0  7G20G11G 2G14G 1G22G25
 -20265267.67946 -15584457.10346  20213780.0714   20213785.4624
 -14670527.57046 -11143007.02245  21532701.9154   21532707.9504
  -1126968.04444   -725246.28543  23609353.2204   23609368.0714
  17184765.39544  13480016.52942  23714924.1734   23714932.9544
  -9787345.41446  -3505275.57845  21857390.5014   21857397.2394
  -4920082.59145  -3791067.06444  22873737.7514   22873749.1574
 -16653876.57347 -12932191.63347  20450369.4704   20450374.5444
 02  9  9 19 11 59.9970000  0  7G20G11G 2G14G 1G22G25
 -20309752.69346 -15619120.72546  20205314.7284   20205320.2124
 -14598215.33846 -11086659.95045  21546462.2984   21546468.4624
  -1204119.58943   -785364.05142  23594670.5874   23594683.8804
  17274696.94044  13550092.86742  23732036.7044   23732044.4314
  -9841497.08946  -3547471.61745  21847085.4624   21847091.9194
  -5014991.11445  -3865021.45944  22855677.4464   22855687.7864
 -16601702.00447 -12891536.15447  20460297.9154   20460303.0134
 02  9  9 19 12 29.9970000  0  7G20G11G 2G14G 1G22G25
 -20353856.47646 -15653487.28746  20196922.0564   20196927.4704
 -14525500.39746 -11029999.09645  21560299.6494   21560305.4274
  -1281225.05543   -845445.88742  23579998.1264   23580013.9154
  17364660.99444  13620194.54542  23749157.0094   23749164.1854
  -9895472.67746  -3589530.43145  21836814.2124   21836820.2824
  -5109790.25345  -3938890.57744  22837637.8134   22837648.9624
 -16549101.63747 -12850548.88647  20470307.4784   20470312.6814
 02  9  9 19 12 59.9970000  0  7G20G11G 2G14G 1G22G25
 -20397579.38346 -15687557.06146  20188602.1104   20188607.3724
 -14452387.59546 -10973028.21345  21574212.5634   21574218.6224
  -1358284.05843   -905491.54942  23565333.2904   23565348.7744
  17454654.83344  13690319.49043  23766281.8294   23766288.0404
  -9949274.56546  -3631453.89945  21826575.8924   21826581.9504
  -5204478.90645  -4012673.63944  22819618.7824   22819630.7164
 -16496079.21247 -12809232.74147  20480397.3604   20480402.5404
 02  9  9 19 13 29.9970000  0  7G20G11G 2G14G 1G22G25
 -20440912.31646 -15721322.96046  20180355.8994   20180361.2434
 -14378872.41846 -10915743.79745  21588202.2514   21588208.2634
  -1435287.22743   -965493.74542  23550680.4314   23550695.1424
  17544685.19944  13760472.84143  23783414.7824   23783423.8564
 -10002895.79746  -3673236.59945  21816372.3214   21816378.2514
  -5299046.87745  -4086362.67344  22801622.5634   22801633.8534
 -16442630.17547 -12767584.17447  20490568.2044   20490573.3024
 02  9  9 19 13 59.9970000  0  7G20G11G 2G14G 1G22G25
 -20483850.17446 -15754781.01646  20172185.0174   20172190.3494
 -14304954.46846 -10858145.53745  21602268.4234   21602274.4464
  -1512228.90443  -1025447.93742  23536039.2984   23536050.6224
  17634754.88644  13830656.83943  23800554.2984   23800563.5014
 -10056333.15346  -3714876.02345  21806203.0094   21806209.4424
  -5393487.67845  -4159952.59544  22783651.0564   22783662.0174
 -16388752.80347 -12725601.83947  20500820.8214   20500825.8254
 02  9  9 19 14 29.9970000  0  7G20G11G 2G14G 1G22G25
 -20526394.64546 -15787932.53246  20164089.2904   20164094.5634
 -14230639.85046 -10800238.18345  21616410.4544   21616416.5484
  -1589110.14743  -1085355.09843  23521408.4704   23521422.7824
  17724859.96643  13900868.45243  23817700.0174   23817709.2784
 -10109590.24846  -3756374.97745  21796068.7984   21796075.1614
  -5487801.72344  -4233443.76644  22765703.1034   22765714.4744
 -16334452.97747 -12683290.31947  20511153.8134   20511158.9354
 02  9  9 19 14 59.9970000  0  7G20G11G 2G14G 1G22G25
 -20568540.04846 -15820773.08846  20156069.1654   20156074.2634
 -14155928.00146 -10742021.30545  21630627.6494   21630633.8844
  -1665925.10943  -1145210.57843  23506790.9624   23506805.3684
  17815003.22844  13971109.76842  23834854.5564   23834863.2084
 -10162663.96146  -3797731.05045  21785969.3134   21785975.4194
  -5581982.48344  -4306831.06944  22747780.6964   22747792.1264
 -16279729.28947 -12640648.52247  20521567.4234   20521572.5564
 02  9  9 19 15 29.9970000  0  7G20G11G 2G14G 1G22G25
 -20610285.54046 -15853302.02446  20148125.4544   20148130.4354
 -14080822.36746 -10683497.57845  21644919.8064   21644926.1224
  -1742672.15144  -1205013.17043  23492186.8134   23492200.0714
  17905183.83143  14041380.17342  23852016.1344   23852023.9314
 -10215555.12646  -3838944.86645  21775904.1104   21775910.0054
  -5676027.55545  -4380112.66743  22729884.9154   22729896.0404
 -16224584.41647 -12597678.52747  20532061.1654   20532066.5444
 02  9  9 19 15 59.9970000  0  7G20G11G 2G14G 1G22G25
 -20651622.44246 -15885512.58346  20140259.3604   20140264.6104
 -14005318.90146 -10624663.84945  21659287.5014   21659293.7594
  -1819342.17944  -1264755.73443  23477596.5634   23477612.2004
  17995407.92843  14111684.49043  23869185.4624   23869195.6144
 -10268257.13346  -3880011.29945  21765874.6964   21765881.0134
  -5769927.02745  -4453280.83744  22712015.0484   22712025.9154
 -16169013.82547 -12554376.80947  20542635.9704   20542641.3254
 02  9  9 19 16 29.9970000  0  7G20G11G 2G14G 1G22G25
 -20692565.55746 -15917416.29446  20132467.9704   20132473.2314
 -13929437.59546 -10565535.70445  21673727.2904   21673733.1854
  -1895949.50044  -1324449.41743  23463018.5794   23463031.6494
  18085658.19642  14182009.20642  23886357.8214   23886366.3924
 -10320786.95946  -3920943.55645  21755879.1574   21755885.4624
  -5863694.49645  -4526346.12544  22694172.7984   22694185.2474
 -16113036.16147 -12510757.88847  20553288.1424   20553293.3804
 02  9  9 19 16 59.9970000  0  7G20G11G 2G14G 1G22G25
 -20733104.17046 -15949004.81046  20124753.7124   20124759.0564
 -13853171.82846 -10506107.98245  21688240.2354   21688246.3764
  -1972482.64345  -1384085.33244  23448454.0954   23448465.5834
  18175943.12443  14252360.93942  23903540.0564   23903549.6694
 -10373135.82946  -3961734.82145  21745917.3924   21745923.9074
  -5957317.97445  -4599299.22944  22676356.0014   22676367.0914
 -16056644.92247 -12466816.70647  20564019.1104   20564024.3024
 02  9  9 19 17 29.9970000  0  7G20G11G 2G14G 1G22G25
 -20773243.73546 -15980282.37446  20117115.5174   20117120.6494
 -13776531.71946 -10446388.55945  21702825.2904   21702831.3724
  -2048946.39445  -1443667.15044  23433903.2124   23433917.1034
  18266255.14443  14322733.74343  23920725.1424   23920736.0324
 -10425311.20346  -4002390.89845  21735988.6264   21735994.8844
  -6050801.46645  -4672143.25645  22658566.7284   22658577.1034
 -15999849.12547 -12422560.28147  20574826.9624   20574832.1884
 02  9  9 19 17 59.9980000  0  7G20G11G 2G14G 1G22G25
 -20812981.02046 -16011246.47846  20109553.6154   20109558.6664
 -13699514.84546 -10386375.54945  21717480.8574   21717487.2214
  -2125338.38345  -1503193.05444  23419366.2484   23419379.0724
  18356599.54843  14393131.78942  23937918.6544   23937929.0644
 -10477312.29746  -4042911.16245  21726093.1864   21726099.2794
  -6144142.06145  -4744875.95444  22640804.5684   22640814.9084
 -15942645.95547 -12377986.42347  20585712.5614   20585717.9634
 02  9  9 19 18 29.9980000  0  7G20G11G 2G14G 1G22G25
 -20852302.62246 -16041886.67046  20102070.8734   20102075.9824
 -13622120.09546 -10326068.10745  21732208.6784   21732214.7014
  -2201642.33044  -1562650.34544  23404845.0534   23404858.2174
  18446978.95342  14463557.14242  23955115.6704   23955126.8774
 -10529126.97746  -4083286.17345  21716232.9204   21716239.2364
  -6237321.71745  -4817483.26645  22623072.2484   22623082.4594
 -15885032.64147 -12333092.97147  20596675.9124   20596681.2324
 02  9  9 19 18 59.9980000  0  7G20G11G 2G14G 1G22G25
 -20891215.86946 -16072208.65946  20094666.1624   20094671.1074
 -13544355.50646 -10265472.46145  21747006.4984   21747012.8264
  -2277866.26745  -1622045.29444  23390340.5454   23390353.5804
  18537387.60342  14534005.23342  23972321.2254   23972329.3264
 -10580765.08846  -4123523.59845  21706406.6784   21706412.7484
  -6330348.28545  -4889971.26645  22605370.4904   22605381.8974
 -15827017.71147 -12287886.57447  20607715.9514   20607721.2954
 02  9  9 19 19 29.9980000  0  7G20G11G 2G14G 1G22G25
 -20929719.19146 -16102211.23047  20087339.2174   20087344.1154
 -13466224.92446 -10204591.63145  21761874.3894   21761880.9044
  -2354007.92045  -1681376.11844  23375851.0844   23375863.7214
  18627825.08042  14604475.84542  23989530.4984   23989541.1664
 -10632226.83246  -4163623.58645  21696613.5844   21696619.6194
  -6423218.64345  -4962337.57845  22587697.5454   22587708.7054
 -15768602.93747 -12242368.60747  20618831.9364   20618837.3264
 02  9  9 19 19 59.9980000  0  7G20G11G 2G14G 1G22G25
 -20967800.07646 -16131884.62946  20080092.5924   20080097.7134
 -13387720.07046 -10143419.16045  21776813.5144   21776820.0184
  -2430054.10245  -1740632.55644  23361380.0764   23361392.4794
  18718301.76442  14674976.93442  24006746.7874   24006753.8694
 -10683501.77046  -4203578.01745  21686856.1934   21686862.3464
  -6515918.98945  -5034571.37845  22570056.7794   22570067.1544
 -15709779.94947 -12196532.56147  20630025.6234   20630030.9324
 02  9  9 19 20 29.9980000  0  7G20G11G 2G14G 1G22G25
 -21005470.86846 -16161238.47746  20072923.9824   20072929.1274
 -13308857.90846 -10081968.27145  21791820.5224   21791826.4984
  -2506016.60745  -1799823.80344  23346923.8504   23346936.9554
  18808802.92942  14745497.15641  24023969.9514   24023983.2444
 -10734603.99946  -4243397.87745  21677131.9124   21677138.0294
  -6608460.37945  -5106681.33845  22552446.9514   22552457.0454
 -15650564.93647 -12150391.03447  20641293.8574   20641299.3184
 02  9  9 19 20 59.9980000  0  7G20G11G 2G14G 1G22G25
 -21042721.22846 -16190264.71646  20065835.5374   20065840.8574
 -13229632.73546 -10020234.51745  21806896.8894   21806902.9714
  -2581884.59745  -1858941.43844  23332486.1544   23332499.7994
  18899336.65442  14816042.73642  24041198.0764   24041206.1894
 -10785525.21246  -4283076.67945  21667441.9284   21667448.2324
  -6700831.08945  -5178658.31045  22534869.5064   22534880.1154
 -15590951.72247 -12103939.22747  20652637.8424   20652643.3144
 02  9  9 19 21 29.9980000  0  7G20G11G 2G14G 1G22G25
 -21079541.19146 -16218955.58146  20058828.7644   20058834.0374
 -13150039.52546  -9958213.98545  21822043.2174   21822049.2644
  -2657647.60445  -1917977.22644  23318069.3654   23318081.0294
  18989910.55843  14886619.63742  24058433.4984   24058445.4434
 -10836257.84746  -4322608.53845  21657787.5614   21657793.8774
  -6793019.90645  -5250493.54145  22517325.4594   22517334.9324
 -15530934.29147 -12057172.44247  20664058.8974   20664064.3114
 02  9  9 19 21 59.9980000  0  7G20G11G 2G14G 1G22G25
 -21115924.75946 -16247306.39746  20051905.2174   20051910.3734
 -13070076.62446  -9895905.38045  21837259.8814   21837266.0454
  -2733298.87045  -1976925.96044  23303673.5684   23303685.8894
  19080528.61942  14957230.89741  24075677.7014   24075690.4434
 -10886797.64046  -4361990.12445  21648170.2254   21648176.3304
  -6885019.22845  -5322181.11545  22499818.8814   22499829.0924
 -15470510.16447 -12010088.75447  20675557.0844   20675562.5684
 02  9  9 19 22 29.9980000  0  7G20G11G 2G14G 1G22G25
 -21151882.87346 -16275325.68946  20045062.6704   20045067.8504
 -12989759.89746  -9833321.07845  21852543.8574   21852549.8114
  -2808848.69545  -2035795.64644  23289296.4904   23289308.0254
  19171177.98643  15027866.57542  24092928.1934   24092939.4824
 -10937157.37646  -4401231.42945  21638587.0224   21638593.2094
  -6976838.65945  -5393728.51345  22482346.0454   22482356.9824
 -15409694.66647 -11962700.10346  20687129.6934   20687135.1544
 02  9  9 19 22 59.9980000  0  7G20G11G 2G14G 1G22G25
 -21187389.97446 -16302993.54646  20038305.9044   20038311.3184
 -12909068.46946  -9770444.80645  21867898.6864   21867904.6974
  -2884270.98345  -2094565.97744  23274943.3184   23274956.0374
  19261881.52343  15098544.55041  24110188.0144   24110199.6434
 -10987313.63546  -4440314.16445  21629042.4754   21629048.4514
  -7068451.37845  -5465114.83745  22464912.4204   22464922.2684
 -15348466.27347 -11914989.71547  20698781.2094   20698786.7754
 02  9  9 19 23 29.9980000  0  7G20G11G 2G14G 1G22G25
 -21222446.06446 -16330309.97146  20031635.1864   20031640.2604
 -12828007.23246  -9707280.36145  21883324.0454   21883330.6314
  -2959565.26945  -2153236.56745  23260615.2644   23260627.8184
  19352636.94843  15169262.92141  24127459.2094   24127468.3774
 -11037268.36746  -4479239.86345  21619536.2644   21619542.3814
  -7159855.96545  -5536338.98445  22447519.1314   22447529.0844
 -15286828.89447 -11866960.63646  20710510.4514   20710516.1004
 02  9  9 19 23 59.9980000  0  7G20G11G 2G14G 1G22G25
 -21257068.54446 -16357288.51046  20025046.3814   20025051.5374
 -12746597.88946  -9643844.67445  21898816.5224   21898822.9554
  -3034748.08445  -2211820.28544  23246308.6004   23246320.6744
  19443425.08543  15240006.75542  24144735.8814   24144746.6074
 -11087040.78146  -4518023.49145  21610064.4514   21610070.7444
  -7251068.23045  -5607413.25645  22430161.6394   22430171.8504
 -15224803.31947 -11818629.06746  20722313.5294   20722319.0724
 02  9  9 19 24 29.9980000  0  7G20G11G 2G14G 1G22G25
 -21291259.20246 -16383930.56546  20018540.2644   20018545.2684
 -12664847.33746  -9580143.10245  21914373.2014   21914379.5064
  -3109820.63645  -2270318.10144  23232022.0614   23232035.2724
  19534241.78343  15310772.82641  24162017.3734   24162027.4084
 -11136634.79946  -4556668.11645  21600627.3264   21600633.3974
  -7342088.64345  -5678338.04945  22412840.7954   22412850.9824
 -15162395.69247 -11769999.79746  20734189.5144   20734195.1044
 02  9  9 19 24 59.9980000  0  7G20G11G 2G14G 1G22G25
 -21325025.08046 -16410241.62946  20012114.6934   20012119.6044
 -12582767.13546  -9516184.67445  21929992.3574   21929998.4284
  -3184789.29145  -2328734.96844  23217756.1154   23217767.8034
  19625077.90844  15381554.08442  24179303.0924   24179312.9514
 -11186059.36846  -4595180.69645  21591222.0224   21591228.1744
  -7432922.80245  -5749117.70845  22395555.6004   22395564.6274
 -15099617.10147 -11721081.45946  20746135.9204   20746141.2754
 02  9  9 19 25 29.9980000  0  6G20G11G 2G 1G22G25
 -21358357.86446 -16436215.21446  20005771.8184   20005776.6004
 -12500353.63046  -9451966.54045  21945675.5844   21945682.2404
  -3259645.00045  -2387063.80444  23203511.0764   23203522.4124
 -11235307.87946  -4633556.09446  21581850.3114   21581856.6394
  -7523560.94745  -5819744.61845  22378307.4284   22378316.5254
 -15036463.12147 -11671870.61046  20758153.5924   20758159.0414
 02  9  9 19 25 59.9980000  0  6G20G11G 2G 1G22G25
 -21391238.05346 -16461836.13446  19999514.9674   19999519.7834
 -12417592.03746  -9387477.15745  21961424.7094   21961430.8734
  -3334367.63844  -2445288.96444  23189291.8424   23189304.3264
 -11284362.78246  -4671780.62045  21572515.8184   21572521.8074
  -7613982.14845  -5890202.46745  22361100.6934   22361109.8144
 -14972918.36447 -11622355.25946  20770245.9984   20770251.4244
 02  9  9 19 26 29.9980000  0  6G20G11G 2G 1G22G25
 -21423676.58646 -16487112.90447  19993342.0924   19993347.0614
 -12334498.09446  -9322728.79345  21977236.7174   21977242.7294
  -3408967.69944  -2503418.60944  23175095.0924   23175106.8854
 -11333237.15946  -4709864.48046  21563215.1234   21563221.1114
  -7704196.05245  -5960498.79645  22343933.3574   22343943.4164
 -14908997.54147 -11572546.86946  20782409.7254   20782415.2564
 02  9  9 19 26 59.9980000  0  6G20G11G 2G 1G22G25
 -21455680.12046 -16512050.71646  19987252.0144   19987256.9474
 -12251082.96046  -9257730.18645  21993110.4044   21993116.8734
  -3483450.68544  -2561457.04844  23160921.3574   23160933.6784
 -11381939.38346  -4747814.19746  21553947.0454   21553952.9514
  -7794207.44845  -6030637.36045  22326804.2324   22326813.9984
 -14844710.80547 -11522453.34846  20794643.1784   20794648.6624
 02  9  9 19 27 29.9980000  0  6G20G11G 2G 1G22G25
 -21487238.87546 -16536641.94646  19981246.6474   19981251.7214
 -12167341.63746  -9192477.37745  22009045.8894   22009052.5104
  -3557806.44045  -2619396.33444  23146772.6394   23146783.2604
 -11430461.61446  -4785623.65846  21544713.8574   21544719.7754
  -7884005.21245  -6100609.41645  22309716.6544   22309726.7134
 -14780052.62747 -11472070.39746  20806947.2794   20806952.8574
 02  9  9 19 27 59.9980000  0  6G20G11G 2G 1G22G25
 -21518353.80946 -16560887.33946  19975325.5684   19975330.5494
 -12083280.00346  -9126974.98345  22025042.5454   22025048.8384
  -3632035.42945  -2677236.84644  23132647.0064   23132659.0804
 -11478806.67646  -4823295.06446  21535514.2484   21535520.2724
  -7973588.90745  -6170414.69145  22292668.8344   22292679.0574
 -14715028.00847 -11421401.90446  20819321.0844   20819327.0144
 02  9  9 19 28 29.9980000  0  6G20G11G 2G 1G22G25
 -21549032.15246 -16584792.52546  19969487.6624   19969492.6314
 -11998909.68446  -9061232.05045  22041097.9984   22041104.3384
  -3706143.95345  -2734983.49944  23118543.9984   23118554.6544
 -11526983.58346  -4860835.44546  21526346.1544   21526352.4364
  -8062964.14745  -6240057.53045  22275661.5064   22275671.4474
 -14649648.06147 -11370456.53146  20831762.5064   20831768.1544
 02  9  9 19 28 59.9980000  0  6G20G11G 2G 1G22G25
 -21579260.42646 -16608347.01546  19963735.3424   19963740.1704
 -11914222.01646  -8995241.84445  22057213.4284   22057219.9434
  -3780117.75745  -2792625.19945  23104467.2484   23104479.0534
 -11574980.79046  -4898235.80646  21517212.4904   21517218.5724
  -8152115.99245  -6309526.27045  22258696.4124   22258705.4864
 -14583903.04247 -11319226.69346  20844273.3504   20844279.1154
 02  9  9 19 29 29.9980000  0  6G20G11G 2G 1G22G25
 -21609039.93346 -16631551.81146  19958068.6004   19958073.4394
 -11829223.03246  -8929009.06645  22073388.3734   22073395.3144
  -3853957.70245  -2850162.55644  23090415.7174   23090427.5684
 -11622801.67046  -4935498.76646  21508112.5844   21508118.8894
  -8241044.33045  -6378820.87245  22241773.3894   22241781.9594
 -14517798.20047 -11267716.47346  20856852.8504   20856858.2754
 02  9  9 19 29 59.9980000  0  6G20G11G 2G 1G22G25
 -21638364.07146 -16654401.77746  19952488.2954   19952493.2174
 -11743910.85646  -8862532.23145  22089622.8264   22089629.1434
  -3927656.18445  -2907589.72145  23076391.2254   23076403.2524
 -11670441.18646  -4972620.40446  21499046.9044   21499053.0684
  -8329740.90745  -6447934.88345  22224894.5454   22224903.8424
 -14451330.83947 -11215923.77246  20869501.0924   20869506.5184
 02  9  9 19 30 29.9980000  0  6G20G11G 2G 1G22G25
 -21667228.52246 -16676893.54846  19946995.6394   19947000.4904
 -11658285.86846  -8795811.64545  22105917.0064   22105923.5574
  -4001208.29645  -2964902.81645  23062394.6004   23062406.4284
 -11717896.96546  -5009598.87546  21490016.5224   21490022.7094
  -8418200.03545  -6516863.87245  22208061.3974   22208070.6824
 -14384500.50247 -11163848.23446  20882218.3654   20882224.1074
 02  9  9 19 30 59.9980000  0  6G20G11G 2G 1G22G25
 -21695644.43346 -16699035.80046  19941588.3034   19941593.2134
 -11572363.71946  -8728859.50745  22122267.5534   22122274.6824
  -4074624.36545  -3022109.90645  23048423.9364   23048435.3184
 -11765181.86146  -5046444.19846  21481018.4514   21481024.5804
  -8506430.98645  -6585615.05945  22191271.3974   22191280.6584
 -14317322.54947 -11111501.82846  20895002.1314   20895007.7444
 02  9  9 19 31 29.9980000  0  6G20G11G 2G 1G22G25
 -21723601.80946 -16720820.75646  19936267.9904   19936272.7834
 -11486139.44046  -8661671.95145  22138675.8184   22138683.0184
  -4147893.97845  -3079202.86045  23034481.1004   23034491.8614
 -11812287.93846  -5083150.17746  21472054.3114   21472060.2994
  -8594422.48345  -6654179.66145  22174526.9594   22174536.1504
 -14249790.51847 -11058879.52246  20907853.1624   20907858.9754
 02  9  9 19 31 59.9980000  0  6G20G11G 2G 1G22G25
 -21751097.84746 -16742246.22546  19931035.7564   19931040.5024
 -11399614.69345  -8594250.23245  22155140.3504   22155147.2214
  -4221013.30145  -3136178.74545  23020566.8114   23020577.5254
 -11859214.03246  -5119715.91346  21463124.8344   21463131.1274
  -8682170.20145  -6722554.31045  22157828.9824   22157837.6004
 -14181905.58247 -11005982.22746  20920771.3574   20920776.9124
 02  9  9 19 32 29.9980000  0  6G20G11G 2G 1G22G25
 -21778155.15046 -16763329.82446  19925886.9754   19925891.9204
 -11312816.66746  -8526615.60045  22171658.2794   22171664.8774
  -4294004.10345  -3193054.46545  23006676.6784   23006687.5454
 -11905984.50246  -5156160.38446  21454224.3974   21454230.5254
  -8769694.98845  -6790755.24245  22141173.5294   22141182.4984
 -14113694.29147 -10952830.62446  20933751.3574   20933757.1234
 02  9  9 19 32 59.9980000  0  6G20G11G 2G 1G22G25
 -21804762.25646 -16784062.61946  19920823.8654   19920828.9514
 -11225738.68246  -8458762.80845  22188229.0294   22188235.4754
  -4366854.16445  -3249820.50345  22992813.4984   22992824.5644
 -11952589.66046  -5192476.03846  21445355.5764   21445361.3774
  -8856984.00445  -6858772.46745  22124562.7484   22124571.2604
 -14045149.21147 -10899418.92946  20946795.2254   20946801.0254
 02  9  9 19 33 29.9980000  0  6G20G11G 2G 1G22G25
 -21830917.24646 -16804443.11546  19915846.4124   19915851.3344
 -11138383.26346  -8390693.83745  22204852.2174   22204858.8614
  -4439560.87045  -3306474.86845  22978977.8424   22978988.7684
 -11999029.39546  -5228662.80346  21436518.3574   21436524.4394
  -8944033.43945  -6926603.00245  22107997.8974   22108006.8074
 -13976271.94647 -10845748.38846  20959902.1544   20959907.9324
 02  9  9 19 33 59.9980000  0  6G20G11G 2G 1G22G25
 -21856628.67746 -16824477.98146  19910953.7644   19910958.7324
 -11050763.89046  -8322419.18345  22221525.7484   22221532.3344
  -4512131.97945  -3363023.57645  22965167.9364   22965178.1354
 -12045314.03646  -5264728.71146  21427710.5844   21427716.4084
  -9030850.44245  -6994252.41545  22091477.0374   22091485.7724
 -13907075.14247 -10791828.85946  20973070.0534   20973075.6544
 02  9  9 19 34 29.9980000  0  6G20G11G 2G 1G22G25
 -21881884.97146 -16844158.19746  19906147.7484   19906152.7294
 -10962873.92045  -8253933.67645  22238250.5224   22238258.1664
  -4584555.33445  -3419457.13545  22951386.1234   22951397.2364
 -12091433.77946  -5300666.11346  21418934.4674   21418940.4324
  -9117421.74845  -7061710.37845  22075002.3184   22075011.3934
 -13837551.05347 -10737654.29846  20986300.2094   20986306.0104
 02  9  9 19 34 59.9980000  0  6G20G11G 2G 1G22G25
 -21906706.12146 -16863499.33746  19901424.4514   19901429.2444
 -10874737.87346  -8185256.41845  22255022.1934   22255028.7794
  -4656850.02745  -3475790.42545  22937628.7724   22937639.8734
 -12137410.41846  -5336492.01746  21410185.0844   21410191.3074
  -9203765.79745  -7128991.26845  22058572.0844   22058580.7484
 -13767723.32847 -10683243.14246  20999587.8814   20999593.8224
 02  9  9 19 35 29.9980000  0  6G20G11G 2G 1G22G25
 -21931066.30746 -16882481.29146  19896788.8814   19896793.7794
 -10786334.25245  -8116370.67445  22271844.9754   22271851.7954
  -4728989.40545  -3532002.72745  22923900.3114   22923911.6934
 -12183219.75646  -5372187.55546  21401468.0224   21401474.2214
  -9289855.06145  -7196073.60445  22042189.5764   22042197.7724
 -13697569.99947 -10628578.26446  21012937.4754   21012943.2054
 02  9  9 19 35 59.9980000  0  6G20G11G 2G 1G22G25
 -21954979.44346 -16901114.89146  19892238.1544   19892243.0534
 -10697681.55446  -8047290.84745  22288715.7324   22288723.1664
  -4800986.43345  -3588104.06545  22910199.5614   22910210.6394
 -12228877.26246  -5407764.79146  21392779.8034   21392785.9554
  -9375701.75645  -7262966.93545  22025853.3034   22025862.3074
 -13627108.85147 -10573673.52746  21026345.7484   21026351.4904
 02  9  9 19 36 29.9980000  0  6G20G11G 2G 1G22G25
 -21978429.26046 -16919387.46846  19887775.8974   19887780.6664
 -10608768.35146  -7978008.02745  22305635.4204   22305642.6194
  -4872824.26845  -3644081.36745  22896528.7324   22896540.1504
 -12274368.70346  -5443212.61546  21384122.6704   21384128.8814
  -9461288.08845  -7329657.39545  22009566.3974   22009574.7564
 -13556327.40347 -10518519.21546  21039815.3574   21039821.2054
 02  9  9 19 36 59.9980000  0  6G20G11G 2G 1G22G25
 -22001415.76246 -16937299.02246  19883401.6474   19883406.4514
 -10519599.24045  -7908525.78145  22322603.4984   22322610.6744
  -4944501.71045  -3699933.71845  22882888.8034   22882899.8114
 -12319695.40946  -5478532.08346  21375496.9514   21375503.0684
  -9546612.14845  -7396143.48945  21993329.6624   21993338.1044
 -13485229.57847 -10463118.36646  21053344.4824   21053350.3894
 02  9  9 19 37 29.9980000  0  6G20G11G 2G 1G22G25
 -22023938.63846 -16954849.31246  19879115.6784   19879120.5064
 -10430178.66946  -7838847.61345  22339620.3814   22339627.3934
  -5016017.82245  -3755660.31045  22869280.2094   22869291.1934
 -12364858.93546  -5513724.39946  21366903.0454   21366909.1624
  -9631672.26545  -7462423.90845  21977143.5144   21977152.4474
 -13413819.32847 -10407474.07346  21066933.3654   21066939.1314
 02  9  9 19 37 59.9980000  0  6G20G11G 2G 1G22G25
 -22046008.11746 -16972046.30346  19874916.3424   19874921.1584
 -10340521.57145  -7768985.14245  22356681.0764   22356688.6274
  -5087382.30045  -3811268.76045  22855700.0224   22855710.9364
 -12409871.38946  -5548798.98846  21358337.4364   21358343.4244
  -9716476.98245  -7528505.31245  21961005.3894   21961013.1974
 -13342109.83347 -10351596.60146  21080579.5144   21080585.4674
 02  9  9 19 38 29.9980000  0  7G20G11G 2G13G 1G22G25
 -22067618.21346 -16988885.33446  19870803.9044   19870808.7214
 -10250626.34145  -7698937.11145  22373787.6544   22373794.6544
  -5158587.74645  -3866753.30045  22842149.5844   22842159.5964
    -12143.90751                  24087306.4904
 -12454728.17946  -5583752.27846  21349801.6314   21349807.7724
  -9801018.38345  -7594381.54245  21944917.5844   21944926.0724
 -13270099.06447 -10295484.37246  21094282.8184   21094288.7014
 02  9  9 19 38 59.9980000  0  7G20G11G 2G13G 1G22G25
 -22088771.45546 -17005368.37546  19866778.4514   19866783.4324
 -10160499.86745  -7628708.89345  22390938.3504   22390946.2994
  -5229636.06845  -3922115.40045  22828629.5374   22828640.2174
    -84999.13541                  24073439.7174
 -12499433.49546  -5618587.54146  21341294.0064   21341300.0764
  -9885297.40345  -7660053.32845  21928879.4904   21928887.5804
 -13197793.50047 -10239142.42746  21108042.1474   21108047.9944
 02  9  9 19 39 29.9980000  0  7G20G11G 2G13G 1G22G25
 -22109443.98346 -17021476.83246  19862844.6704   19862849.5684
 -10070123.27845  -7558285.76945  22408136.8034   22408144.1784
  -5300502.58345  -3977335.82345  22815143.8034   22815154.2834
   -157787.96142                  24059590.1704
 -12543965.08646  -5653287.43446  21332820.2404   21332826.3814
  -9969288.51146  -7725500.77545  21912896.5614   21912904.9084
 -13125172.98447 -10182555.07346  21121861.4904   21121867.5614
 02  9  9 19 39 59.9980000  0  7G20G11G 2G13G 1G22G25
 -22129649.39646 -17037221.30846  19858999.6474   19859004.7214
  -9979514.67845  -7487681.87045  22425379.2094   22425386.7254
  -5371199.86645  -4032424.38845  22801690.5924   22801700.5454
   -230525.07542    -35890.84852  24045748.4824   24045758.2954
 -12588338.18446  -5687863.82246  21324376.0614   21324382.1544
 -10053003.39346  -7790732.98645  21896966.1864   21896974.1474
 -13052254.57346 -10125735.59046  21135737.1154   21135743.0454
 02  9  9 19 40 29.9980000  0  7G20G11G 2G13G 1G22G25
 -22149385.98746 -17052600.46446  19855244.0684   19855248.8504
  -9888676.89145  -7416899.40745  22442665.9044   22442673.0224
  -5441725.49545  -4087379.19145  22788269.5924   22788279.5574
   -303210.68942    -92528.80441  24031917.0294   24031923.6864
 -12632552.87846  -5722316.78146  21315962.4594   21315968.4244
 -10136438.87245  -7855747.48245  21881088.8814   21881096.3144
 -12979040.94146 -10068686.06546  21149669.4364   21149675.4594
 02  9  9 19 40 59.9980000  0  7G20G11G 2G13G 1G22G25
 -22168658.75846 -17067618.20446  19851576.6074   19851581.2254
  -9797619.57045  -7345945.83745  22459992.8034   22460000.3894
  -5512083.35845  -4142203.29145  22774881.2404   22774891.8504
   -375851.27942   -149131.71542  24018092.7174   24018104.9674
 -12676615.48346  -5756651.21546  21307577.6704   21307583.7054
 -10219598.09745  -7920546.71745  21865263.6474   21865271.1744
 -12905540.46246 -10011413.02446  21163656.0764   21163662.1114
 02  9  9 19 41 29.9980000  0  7G20G11G 2G13G 1G22G25
 -22187467.06346 -17082274.02646  19847997.3504   19848002.2604
  -9706346.51845  -7274824.18645  22477361.8504   22477370.1044
  -5582271.92545  -4196895.44545  22761524.2564   22761535.2294
   -448447.73842   -205700.23742  24004278.8974   24004288.1934
 -12720527.04846  -5790867.97146  21299221.2564   21299227.3384
 -10302478.69745  -7985128.85145  21849492.1624   21849500.2754
 -12831756.13446  -9953918.80346  21177696.8574   21177702.6704
 02  9  9 19 41 59.9980000  0  7G20G11G 2G13G 1G22G25
 -22205801.67846 -17096560.73646  19844508.5294   19844513.3114
  -9614853.29445  -7203530.98345  22494772.8114   22494780.9824
  -5652281.27745  -4251447.97245  22748201.5294   22748210.7914
   -520992.25242   -262228.21342  23990475.2254   23990485.3544
 -12764279.90346  -5824961.06346  21290895.3974   21290901.5724
 -10385069.78046  -8049485.37845  21833775.2324   21833782.7604
 -12757682.31546  -9896198.99846  21191792.7794   21191798.7794
 02  9  9 19 42 29.9980000  0  7G20G11G 2G13G 1G22G25
 -22223665.51746 -17110480.61246  19841108.8264   19841113.7604
  -9523147.12845  -7132071.83845  22512223.8114   22512231.9824
  -5722113.38345  -4305862.37445  22734912.9754   22734923.1624
   -593489.16642   -318719.14741  23976680.3974   23976690.7014
 -12807878.51546  -5858933.94346  21282599.1544   21282605.2364
 -10467372.33146  -8113617.10145  21818113.7794   21818121.5534
 -12683325.66546  -9838258.81146  21205942.2324   21205948.1744
 02  9  9 19 42 59.9980000  0  7G20G11G 2G13G 1G22G25
 -22241047.60346 -17124025.09346  19837801.4284   19837806.4794
  -9431221.44745  -7060441.64945  22529716.9204   22529724.5184
  -5791756.18545  -4360129.26845  22721659.8654   22721669.8074
   -665929.19442   -375165.72442  23962894.5224   23962906.1864
 -12851313.38246  -5892779.23546  21274333.8504   21274339.8144
 -10549373.63745  -8177514.07445  21802509.2564   21802517.2524
 -12608679.09946  -9780092.71346  21220146.9124   21220152.8894
 02  9  9 19 43 29.9980000  0  7G20G11G 2G13G 1G22G25
 -22257958.37946 -17137202.31846  19834583.4284   19834588.3734
  -9339091.41145  -6988652.23045  22547248.5454   22547255.8614
  -5861219.22345  -4414256.07845  22708441.3894   22708451.2254
   -738324.26242   -431577.22842  23949116.8114   23949125.1234
 -12894596.45146  -5926506.24846  21266096.9434   21266103.0964
 -10631082.32446  -8241183.04345  21786960.6704   21786968.5374
 -12533756.82646  -9721711.78246  21234404.4284   21234410.4864
 02  9  9 19 43 59.9980000  0  7G20G11G 2G13G 1G22G25
 -22274398.01646 -17150012.42846  19831454.8504   19831459.7604
  -9246761.74845  -6916707.26845  22564819.0534   22564826.6274
  -5930501.84045  -4468242.31145  22695257.2724   22695267.4474
   -810675.90542   -487954.96742  23935348.6234   23935361.8344
 -12937729.46546  -5960116.32046  21257888.7954   21257894.7724
 -10712496.87346  -8304622.81545  21771467.4364   21771475.6194
 -12458562.49246  -9663118.85746  21248713.6074   21248719.5374
 02  9  9 19 44 29.9980000  0  7G20G11G 2G13G 1G22G25
 -22290365.78646 -17162454.84346  19828416.4754   19828421.3734
  -9154236.14345  -6844609.60545  22582425.2484   22582433.3504
  -5999602.27745  -4522086.58345  22682107.9824   22682118.3574
   -882984.74443   -544299.32242  23921588.1704   23921601.0534
 -12980713.27646  -5993610.14246  21249709.3654   21249715.3544
 -10793614.78946  -8367831.44845  21756031.6154   21756038.9674
 -12383098.83446  -9604316.06646  21263074.0534   21263079.9124
 02  9  9 19 44 59.9980000  0  7G20G11G 2G13G 1G22G25
 -22305848.68446 -17174519.43846  19825470.1864   19825474.9674
  -9061505.89945  -6772352.50245  22600072.1474   22600080.5644
  -6068506.39245  -4575777.89645  22668995.8504   22669005.3344
   -955239.29743   -600601.39342  23907838.3264   23907848.2564
 -13023536.15246  -6026978.55846  21241560.4514   21241566.4754
 -10874421.10346  -8430797.27145  21740654.1074   21740661.6114
 -12307356.69946  -9545296.28546  21277487.2724   21277493.2134
 02  9  9 19 45 29.9980000  0  7G20G11G 2G13G 1G22G25
 -22320834.03646 -17186196.33246  19822618.4824   19822623.3694
  -8968562.87645  -6699929.57545  22617758.6074   22617767.1894
  -6137200.67845  -4629305.71045  22655923.3814   22655933.1004
  -1027428.41643   -656852.44842  23894101.9364   23894111.7134
 -13066186.84046  -6060212.80046  21233444.0684   21233450.2444
 -10954901.23846  -8493508.92645  21725339.4204   21725347.4044
 -12231326.92146  -9486052.36846  21291955.1074   21291960.9204
 02  9  9 19 45 59.9980000  0  7G20G11G 2G13G 1G22G25
 -22335326.50846 -17197489.16746  19819860.7484   19819865.6824
  -8875416.49345  -6627348.20745  22635483.5064   22635492.6864
  -6205688.91545  -4682672.96045  22642890.1704   22642900.1584
  -1099558.03843   -713057.15542  23880375.8574   23880387.8854
 -13108671.46346  -6093317.65646  21225359.4904   21225365.7604
 -11035058.21346  -8555968.77545  21710085.8734   21710093.5064
 -12155017.83146  -9426590.80246  21306476.3574   21306482.1474
 02  9  9 19 46 29.9980000  0  7G20G11G 2G13G 1G22G25
 -22349330.75446 -17208401.56646  19817195.5924   19817200.5374
  -8782075.71845  -6554615.36945  22653246.4204   22653254.7914
  -6273974.49745  -4735882.29845  22629896.0764   22629905.5144
  -1171634.04844   -769220.08242  23866659.6934   23866669.2484
 -13150996.07746  -6126297.81846  21217305.5684   21217311.5454
 -11114894.71246  -8618178.89245  21694893.2954   21694901.2444
 -12078437.32646  -9366917.74546  21321049.2254   21321055.1314
 02  9  9 19 46 59.9980000  0  7G20G11G 2G13G 1G22G25
 -22362836.25846 -17218925.33846  19814625.4514   19814630.7484
  -8688534.48045  -6481726.31145  22671046.5374   22671054.7564
  -6342046.09845  -4788924.92045  22616942.3264   22616951.4244
  -1243647.65344   -825334.37143  23852956.7404   23852966.9514
 -13193151.72346  -6159146.32546  21209283.4904   21209289.3034
 -11194398.47546  -8680129.73945  21679764.3264   21679771.8074
 -12001578.79346  -9307028.04946  21335675.1544   21335681.0964
 02  9  9 19 47 29.9980000  0  7G20G11G 2G13G 1G22G25
 -22375837.63346 -17229056.28046  19812151.4754   19812156.4904
  -8594791.63745  -6408680.16845  22688885.7484   22688895.2684
  -6409897.00745  -4841795.57745  22604030.8034   22604039.8544
  -1315594.29143   -881396.47443  23839265.0064   23839274.7724
 -13235134.12946  -6191859.83746  21201294.6004   21201300.5184
 -11273562.01646  -8741815.48945  21664699.8344   21664707.3384
 -11924440.35546  -9246920.24046  21350354.0374   21350359.9674
 02  9  9 19 47 59.9980000  0  7G20G11G 2G13G 1G22G25
 -22388329.02146 -17238789.82946  19809774.3184   19809779.5454
  -8500845.80845  -6335475.86545  22706763.1544   22706771.6314
  -6477520.50246  -4894489.04445  22591162.2484   22591170.9824
  -1387469.65743   -937403.09542  23825587.2564   23825596.3074
 -13276938.97146  -6224434.99546  21193339.0224   21193345.1974
 -11352377.78846  -8803230.24745  21649701.4824   21649709.1504
 -11847019.79746  -9186592.59646  21365086.6074   21365092.5614
 02  9  9 19 48 29.9980000  0  7G20G11G 2G13G 1G22G25
 -22400325.78846 -17248137.95846  19807491.5454   19807496.6074
  -8406716.98145  -6262128.96845  22724675.4984   22724683.5884
  -6544931.02245  -4947016.55245  22578334.2874   22578343.7254
  -1459290.57943   -993367.25242  23811920.1474   23811930.6044
 -13318583.06646  -6256884.89946  21185414.3814   21185420.2994
 -11430859.28046  -8864384.52045  21634767.0534   21634774.0064
 -11769335.91346  -9126059.76346  21379869.3034   21379875.3034
 02  9  9 19 48 59.9980000  0  7G20G11G 2G13G 1G22G25
 -22411820.99246 -17257095.25446  19805304.3114   19805309.3614
  -8312402.24045  -6188637.20545  22742622.7174   22742631.4514
  -6612120.31245  -4999371.67145  22565548.3424   22565557.1704
  -1531051.39843  -1049284.57342  23798264.5294   23798275.1624
 -13360060.50746  -6289204.94046  21177521.4044   21177527.4634
 -11508997.54546  -8925271.34445  21619897.7094   21619905.2484
 -11691385.14346  -9065318.96746  21394702.9754   21394708.9754
 02  9  9 19 49 29.9980000  0  7G20G11G 2G13G 1G22G25
 -22422812.90346 -17265660.37446  19803212.4824   19803217.3464
  -8217904.57545  -6115002.89845  22760605.7564   22760614.4904
  -6679085.97846  -5051552.52845  22552805.3114   22552814.2684
  -1602752.00143  -1105154.95942  23784620.4674   23784632.2834
 -13401371.20446  -6321395.05546  21169660.3814   21169666.4164
 -11586789.24046  -8985888.11345  21605094.2794   21605102.0644
 -11613169.41546  -9004371.71646  21409586.8344   21409592.7644
 02  9  9 19 49 59.9980000  0  7G20G11G 2G13G 1G22G25
 -22433286.04046 -17273821.25846  19801219.3574   19801224.0924
  -8123212.58245  -6041217.17845  22778625.3894   22778634.9204
  -6745811.32745  -5103546.14645  22540107.3264   22540116.0144
  -1674377.62043  -1160966.94743  23770989.7484   23771000.6394
 -13442500.79146  -6353444.04646  21161833.7724   21161839.7834
 -11664216.73546  -9046221.09245  21590359.9364   21590367.4284
 -11534676.44146  -8943208.42546  21424523.6934   21424529.6234
 02  9  9 19 50 29.9980000  0  7G20G11G 2G13G 1G22G25
 -22443250.64246 -17281585.88646  19799323.5144   19799328.6004
  -8028341.19945  -5967291.65545  22796679.3264   22796688.7754
  -6812305.59045  -5155359.69445  22527453.7324   22527462.2214
  -1745939.76743  -1216729.49142  23757371.5764   23757384.5294
 -13483460.80346  -6385360.90546  21154039.2644   21154045.0884
 -11741288.35046  -9106276.76745  21575694.0764   21575701.2294
 -11455920.15946  -8881839.95246  21439510.6004   21439516.6824
 02  9  9 19 50 59.9980000  0  7G20G11G 2G13G 1G22G25
 -22452699.39346 -17288948.54746  19797525.2014   19797530.2644
  -7933287.34845  -5893223.96845  22814766.9904   22814777.0374
  -6878560.14745  -5206986.44945  22514845.6004   22514854.5334
  -1817432.65242  -1272438.07441  23743767.5684   23743777.5334
 -13524245.16346  -6417140.89846  21146278.1004   21146284.1474
 -11817994.85846  -9166047.93545  21561097.5534   21561104.9284
 -11376896.73146  -8820263.32146  21454548.2324   21454554.2444
 02  9  9 19 51 29.9980000  0  7G20G11G 2G13G 1G22G25
 -22461630.09146 -17295907.53546  19795825.8114   19795830.8384
  -7838052.72445  -5819015.42145  22832889.3344   22832898.5494
  -6944571.73145  -5258423.87745  22502284.0224   22502293.6234
  -1888855.32442  -1328091.80742  23730174.7484   23730183.8114
 -13564852.81846  -6448783.18446  21138550.9044   21138556.9984
 -11894332.09046  -9225531.36245  21546570.2954   21546577.4824
 -11297607.38546  -8758479.48846  21469636.6864   21469642.6394
 02  9  9 19 51 59.9980000  0  7G20G11G 2G13G 1G22G25
 -22470040.37846 -17302461.00746  19794225.4284   19794230.4554
  -7742639.54245  -5744667.75445  22851046.1704   22851055.8654
  -7010336.99745  -5309669.38045  22489769.3894   22489777.6434
  -1960206.43042  -1383689.87142  23716597.6864   23716612.8654
 -13605282.71446  -6480286.96946  21130857.5764   21130863.3774
 -11970295.82646  -9284723.76145  21532114.7564   21532122.3544
 -11218052.86246  -8696489.02546  21484775.1864   21484781.1044
 02  9  9 19 52 29.9980000  0  7G20G11G 2G13G 1G22G25
 -22477937.10346 -17308614.30946  19792722.6074   19792727.4244
  -7647058.78145  -5670189.49545  22869235.3264   22869245.0454
  -7075861.51445  -5360727.29045  22477300.4204   22477308.6974
  -2031493.93942  -1439238.35442  23703031.8424   23703044.4674
 -13645542.61746  -6511658.28646  21123196.2484   21123202.3424
 -12045890.82846  -9343628.82545  21517729.3654   21517736.8934
 -11138243.56846  -8634300.04046  21499962.5534   21499968.4244
 02  9  9 19 52 59.9980000  0  7G20G11G 2G13G 1G22G25
 -22485314.47946 -17314362.92246  19791318.8574   19791324.0254
  -7551309.02545  -5595579.55045  22887455.4044   22887464.9824
  -7141138.39045  -5411592.23445  22464878.1864   22464886.1234
  -2102713.37643  -1494733.83242  23689480.1704   23689493.3814
 -13685628.26546  -6542893.82146  21115567.8654   21115573.7834
 -12121109.44546  -9402240.60845  21503415.5924   21503422.9204
 -11058176.95446  -8571910.54046  21515198.8184   21515204.8544
 02  9  9 19 53 29.9980000  0  7G20G11G 2G13G 1G22G25
 -22492172.58746 -17319706.91046  19790013.8424   19790018.8114
  -7455394.68445  -5520841.36445  22905707.9284   22905717.3544
  -7206166.79246  -5462263.54145  22452504.2254   22452512.9474
  -2173865.97042  -1550177.19342  23675938.3894   23675949.5614
 -13725540.98246  -6573994.60546  21107972.9824   21107979.0414
 -12195949.89846  -9460557.72145  21489174.0144   21489181.4474
 -10977856.76946  -8509323.45646  21530483.1934   21530489.1474
 02  9  9 19 53 59.9980000  0  7G20G11G 2G13G 1G22G25
 -22498503.12546 -17324639.80746  19788808.9514   19788813.9434
  -7359311.76345  -5445971.83945  22923991.7874   22923999.8184
  -7270936.94946  -5512733.63845  22440178.4674   22440186.5804
  -2244944.32442  -1605562.69042  23662411.4594   23662422.6784
 -13765273.34046  -6604954.85546  21100412.0064   21100418.0884
 -12270401.66046  -9518571.96245  21475006.2644   21475013.5224
 -10897278.12946  -8446534.98246  21545816.9514   21545822.9984
 02  9  9 19 54 29.9980000  0  7G20G11G 2G13G 1G22G25
 -22504310.21846 -17329164.82746  19787704.1544   19787709.1234
  -7263068.67845  -5370977.49845  22942307.1394   22942316.3544
  -7335452.01146  -5563004.96345  22427901.3974   22427910.3774
  -2315954.16843  -1660894.86142  23648899.9124   23648909.2564
 -13804830.71746  -6635778.75246  21092884.6934   21092890.7524
 -12344467.13046  -9576285.20345  21460912.1314   21460919.3654
 -10816448.10846  -8383550.62946  21561198.5534   21561204.7174
 02  9  9 19 54 59.9980000  0  7G20G11G 2G13G 1G22G25
 -22509590.71246 -17333279.50546  19786699.1004   19786704.1274
  -7166665.93745  -5295858.74045  22960652.1544   22960662.8574
  -7399707.44346  -5613073.97145  22415673.9984   22415683.2134
  -2386893.14143  -1716171.76942  23635401.9434   23635411.1704
 -13844210.96746  -6666464.63046  21085390.4124   21085396.6234
 -12418140.97146  -9633693.26046  21446892.3574   21446899.6044
 -10735367.01746  -8320370.63646  21576627.9904   21576633.9084
 02  9  9 19 55 29.9980000  0  7G20G11G 2G13G 1G22G25
 -22514337.88446 -17336978.61646  19785796.1704   19785801.0924
  -7070101.73045  -5220614.17745  22979027.8424   22979036.5414
  -7463695.71346  -5662934.80045  22403497.4434   22403505.6154
  -2457755.66343  -1771389.13343  23621915.6864   23621925.9434
 -13883408.62746  -6697008.22546  21077931.5844   21077937.6074
 -12491414.52346  -9690789.41745  21432948.5844   21432955.6074
 -10654031.24646  -8256992.19446  21592105.5374   21592111.4434
 02  9  9 19 55 59.9980000  0  7G20G11G 2G13G 1G22G25
 -22518554.76046 -17340264.51046  19784993.2404   19784998.2094
  -6973382.84945  -5145249.10045  22997433.1864   22997442.9044
  -7527418.64346  -5712588.86945  22391371.1864   22391379.8264
  -2528546.00043  -1826550.26442  23608444.9044   23608454.7054
 -13922427.89746  -6727412.81746  21070506.3974   21070512.4904
 -12564289.00246  -9747574.60645  21419080.9044   21419087.4434
 -10572447.43746  -8193420.47346  21607630.4674   21607636.2914
 02  9  9 19 56 29.9980000  0  7G20G11G 2G13G 1G22G25
 -22522248.64246 -17343142.88046  19784290.7484   19784295.5764
  -6876520.43445  -5069772.17745  23015865.6784   23015874.7054
  -7590881.82046  -5762040.53345  22379294.0144   22379302.6194
  -2599272.06743  -1881661.31843  23594985.3424   23594994.6154
 -13961276.67746  -6757684.56146  21063113.6784   21063119.5964
 -12636769.08246  -9804052.46845  21405288.3894   21405294.9284
 -10490625.53846  -8129663.23446  21623200.6704   21623206.5764
 02  9  9 19 56 59.9980000  0  7G20G11G 2G13G 1G22G25
 -22525410.91646 -17345607.00446  19783688.7094   19783693.7134
  -6779510.38845  -4994180.20945  23034326.8264   23034337.2604
  -7654075.93546  -5811282.54645  22367269.1154   22367277.8854
  -2669926.55844  -1936716.56043  23581541.6004   23581550.7684
 -13999947.72746  -6787817.81246  21055754.7644   21055760.7524
 -12708844.70346  -9860215.17745  21391572.3574   21391579.4394
 -10408560.67846  -8065716.67846  21638817.2484   21638823.1314
 02  9  9 19 57 29.9980000  0  7G20G11G 2G13G 1G22G25
 -22528038.11646 -17347654.19346  19783188.8654   19783193.8934
  -6682353.37145  -4918473.72545  23052814.7644   23052824.1784
  -7716996.17846  -5860311.14745  22355295.3424   22355303.7724
  -2740507.05643  -1991714.18443  23568110.7644   23568118.9364
 -14038438.67046  -6817810.72946  21048430.3574   21048436.2994
 -12780510.24646  -9916058.33945  21377935.1074   21377941.9514
 -10326252.83646  -8001580.78446  21654479.7564   21654486.0144
 02  9  9 19 57 59.9980000  0  7G20G11G 2G13G 1G22G25
 -22530111.46046 -17349269.80546  19782794.4514   19782799.4674
  -6585034.56245  -4842641.17844  23071333.5684   23071344.4004
  -7779622.41846  -5909110.65445  22343378.3654   22343385.9634
  -2810995.58743  -2046640.12843  23554695.5224   23554703.5884
 -14076731.55946  -6847649.30946  21041143.4204   21041149.4674
 -12851744.72946  -9971565.61845  21364379.5844   21364386.6194
 -10243685.82946  -7937242.94346  21670192.0454   21670198.0804
 02  9  9 19 58 29.9980000  0  7G20G11G 2G13G 1G22G25
 -22531641.01046 -17350461.68146  19782503.5064   19782508.3694
  -6487568.20645  -4766693.63744  23089880.6474   23089891.4674
  -7841963.50746  -5957687.96945  22331514.5684   22331522.7404
  -2881403.38443  -2101503.15742  23541298.2484   23541308.2134
 -14114837.39946  -6877342.13846  21033891.8894   21033898.0534
 -12922556.32946 -10026743.38046  21350904.5294   21350911.3894
 -10160873.09946  -7872713.62846  21685950.9984   21685956.9984
 02  9  9 19 58 59.9980000  0  7G20G11G 2G13G 1G22G25
 -22532631.93746 -17351233.84646  19782314.9044   19782319.7324
  -6389963.47645  -4690638.29544  23108455.3504   23108467.0494
  -7904023.46446  -6006046.22845  22319704.9364   22319713.0024
  -2951736.37943  -2156308.00942  23527913.1394   23527923.4434
 -14152762.22246  -6906893.91446  21026675.1394   21026681.1864
 -12992947.91846 -10081593.85246  21337509.2724   21337516.1434
 -10077823.01946  -7807999.37546  21701755.0294   21701760.9474
 02  9  9 19 59 29.9980000  0  7G20G11G 2G13G 1G22G25
 -22533079.81946 -17351582.86446  19782229.5924   19782234.4084
  -6292220.16045  -4614474.96144  23127055.1154   23127064.6114
  -7965796.87346  -6054181.19945  22307949.8114   22307958.2054
  -3021991.39744  -2211051.93943  23514545.4904   23514556.4754
 -14190502.85046  -6936302.16746  21019493.2954   21019499.2954
 -13062913.22346 -10136112.17546  21324195.1704   21324201.6744
  -9994534.26146  -7743099.13246  21717603.9364   21717609.9714
 02  9  9 19 59 59.9980000  0  7G20G11G 2G13G 1G22G25
 -22532983.62446 -17351507.92246  19782247.6624   19782252.6544
  -6194340.81145  -4538205.61944  23145681.1234   23145691.4044
  -8027280.94546  -6102090.72645  22296249.4824   22296258.2524
  -3092167.94544  -2265734.80243  23501192.1154   23501203.0184
 -14228058.83046  -6965566.54546  21012346.6544   21012352.7604
 -13132449.00646 -10190295.80746  21310962.9124   21310969.6504
  -9911008.78746  -7678014.43346  21733498.7094   21733504.7094
 02  9  9 20  0 29.9980000  0  7G20G11G 2G13G 1G22G25
 -22532332.69746 -17351000.73146  19782371.8034   19782376.7254
  -6096319.25845  -4461825.48444  23164334.1394   23164344.4904
  -8088463.87546  -6149765.59145  22284606.5684   22284615.1394
  -3162256.29943  -2320348.97243  23487852.3114   23487863.1434
 -14265420.39346  -6994679.42346  21005236.8424   21005242.7014
 -13201542.54446 -10244134.82346  21297814.8114   21297821.5144
  -9827239.10546  -7612739.44346  21749439.7724   21749445.9474
 02  9  9 20  0 59.9980000  0  7G20G11G 2G13G 1G22G25
 -22531142.83446 -17350073.57946  19782598.1474   19782603.0924
  -5998175.24945  -4385349.92544  23183009.9364   23183019.0574
  -8149360.39546  -6197217.28545  22273018.0844   22273026.1864
  -3232273.19044  -2374907.43743  23474530.0224   23474539.5644
 -14302604.27946  -7023653.84846  20998160.8424   20998166.8654
 -13270207.72446 -10297640.06346  21284747.9434   21284754.7294
  -9743244.27146  -7547289.00746  21765423.4754   21765429.4634
 02  9  9 20  1 29.9980000  0  7G20G11G 2G13G 1G22G25
 -22529399.18246 -17348714.91646  19782929.9594   19782934.7754
  -5899897.77345  -4308770.36044  23201712.5534   23201722.2834
  -8209954.30246  -6244433.17045  22261487.5684   22261495.2014
  -3302204.76044  -2429399.37943  23461221.7564   23461231.6044
 -14339596.55246  -7052478.97346  20991121.1864   20991127.2684
 -13338427.44646 -10350798.20046  21271766.6704   21271772.9754
  -9659012.22846  -7481653.73946  21781452.3974   21781458.5024
 02  9  9 20  1 59.9980000  0  7G20G11G 2G13G 1G22G25
 -22527105.04046 -17346927.29746  19783366.8344   19783372.0494
  -5801493.77045  -4232092.22144  23220439.2094   23220449.2564
  -8270247.32946  -6291414.61645  22250014.3654   22250022.6194
  -3372054.83044  -2483827.84743  23447929.3114   23447938.7134
 -14376401.18946  -7081157.87446  20984118.0294   20984124.0184
 -13406202.74746 -10403610.02346  21258869.3034   21258875.8304
  -9574549.06046  -7415838.37546  21797525.0534   21797530.9824
 02  9  9 20  2 29.9980000  0  7G20G11G 2G13G 1G22G25
 -22524267.47746 -17344716.23346  19783906.3424   19783911.3814
  -5702974.40445  -4155324.19044  23239186.9824   23239196.9824
  -8330245.24946  -6338166.12645  22238596.5684   22238604.3424
  -3441831.37944  -2538199.00543  23434651.9754   23434662.2564
 -14413026.15446  -7109696.78946  20977148.1934   20977154.2294
 -13473538.65046 -10456079.46446  21246055.5224   21246062.1784
  -9489864.80246  -7349850.72546  21813639.9904   21813645.9554
 02  9  9 20  2 59.9980000  0  7G20G11G 2G13G 1G22G25
 -22520892.63446 -17342086.50246  19784548.8034   19784554.1004
  -5604349.89145  -4078474.23044  23257954.3504   23257965.5804
  -8389953.03546  -6384691.53145  22227234.5374   22227242.9554
  -3511541.58444  -2592518.51943  23421384.9904   23421394.3814
 -14449478.40346  -7138101.11646  20970211.5924   20970217.6044
 -13540439.39546 -10508209.82246  21233324.7094   21233331.4594
  -9404969.08646  -7283698.31746  21829795.4984   21829801.4394
 02  9  9 20  3 29.9980000  0  7G20G11G 2G13G 1G22G25
 -22516974.47146 -17339033.40946  19785294.3574   19785299.5144
  -5505618.00945  -4001540.58944  23276742.4364   23276752.9514
  -8449363.09346  -6430984.96145  22215929.5144   22215937.5684
  -3581179.89843  -2646782.00343  23408132.9514   23408142.5764
 -14485752.51846  -7166366.63746  20963308.7724   20963314.8184
 -13606896.60046 -10559994.56746  21220678.1474   21220684.9084
  -9319858.70546  -7217378.62246  21845991.3734   21845997.3384
 02  9  9 20  3 59.9980000  0  7G20G11G 2G13G 1G22G25
 -22512524.18446 -17335565.67946  19786141.4754   19786146.6074
  -5406793.86245  -3924535.08944  23295548.5064   23295559.3504
  -8508485.55346  -6477054.27645  22204678.5924   22204686.6584
  -3650758.58044  -2700998.96843  23394893.4824   23394901.5254
 -14521860.65646  -7194502.82446  20956437.5374   20956443.4324
 -13672919.48946 -10611440.87546  21208114.4124   21208121.1864
  -9234547.82646  -7150902.70446  21862225.4204   21862231.5494
 02  9  9 20  4 29.9980000  0  7G20G11G 2G13G 1G22G25
 -22507527.28446 -17331672.00946  19787092.2874   19787097.1504
  -5307866.55645  -3847449.20444  23314373.7564   23314383.9554
  -8567304.25446  -6522886.90345  22193485.7954   22193493.1704
  -3720263.50344  -2755158.50743  23381668.0534   23381675.3464
 -14557788.74546  -7222498.70446  20949600.8734   20949606.9324
 -13738491.20746 -10662535.63446  21195636.5294   21195642.8464
  -9149024.61046  -7084261.31646  21878500.0684   21878506.1974
 02  9  9 20  4 59.9980000  0  7G20G11G 2G13G 1G22G25
 -22501978.45946 -17327348.27346  19788148.0534   19788153.2564
  -5208834.62045  -3770281.77344  23333219.7254   23333229.2444
  -8625812.63946  -6568477.72545  22182351.6234   22182359.5494
  -3789690.18744  -2809257.06043  23368455.9044   23368463.5144
 -14593532.23746  -7250350.73746  20942798.9284   20942805.1864
 -13803604.45546 -10713273.13546  21183245.7874   21183252.0454
  -9063286.84046  -7017452.76146  21894815.4904   21894821.4204
 02  9  9 20  5 29.9980000  0  7G20G11G 2G13G 1G22G25
 -22495900.81946 -17322612.46546  19789304.6544   19789309.8694
  -5109725.19445  -3693053.96744  23352079.2644   23352090.1434
  -8684032.40646  -6613843.66445  22171272.6934   22171280.5494
  -3859062.54943  -2863313.33343  23355253.4984   23355263.8034
 -14629114.95646  -7278077.51446  20936027.8504   20936033.9434
 -13868279.97946 -10763669.56146  21170938.3424   21170944.8814
  -8977360.12546  -6950496.97646  21911166.8344   21911172.8934
 02  9  9 20  5 59.9980000  0  7G20G11G 2G13G 1G22G25
 -22489285.65846 -17317457.82446  19790563.4594   19790568.6744
  -5010533.27545  -3615761.90645  23370955.1004   23370965.7214
  -8741953.70146  -6658977.01945  22160250.7724   22160258.2874
  -3928372.22943  -2917320.69343  23342064.7794   23342072.4474
 -14664528.94246  -7305672.79346  20929288.8504   20929294.8264
 -13932507.25746 -10813716.69946  21158716.2404   21158722.5924
  -8891238.82646  -6883389.55246  21927555.1704   21927561.5574
 02  9  9 20  6 29.9980000  0  7G20G11G 2G13G 1G22G25
 -22482124.75846 -17311877.92446  19791926.2484   19791931.5574
  -4911254.59045  -3538402.19044  23389847.5454   23389858.1784
  -8799566.85646  -6703870.26745  22149287.2484   22149294.3304
  -3997611.83043  -2971273.48943  23328886.9124   23328895.2724
 -14699766.58746  -7333130.66746  20922583.2174   20922589.0644
 -13996275.72046 -10863406.32446  21146581.4044   21146587.9794
  -8804917.30846  -6816126.11646  21943981.5294   21943987.5534
 02  9  9 20  6 59.9980000  0  7G20G11G 2G13G 1G22G25
 -22474425.74246 -17305878.72046  19793391.0844   19793396.4044
  -4811900.21545  -3460983.55644  23408754.0684   23408764.4434
  -8856878.06846  -6748528.24145  22138381.2324   22138388.5844
  -4066789.72543  -3025178.20143  23315724.2724   23315731.9634
 -14734836.10246  -7360457.52346  20915909.7794   20915916.0024
 -14059590.84946 -10912742.70246  21134532.9284   21134539.1154
  -8718406.45346  -6748715.15746  21960444.1934   21960450.0534
 02  9  9 20  7 29.9980000  0  7G20G11G 2G13G 1G22G25
 -22466188.01746 -17299459.73946  19794958.8184   19794964.0924
  -4712473.15745  -3383508.26444  23427674.7874   23427688.0104
  -8913884.94946  -6792949.07245  22127532.9594   22127540.3694
  -4135905.57943  -3079034.55243  23302572.2324   23302581.7644
 -14769737.14246  -7387653.11146  20909268.2644   20909274.2404
 -14122449.65046 -10961723.49946  21122571.0614   21122577.6934
  -8631708.27346  -6681158.22046  21976942.6004   21976948.6004
 02  9  9 20  7 59.9980000  0  7G20G11G 2G13G 1G22G25
 -22457403.70146 -17292614.84046  19796630.4594   19796635.8144
  -4612969.38745  -3305973.20144  23446611.1154   23446622.5684
  -8970578.54946  -6837125.78945  22116744.4594   22116752.1744
  -4204952.39943  -3132837.09543  23289433.1624   23289441.6394
 -14804462.67146  -7414711.93346  20902660.4674   20902666.4084
 -14184842.31946 -11010341.08546  21110698.0684   21110704.3504
  -8544817.47346  -6613451.18746  21993477.2644   21993483.5104
 02  9  9 20  8 29.9980000  0  7G20G11G 2G13G 1G22G25
 -22448080.54846 -17285350.07046  19798404.4284   19798409.7604
  -4513400.30445  -3228387.23844  23465558.1394   23465570.4004
  -9026965.17846  -6881063.30845  22106014.5454   22106021.5924
  -4273938.35844  -3186592.23543  23276305.5924   23276314.6664
 -14839020.85946  -7441640.35946  20896084.0374   20896090.1434
 -14246774.45846 -11058599.80346  21098912.9594   21098919.2054
  -8457744.66846  -6545602.33346  22010046.8034   22010052.7564
 02  9  9 20  8 59.9980000  0  7G20G11G 2G13G 1G22G25
 -22438214.47546 -17277662.24146  19800282.2404   19800287.5844
  -4413765.53045  -3150750.08643  23484517.4514   23484527.7094
  -9083039.24446  -6924757.27245  22095343.9984   22095351.4084
  -4342859.99144  -3240297.26843  23263190.8114   23263199.8614
 -14873408.07646  -7468435.55646  20889540.2954   20889546.3184
 -14308239.52746 -11106494.58446  21087216.3114   21087222.5334
  -8370488.21246  -6477610.37546  22026651.1234   22026657.1234
 02  9  9 20  9 29.9980000  0  7G20G11G 2G13G 1G22G25
 -22427805.84546 -17269551.64846  19802262.9044   19802268.0844
  -4314068.83845  -3073064.72644  23503489.9904   23503502.1824
  -9138799.43946  -6968206.66945  22084732.9364   22084740.8504
  -4411717.84044  -3293952.53543  23250086.2794   23250094.5574
 -14907625.02746  -7495098.08546  20883028.8734   20883034.7684
 -14369235.72746 -11154024.01546  21075609.0064   21075615.4284
  -8283051.31146  -6409477.82646  22043290.1234   22043296.1474
 02  9  9 20  9 59.9980000  0  7G20G11G 2G13G 1G22G25
 -22416851.56846 -17261015.87446  19804347.2954   19804352.4514
  -4214310.92145  -2995331.63843  23522473.7564   23522485.3034
  -9194241.42946  -7011408.11145  22074182.5224   22074189.7324
  -4480509.53544  -3347556.31443  23236994.1394   23237002.3814
 -14941669.39946  -7521626.13846  20876550.5374   20876556.6544
 -14429757.95346 -11201184.11346  21064092.1154   21064098.1974
  -8195433.59246  -6341204.34946  22059963.0374   22059969.0254
 02  9  9 20 10 29.9980000  0  7G20G11G 2G13G 1G22G25
 -22405353.66946 -17252056.49846  19806535.1624   19806540.4124
  -4114497.33444  -2917555.14343  23541466.9364   23541479.3504
  -9249365.78446  -7054362.05845  22063692.5924   22063699.3544
  -4549237.77944  -3401110.62443  23223917.9904   23223927.0644
 -14975543.44546  -7548021.47046  20870104.5294   20870110.5644
 -14489805.76146 -11247974.53446  21052665.2644   21052671.5224
  -8107639.61946  -6272793.56246  22076670.1004   22076676.2054
 02  9  9 20 10 59.9980000  0  7G20G11G 2G13G 1G22G25
 -22393314.61246 -17242675.44446  19808826.4124   19808831.5924
  -4014634.23944  -2839740.14743  23560471.0924   23560483.5764
  -9304173.14446  -7097068.98345  22053262.9284   22053270.5024
  -4617905.04644  -3454617.45644  23210849.4594   23210858.5804
 -15009249.94646  -7574286.24846  20863690.2014   20863696.1894
 -14549379.36846 -11294395.44746  21041328.5374   21041334.5024
  -8019674.52446  -6204249.41246  22093409.3344   22093415.4284
 02  9  9 20 11 29.9980000  0  7G20G11G 2G13G 1G22G25
 -22380723.79546 -17232864.44446  19811222.2724   19811227.3934
  -3914714.22444  -2761880.74843  23579485.8264   23579498.9554
  -9358651.58546  -7139519.61145  22042896.2404   22042903.7914
  -4686501.34945  -3508068.92043  23197796.1934   23197805.4554
 -15042779.10146  -7600412.83646  20857309.8814   20857315.7294
 -14608466.23346 -11340437.09046  21030084.5684   21030091.0724
  -7931530.21646  -6135565.62446  22110182.5144   22110188.8424
 02  9  9 20 11 59.9980000  0  8G20G11G 2G13G 1G22G25G 4
 -22367595.40846 -17222634.56046  19813720.5844   19813726.0574
  -3814754.98244  -2683990.78343  23598506.8574   23598519.1544
  -9412813.83846  -7181723.86746  22032589.2094   22032596.5024
  -4755041.19845  -3561476.41244  23184754.5684   23184763.0334
 -15076145.14746  -7626412.33046  20850960.5454   20850966.6154
 -14667078.10346 -11386108.60346  21018931.0064   21018937.3934
  -7843223.36546  -6066755.17946  22126986.8734   22126992.9554
    -23867.65153                  24193733.5684
 02  9  9 20 12 29.9980000  0  8G20G11G 2G13G 1G22G25G 4
 -22353917.48746 -17211976.47046  19816323.3034   19816328.7874
  -3714748.42244  -2606063.95943  23617538.8114   23617553.4284
  -9466646.86046  -7223671.58846  22022345.1394   22022352.7364
  -4823513.33745  -3614831.17343  23171723.8034   23171731.2484
 -15109336.79646  -7652275.92646  20844644.2724   20844650.2254
 -14725201.30646 -11431399.34446  21007870.5844   21007876.8184
  -7754745.03046  -5997811.11346  22143823.6784   22143829.5254
    -65617.59043                  24185788.0924
 02  9  9 20 12 59.9980000  0  8G20G11G 2G13G 1G22G25G 4
 -22339687.99046 -17200888.57546  19819031.2324   19819036.4124
  -3614695.72744  -2528101.17043  23636578.5144   23636589.7794
  -9520146.38146  -7265359.42246  22012164.5224   22012172.4124
  -4891915.74445  -3668131.57444  23158707.5844   23158716.5414
 -15142351.70446  -7678001.80946  20838361.6314   20838367.6074
 -14782830.81546 -11476305.37846  20996904.2094   20996910.2564
  -7666094.98746  -5928733.25046  22160693.3574   22160699.3814
   -106891.29243    -20326.07852  24177933.7094   24177941.1894
 02  9  9 20 13 29.9980000  0  8G20G11G 2G13G 1G22G25G 4
 -22324922.25946 -17189382.83946  19821840.9824   19821846.3144
  -3514615.56344  -2450117.00243  23655622.8574   23655632.1664
  -9573326.44846  -7306798.34246  22002044.6934   22002052.2214
  -4960263.98145  -3721389.75944  23145701.1704   23145709.7644
 -15175205.72546  -7703602.32246  20832109.9044   20832115.9754
 -14839979.92746 -11520837.07246  20986028.8734   20986035.1544
  -7577291.23446  -5859535.61645  22177592.0764   22177598.2294
   -147703.41042    -52127.73742  24170166.0294   24170174.4004
 02  9  9 20 13 59.9980000  0  8G20G11G 2G13G 1G22G25G 4
 -22309616.31746 -17177456.16146  19824753.6864   19824759.2054
  -3414507.52044  -2372111.13343  23674673.4204   23674686.3614
  -9626181.41246  -7347983.93546  21991986.3344   21991992.8144
  -5028554.31345  -3774602.84344  23132706.8734   23132714.7644
 -15207895.03946  -7729074.49646  20825889.2724   20825895.2604
 -14896642.54146 -11564989.69546  20975246.3424   20975252.4944
  -7488332.15446  -5790216.94145  22194520.4984   22194526.6624
   -188048.92444    -83565.78042  24162491.6624   24162501.0414
 02  9  9 20 14 29.9980000  0  8G20G11G 2G13G 1G22G25G 4
 -22293767.50646 -17165106.46546  19827769.6004   19827774.9324
  -3314372.05244  -2294083.85742  23693728.5764   23693742.2564
  -9678706.92746  -7388912.81046  21981990.9984   21981997.7954
  -5096784.57445  -3827769.09144  23119722.2644   23119731.1744
 -15240417.26046  -7754416.46046  20819700.6004   20819706.6704
 -14952813.60246 -11608759.28046  20964557.3574   20964563.3934
  -7399217.44046  -5720777.00745  22211478.7014   22211484.7254
   -227924.48443   -114637.69542  24154903.5224   24154914.0374
 02  9  9 20 14 59.9980000  0  8G20G11G 2G13G 1G22G25G 4
 -22277385.86146 -17152341.57446  19830886.8184   19830892.1744
  -3214222.92543  -2216045.93943  23712786.1544   23712801.8734
  -9730911.79446  -7429591.83646  21972056.5374   21972063.2174
  -5164964.84145  -3880896.39145  23106747.5534   23106756.0884
 -15272782.88346  -7779636.39746  20813541.3504   20813547.3384
 -15008501.03846 -11652152.01346  20953960.3894   20953966.6934
  -7309960.12646  -5651225.94146  22228463.8574   22228469.8464
   -267338.98042   -145350.31842  24147399.5534   24147407.9364
 02  9  9 20 15 29.9980000  0  8G20G11G 2G13G 1G22G25G 4
 -22260458.62546 -17139151.55046  19834108.0534   19834113.4434
  -3114050.52743  -2137989.89442  23731848.6074   23731862.1704
  -9782781.54846  -7470009.73746  21962186.3424   21962193.5534
  -5233082.90545  -3933975.22044  23093784.2794   23093793.8814
 -15304979.32346  -7804724.50546  20807414.5684   20807420.3814
 -15063689.81146 -11695156.16946  20943458.2094   20943464.4434
  -7220549.36746  -5581555.31645  22245478.3114   22245484.2524
   -306279.15643   -175693.31742  24139992.8114   24140002.0024
 02  9  9 20 15 59.9980000  0  8G20G11G 2G13G 1G22G25G 4
 -22242991.28346 -17125540.66346  19837432.0764   19837437.5024
  -3013863.34444  -2059922.33643  23750913.9674   23750926.2754
  -9834319.92246  -7510169.42846  21952378.8344   21952386.2794
  -5301144.21145  -3987009.79744  23080831.0294   23080839.4944
 -15337011.93546  -7829684.95946  20801319.0224   20801324.9514
 -15118383.02246 -11737774.17746  20933050.2484   20933056.5414
  -7130992.70046  -5511771.00345  22262520.1864   22262526.2444
   -344749.26243   -205670.03142  24132673.1864   24132683.0224
 02  9  9 20 16 29.9980000  0  8G20G11G 2G13G 1G22G25G 4
 -22224974.95846 -17111501.99846  19840860.5374   19840865.9394
  -2913656.21244  -1981839.23043  23769984.0844   23769994.8814
  -9885516.66546  -7550062.90746  21942636.3894   21942643.6354
  -5369140.04445  -4039993.39244  23067893.8034   23067901.5064
 -15368872.25346  -7854511.15146  20795256.3974   20795262.2794
 -15172569.68146 -11779997.47646  20922738.8574   20922744.8934
  -7041283.77346  -5441868.05045  22279591.3344   22279597.4044
   -382739.54842   -235272.81142  24125440.1234   24125450.6624
 02  9  9 20 16 59.9980000  0  8G20G11G 2G13G 1G22G25G 4
 -22206412.27246 -17097037.60246  19844392.8734   19844398.3934
  -2813434.94744  -1903745.10343  23789055.1624   23789068.4324
  -9936372.67546  -7589690.87146  21932958.4434   21932965.3734
  -5437073.14945  -4092928.11744  23054967.0764   23054974.7094
 -15400562.95047  -7879205.17046  20789225.8424   20789231.7954
 -15226250.06346 -11821826.27046  20912523.9674   20912530.0024
  -6951427.77446  -5371850.48045  22296690.7014   22296696.7604
   -420251.80543   -264503.14642  24118305.1004   24118311.5334
 02  9  9 20 17 29.9980000  0  8G20G11G 2G13G 1G22G25G 4
 -22187308.84046 -17082151.84146  19848028.1394   19848033.7524
  -2713208.16744  -1825646.70942  23808127.7254   23808139.5294
  -9986891.92546  -7629056.42546  21923344.7954   21923351.4864
  -5504949.23945  -4145818.38344  23042050.0764   23042059.4554
 -15432089.69946  -7903771.43446  20783226.6004   20783232.4004
 -15279427.42546 -11863263.11446  20902404.5224   20902410.6624
  -6861432.62546  -5301724.48645  22313816.1704   22313822.5924
   -457290.75142   -293364.65242  24111254.4434   24111263.8574
 02  9  9 20 17 59.9980000  0  8G20G11G 2G13G 1G22G25G 4
 -22167659.55146 -17066840.73846  19851767.1784   19851772.8854
  -2612974.08044  -1747542.58642  23827202.4984   23827215.1114
 -10037067.67146  -7668154.32046  21913796.4904   21913803.5144
  -5572763.49044  -4198660.51344  23029143.7874   23029151.6194
 -15463447.33046  -7928205.91546  20777258.9904   20777265.1544
 -15332094.53846 -11904302.35646  20892382.0924   20892388.1624
  -6771295.08746  -5231487.55745  22330968.7174   22330974.9514
   -493850.20443   -321852.52442  24104299.2564   24104309.1394
 02  9  9 20 18 29.9980000  0  8G20G11G 2G13G 1G22G25G 4
 -22147462.64446 -17051102.91946  19855610.5844   19855616.1624
  -2512734.09143  -1669433.90543  23846276.9754   23846289.4824
 -10086896.64646  -7706982.01846  21904314.4824   21904321.5764
  -5640514.17344  -4251453.08144  23016251.1474   23016260.0454
 -15494634.15846  -7952507.31846  20771324.5294   20771330.5414
 -15384247.15546 -11944940.70246  20882457.7094   20882463.8144
  -6681015.78146  -5161140.14145  22348148.2954   22348154.2014
   -529927.71643   -349964.92942  24097432.5684   24097438.8974
 02  9  9 20 18 59.9980000  0  8G20G11G 2G13G 1G22G25G 4
 -22126721.74846 -17034941.21146  19859557.7794   19859563.2404
  -2412495.08743  -1591326.00542  23865352.2724   23865368.6004
 -10136380.89646  -7745541.08446  21894898.1624   21894905.2094
  -5708204.76445  -4304198.82544  23003371.1784   23003379.4794
 -15525653.89446  -7976678.50746  20765421.6074   20765427.3974
 -15435886.96746 -11985179.45146  20872630.9904   20872637.0724
  -6590600.80146  -5090687.01445  22365353.8574   22365359.9754
   -565525.77643   -377703.64142  24090659.1234   24090672.7444
 02  9  9 20 19 29.9980000  0  8G20G11G 2G13G 1G22G25G 4
 -22105435.64646 -17018354.67146  19863608.1474   19863613.5724
  -2312258.91343  -1513220.24743  23884426.4364   23884439.8694
 -10185517.38846  -7783829.16146  21885547.7254   21885554.4284
  -5775834.20445  -4356896.94844  22990500.9204   22990508.7754
 -15556505.17246  -8000718.43546  20759550.5924   20759556.3934
 -15487010.29446 -12025015.73946  20862902.5844   20862908.6194
  -6500050.56946  -5020128.49745  22382585.3894   22382591.4824
   -600642.46544   -405067.30042  24083978.4984   24083990.4204
 02  9  9 20 19 59.9980000  0  8G20G11G 2G13G 1G22G25G 4
 -22083602.71446 -17001342.02946  19867762.7724   19867768.4204
  -2212026.82044  -1435117.73743  23903501.2174   23903513.7834
 -10234302.69846  -7821843.60746  21876264.0534   21876270.6974
  -5843400.76145  -4409546.03344  22977643.1314   22977650.4594
 -15587186.21646  -8024625.71046  20753712.3974   20753718.3854
 -15537612.85046 -12064446.23846  20853273.2324   20853279.1864
  -6409365.43546  -4949464.86045  22399841.9364   22399848.0294
   -635274.90043   -432053.64442  24077385.9754   24077395.7294
 02  9  9 20 20 29.9980000  0  8G20G11G 2G13G 1G22G25G 4
 -22061223.24146 -16983903.51046  19872021.4754   19872026.9004
  -2111802.34844  -1357021.12143  23922574.2954   23922588.9244
 -10282735.73846  -7859583.54446  21867047.4594   21867054.1044
  -5910904.95845  -4462146.56844  22964797.1474   22964805.2364
 -15617697.55146  -8048400.75046  20747905.9824   20747912.1234
 -15587693.07446 -12103469.72746  20843742.8504   20843749.0374
  -6318548.51646  -4878698.52845  22417124.0224   22417130.2914
   -669422.79843   -458662.38442  24070887.3894   24070894.1974
 02  9  9 20 20 59.9980000  0  8G20G11G 2G13G 1G22G25G 4
 -22038282.86746 -16966027.92946  19876386.9284   19876392.5414
  -2011574.19644  -1278921.67443  23941646.7014   23941662.1864
 -10330800.32446  -7897036.37246  21857900.7794   21857907.5294
  -5978332.09445  -4514687.03544  22951966.0224   22951974.9554
 -15648024.53846  -8072032.14446  20742134.9364   20742140.8074
 -15637234.00346 -12142072.98546  20834315.6934   20834321.8224
  -6227586.94746  -4807819.49245  22434433.5374   22434439.4554
   -703070.59643   -484881.45842  24064485.8184   24064491.5724
 02  9  9 20 21 29.9980000  0  8G20G11G 2G13G 1G22G25G 4
 -22014801.93646 -16947731.12646  19880855.3974   19880860.8464
  -1911365.50644  -1200837.35243  23960715.4044   23960729.9634
 -10378514.97746  -7934216.53646  21848821.1234   21848827.8504
  -6045702.12245  -4567183.03644  22939147.2564   22939155.2874
 -15678187.33146  -8095535.58646  20736395.4984   20736401.4164
 -15686253.73846 -12180270.11846  20824987.6004   20824993.8934
  -6136503.03246  -4736845.11945  22451766.1864   22451772.4324
   -736237.86542   -510726.09041  24058173.8344   24058180.8224
 02  9  9 20 21 59.9980000  0  8G20G11G 2G13G 1G22G25G 4
 -21990763.43046 -16928999.85746  19885429.7564   19885435.3574
  -1811162.57244  -1122757.59243  23979784.2644   23979798.9864
 -10425861.26846  -7971109.66346  21839811.3034   21839818.0184
  -6112998.52045  -4619621.62944  22926339.9364   22926348.1074
 -15708168.83247  -8118897.76646  20730690.1864   20730696.1624
 -15734733.23846 -12218046.28646  20815762.1784   20815768.2134
  -6045282.20246  -4665764.05645  22469124.8974   22469130.8384
   -768906.52942   -536182.18642  24051954.4984   24051965.2134
 02  9  9 20 22 29.9980000  0  8G20G11G 2G13G 1G22G25G 4
 -21966163.67246 -16909831.24646  19890110.7564   19890116.3934
  -1710964.31044  -1044681.41743  23998852.0844   23998867.6274
 -10472833.39846  -8007711.23446  21830872.8574   21830879.4554
  -6180217.17645  -4671999.64744  22913549.7794   22913557.1314
 -15737965.09447  -8142115.60046  20725020.0294   20725026.0064
 -15782666.20246 -12255396.58446  20806640.6624   20806646.8504
  -5953922.49246  -4594574.78945  22486510.6004   22486516.7174
   -801072.00843   -561246.20141  24045837.6864   24045847.0294
 02  9  9 20 22 59.9980000  0  8G20G11G 2G13G 1G22G25G 4
 -21941011.52846 -16890232.20246  19894897.2724   19894903.0024
  -1610782.71743   -966618.24143  24017915.5844   24017932.4754
 -10519438.63846  -8044026.91446  21822003.9204   21822010.4594
  -6247366.91645  -4724324.00444  22900770.7564   22900777.9324
 -15767584.89546  -8165195.94046  20719383.3184   20719389.3774
 -15830059.19146 -12292326.12946  20797622.0684   20797628.1504
  -5862434.81246  -4523285.78845  22503919.9284   22503926.0574
   -832742.17743   -585924.22342  24039810.9674   24039817.2484
 02  9  9 20 23 29.9980000  0  8G20G11G 2G13G 1G22G25G 4
 -21915310.15546 -16870205.19446  19899787.9984   19899793.4124
  -1510623.91743   -888572.83643  24036975.7014   24036991.4324
 -10565678.48346  -8080057.87546  21813205.0374   21813211.5764
  -6314450.54445  -4776596.81244  22888004.8034   22888011.9204
 -15797031.10047  -8188141.01246  20713780.2324   20713786.2444
 -15876913.29146 -12328835.75646  20788705.9124   20788712.0764
  -5770824.31446  -4451901.10345  22521353.0534   22521359.6154
   -863919.39743   -610218.19642  24033875.7564   24033885.7094
 02  9  9 20 23 59.9980000  0  8G20G11G 2G13G 1G22G25G 4
 -21889061.23546 -16849751.52246  19904783.0844   19904788.4984
  -1410492.42443   -810548.72843  24056030.9124   24056044.9554
 -10611552.85146  -8115804.05246  21804475.2564   21804481.6784
  -6381469.61145  -4828819.30644  22875251.9044   22875259.7134
 -15826305.23147  -8210951.99946  20708209.1314   20708214.9904
 -15923227.82446 -12364924.94846  20779892.6154   20779898.6624
  -5679094.43346  -4380423.38645  22538808.6394   22538814.8504
   -894604.47943   -634128.67442  24028038.6394   24028043.8304
 02  9  9 20 24 29.9980000  0  8G20G11G 2G13G 1G22G25G 4
 -21862261.39346 -16828868.56046  19909882.9204   19909888.3224
  -1310387.73342   -732545.51642  24075079.8654   24075095.2564
 -10657056.53646  -8151261.37646  21795815.9904   21795822.8974
  -6448420.43045  -4880988.62345  22862510.6544   22862518.6274
 -15855403.40547  -8233625.87646  20702672.3574   20702678.4284
 -15968996.99146 -12400589.17646  20771183.0224   20771189.2794
  -5587243.55246  -4308851.37645  22556287.4044   22556293.3344
   -924792.78243   -657652.02542  24022292.4824   24022300.7834
 02  9  9 20 24 59.9980000  0  8G20G11G 2G13G 1G22G25G 4
 -21834876.73346 -16807529.89846  19915094.0684   19915099.8224
  -1210278.59043   -654538.82843  24094130.9824   24094145.8114
 -10702154.03146                  21787234.0534
  -6515268.98445  -4933078.25244  22849790.2404   22849797.6504
 -15884291.35347  -8256135.94346  20697174.9284   20697180.9394
 -16014184.54546 -12435800.20646  20762584.0224   20762589.8344
  -5495239.74646  -4237160.22045  22573795.4514   22573801.6504
   -954449.76742   -680761.37142  24016649.9674   24016660.8934
 02  9  9 20 25 29.9980000  0  8G20G11G 2G13G 1G22G25G 4
 -21806930.03846 -16785753.28846  19920412.2324   19920417.8224
  -1110190.54542   -576548.59842  24113177.2174   24113189.6784
 -10746866.23246                  21778725.5224
  -6582037.65245  -4985105.63245  22837083.8894   22837090.7604
 -15912991.67447  -8278499.80846  20691713.3034   20691719.3734
 -16058810.96446 -12470573.96746  20754091.8114   20754098.1864
  -5403107.64646  -4165369.08045  22591327.2484   22591333.8934
   -983596.91643   -703473.45242  24011102.3424   24011116.6894
 02  9  9 20 25 59.9980000  0  8G20G11G 2G13G 1G22G25G 4
 -21778424.42346 -16763541.15646  19925836.7874   19925842.3774
  -1010129.75343   -498579.55242  24132218.3814   24132233.1624
 -10791194.56946     -4586.25756  21770290.1154   21770297.3614
  -6648729.56445  -5037073.22445  22824392.5454   22824399.0724
 -15941507.16947  -8300719.65146  20686286.9284   20686292.9864
 -16102877.09946 -12504911.17246  20745706.3344   20745712.5684
  -5310851.92146  -4093481.61645  22608883.2484   22608889.7174
  -1012236.77542                  24005652.1864
 02  9  9 20 26 29.9980000  0  8G20G11G 2G13G 1G22G25G 4
 -21749359.45746 -16740893.17146  19931367.8034   19931373.1934
   -910098.30542   -420633.44642  24151253.7724   24151270.9204
 -10835136.71346    -38826.81546  21761928.3574   21761935.2174
  -6715343.55545  -5088980.07445  22811716.1074   22811723.3894
 -15969837.03047  -8322794.84746  20680896.0454   20680901.9984
 -16146380.20846 -12538809.63646  20737428.0534   20737434.1234
  -5218474.28246  -4021499.17545  22626462.1234   22626468.6744
  -1040367.73442         0.65751  24000298.3574   24000323.8654
 02  9  9 20 26 59.9980000  0  8G20G11G 2G13G 1G22G25G 4
 -21719728.14546 -16717803.87146  19937006.3034   19937011.5644
   -810092.30242   -342707.07942  24170284.9904   24170299.1974
 -10878684.12946    -72759.78146  21753641.2564   21753647.8424
  -6781872.28445  -5140820.47645  22799056.7874   22799063.9044
 -15997973.89847  -8344719.66046  20675541.7724   20675547.7484
 -16189311.15946 -12572262.27646  20729258.3424   20729264.2484
  -5125969.42746  -3949417.58145  22644065.1154   22644071.5494
  -1067981.91743    -21517.04742  23995044.0614   23995053.7214
 02  9  9 20 27 29.9980000  0  8G20G11G 2G13G 1G22G25G 4
 -21689541.46446 -16694281.81846  19942750.7484   19942756.2214
   -710124.85942   -264810.85442  24189308.2794   24189324.8894
 -10921845.69446   -106392.09646  21745427.7794   21745434.2364
  -6848326.27945  -5192602.68145  22786411.1624   22786418.7724
 -16025928.19447  -8366502.20746  20670222.2404   20670228.3934
 -16231678.42846 -12605275.68346  20721195.9754   20721202.2444
  -5033349.86246  -3877246.61545  22661690.4124   22661697.6934
  -1095089.50543    -42639.85842  23989887.4124   23989895.5374
 02  9  9 20 27 59.9980000  0  8G20G11G 2G13G 1G22G25G 4
 -21658798.44146 -16670326.25146  19948600.9594   19948606.6194
   -610197.99242   -186946.18842  24208324.5534   24208338.0924
 -10964618.77746   -139721.69046  21737288.1234   21737294.7214
  -6914704.20745  -5244325.61144  22773778.9044   22773785.3504
 -16053698.55747  -8388141.43446  20664937.6234   20664943.6934
 -16273478.78646 -12637847.35246  20713241.7174   20713248.0454
  -4940616.48446  -3804986.95945  22679336.7014   22679343.1354
  -1121688.29243    -63366.18243  23984824.7564   23984833.3974
 02  9  9 20 28 29.9980000  0  8G20G11G 2G13G 1G22G25G 4
 -21627499.88346 -16645937.80246  19954557.0374   19954562.4514
   -510314.98942   -109115.77842  24227331.5684   24227350.1584
 -11007002.28646   -172747.72546  21729222.7954   21729229.5104
  -6981006.64545  -5295989.69445  22761162.5534   22761170.6314
 -16081285.18847  -8409637.48746  20659688.1784   20659694.1434
 -16314710.72846 -12669976.08746  20705395.6474   20705401.6474
  -4847771.68546  -3732640.47245  22697004.6394   22697010.9324
  -1147778.16643    -83695.99942  23979858.2644   23979866.7994
 02  9  9 20 28 59.9980000  0  8G20G11G 2G13G 1G22G25G 4
 -21595664.52146 -16621131.06146  19960614.9824   19960620.4794
   -410497.05942    -31335.90141  24246325.4594   24246341.9984
 -11049013.12646   -205483.36446  21721228.5924   21721235.2014
  -7047251.48745  -5347608.89744  22748556.6074   22748563.1704
 -16108706.33547  -8431004.58946  20654470.1074   20654476.0144
 -16355390.40146 -12701674.48046  20697654.4284   20697660.5804
  -4754835.76846  -3660222.99345  22714689.8424   22714696.2404
  -1173376.92544   -103643.12142  23974990.1004   23974997.9324
 02  9  9 20 29 29.9980000  0  8G20G11G 2G13G 1G22G25G 4
 -21563287.32846 -16595902.11846  19966776.0064   19966781.5024
   -310742.14943     46394.76642  24265310.4434   24265327.4164
 -11090644.60246   -237923.39946  21713306.3574   21713312.8264
  -7113433.48145  -5399179.15844  22735962.3424   22735968.5764
 -16135956.63047  -8452238.56846  20649284.4594   20649290.4004
 -16395510.80146 -12732937.08746  20690019.5614   20690025.4554
  -4661805.27346  -3587731.81645  22732392.9514   22732399.0924
  -1198478.75143   -123202.99042  23970211.7094   23970220.7254
 02  9  9 20 29 59.9980000  0  8G20G11G 2G13G 1G22G25G 4
 -21530365.10046 -16570248.47346  19973041.1314   19973046.7214
   -211049.13142    124077.16542  24284280.4904   24284295.6234
 -11131891.53046   -270063.78646  21705457.1934   21705463.8614
  -7179548.54445  -5450697.23445  22723380.7644   22723387.5254
 -16163032.19247  -8473336.38646  20644132.1234   20644138.2524
 -16435066.26546 -12763759.47246  20682492.1934   20682498.3574
  -4568678.31046  -3515165.47245  22750115.0144   22750120.9674
  -1223079.37143   -142372.33442  23965530.2874   23965539.9474
 02  9  9 20 30 29.9980000  0  8G20G11G 2G13G 1G22G25G 4
 -21496897.12246 -16544169.56946  19979409.8504   19979415.4284
   -111420.08743    201709.74941  24303239.6864   24303251.9124
 -11172751.31046   -301902.50546  21697681.8734   21697688.4944
  -7245595.64545  -5502162.37045  22710812.4514   22710819.3814
 -16189931.47547  -8494296.85046  20639013.4984   20639019.6744
 -16474053.73446 -12794139.27946  20675073.2254   20675079.1784
  -4475455.92946  -3442524.77145  22767854.5224   22767860.8384
  -1247177.00543   -161149.77542  23960945.1624   23960954.7054
 02  9  9 20 30 59.9980000  0  8G20G11G 2G13G 1G22G25G 4
 -21462868.21346 -16517653.57746  19985885.2254   19985890.6624
    -11842.42642    279302.36141  24322189.4044   24322206.7644
 -11213206.81446   -333426.20146  21689983.2724   21689989.8814
  -7311558.97745  -5553562.24045  22698259.7324   22698265.8264
 -16216638.83447  -8515107.75646  20633931.2014   20633937.0844
 -16512455.76846 -12824062.89146  20667765.7954   20667771.9594
  -4382124.54546  -3369799.13645  22785614.6234   22785621.2214
  -1270755.55143   -179522.65743  23956458.1784   23956468.1894
 02  9  9 20 31 29.9980000  0  8G20G11G 2G13G 1G22G25G 4
 -21428302.60746 -16490719.38346  19992463.0534   19992468.7254
     87657.35643    356834.12942  24341124.8504   24341140.2754
 -11253280.73346   -364652.55846  21682357.5924   21682364.0144
  -7377462.31645  -5604915.34745  22685718.4824   22685725.1624
 -16243177.88047  -8535787.51246  20628880.8974   20628886.7794
 -16550294.39946 -12853547.49246  20660565.3114   20660571.2644
  -4288709.90846  -3297008.63945  22803391.4364   22803397.9864
  -1293838.54643   -197509.41842  23952065.7324   23952075.5924
 02  9  9 20 31 59.9980000  0  8G20G11G 2G13G 1G22G25G 4
 -21393184.45346 -16463354.62946  19999146.0684   19999151.5064
    187092.50143    434315.69842  24360046.6154   24360064.3974
 -11292955.19946   -395567.65446  21674807.6074   21674814.0884
  -7443289.22945  -5656208.89445  22673191.6864   22673199.2014
 -16269532.05347  -8556323.21146  20623865.9824   20623871.8894
 -16587551.45246 -12882578.91046  20653475.5144   20653481.4324
  -4195197.45246  -3224141.91045  22821186.3424   22821193.0224
  -1316408.83343   -215096.65242  23947770.8034   23947778.9164
 02  9  9 20 32 29.9980000  0  7G20G 2G13G 1G22G25G 4
 -21357524.35946 -16435567.58746  20005931.8264   20005937.1474
 -11332238.78946   -426178.17346  21667332.1474   21667338.7444
  -7509049.27145  -5707450.36445  22660678.3034   22660685.1234
 -16295711.22747  -8576722.54946  20618884.1864   20618890.1974
 -16624235.18446 -12911163.58346  20646494.4594   20646500.6354
  -4101599.17246  -3151208.31145  22838997.4754   22839004.2604
  -1338476.24443   -232292.10442  23943572.3974   23943579.5724
 02  9  9 20 32 59.9980000  0  7G20G 2G13G 1G22G25G 4
 -21321312.49646 -16407350.59146  20012822.9904   20012828.5334
 -11371119.71346   -456474.91946  21659933.3574   21659939.6044
  -7574731.88345  -5758631.49145  22648178.9284   22648185.8934
 -16321704.68547  -8596977.16846  20613937.6234   20613943.6704
 -16660333.21446 -12939291.86146  20639625.3504   20639631.5024
  -4007906.62745  -3078201.25845  22856826.5454   22856832.9794
  -1360029.89943   -249087.20742  23939470.0614   23939482.0294
 02  9  9 20 33 29.9980000  0  7G20G 2G13G 1G22G25G 4
 -21284557.34246 -16378710.26146  20019817.0764   20019822.5964
 -11409604.82646   -486463.24946  21652609.9594   21652616.2404
  -7640345.07345  -5809758.52045  22635693.5294   22635701.1744
 -16347520.25347  -8617093.17446  20609024.7484   20609030.8544
 -16695852.01346 -12966968.81146  20632866.3264   20632872.3504
  -3914129.58146  -3005128.35645  22874672.1074   22874679.0494
  -1381077.28443   -265487.75041  23935465.4434   23935475.8304
 02  9  9 20 33 59.9980000  0  7G20G 2G13G 1G22G25G 4
 -21247251.90946 -16349641.13646  20026916.1154   20026921.8574
 -11447685.20946   -516136.20646  21645363.5374   21645370.1934
  -7705881.11145  -5860825.43845  22623221.7484   22623228.8074
 -16373150.30347  -8637064.62546  20604147.7254   20604153.7484
 -16730782.27046 -12994187.13446  20626219.4594   20626225.3894
  -3820262.48545  -2931985.29045  22892534.2794   22892541.5494
  -1401610.54543   -281487.76442  23931557.7484   23931565.8034
 02  9  9 20 34 29.9980000  0  7G20G 2G13G 1G22G25G 4
 -21209400.10946 -16320146.27346  20034119.0924   20034124.8574
 -11485362.82846   -545495.31046  21638193.6074   21638199.7604
  -7771343.29445  -5911834.80145  22610764.7954   22610770.6784
 -16398597.93347  -8656893.92546  20599305.2874   20599311.3344
 -16765125.62546 -13020948.14046  20619684.1544   20619690.2134
  -3726310.57445  -2858776.12345  22910413.1624   22910419.9364
  -1421632.73743   -297089.51642  23927746.8974   23927756.4864
 02  9  9 20 34 59.9980000  0  7G20G 2G13G 1G22G25G 4
 -21170997.73046 -16290222.38846  20041426.6544   20041432.4904
 -11522631.46246   -574535.73146  21631101.4434   21631107.6784
  -7836726.29045  -5962782.48545  22598322.6004   22598329.2444
 -16423857.72047  -8676576.86246  20594498.6864   20594504.6624
 -16798875.42246 -13047246.63546  20613261.6784   20613267.6894
  -3632270.63945  -2785498.37545  22928308.3424   22928315.3304
  -1441138.33543   -312288.72642  23924035.2254   23924045.5414
 02  9  9 20 35 29.9980000  0  7G20G 2G13G 1G22G25G 4
 -21132037.28846 -16259863.65446  20048840.6474   20048846.1664
 -11559481.76246   -603250.18046  21624089.2874   21624095.5804
  -7902021.62545  -6013661.83545  22585897.3974   22585904.2914
 -16448921.46947  -8696107.04746  20589729.0294   20589734.9124
 -16832021.87346 -13073074.99646  20606954.0064   20606960.2174
  -3538136.60645  -2712147.29545  22946221.6474   22946228.1864
  -1460119.14642   -327079.06442  23920423.1784   23920434.3384
 02  9  9 20 35 59.9980000  0  7G20G 2G13G 1G22G25G 4
 -21092529.76546 -16229078.62446  20056358.8814   20056364.4824
 -11595922.76046   -631645.69246  21617154.5454   21617160.8504
  -7967239.81045  -6064481.07245  22573487.0294   22573494.1354
 -16473799.25547  -8715492.31246  20584994.7954   20585000.7954
 -16864573.70746 -13098440.01846  20600759.4754   20600765.3574
  -3443920.60145  -2638732.35645  22964150.1154   22964157.7484
  -1478585.05443   -341468.10942  23916910.7954   23916918.5454
 02  9  9 20 36 29.9980000  0  7G20G 2G13G 1G22G25G 4
 -21052475.94846 -16197867.91446  20063980.7794   20063986.5104
 -11631953.27446   -659721.34646  21610297.8894   21610304.0064
  -8032380.43745  -6115239.88545  22561091.4754   22561097.7324
 -16498490.87847  -8734732.52546  20580296.4594   20580302.4594
 -16896529.45646 -13123340.55246  20594678.7404   20594684.9284
  -3349624.80145  -2565255.22045  22982093.8814   22982100.4794
  -1496535.77842   -355455.66842  23913493.7874   23913502.5924
 02  9  9 20 36 59.9980000  0  7G20G 2G13G 1G22G25G 4
 -21011869.48346 -16166226.56146  20071708.2484   20071713.8264
 -11667565.17546   -687470.80246  21603521.3184   21603527.4124
  -8097436.60745  -6165932.90145  22548711.1234   22548717.4044
 -16522989.16347  -8753822.08246  20575634.2724   20575640.3074
 -16927880.57746 -13147769.96046  20588712.7014   20588718.8774
  -3255243.94045  -2491711.83045  23000054.4904   23000061.6194
  -1513964.06443   -369036.25742  23910177.9204   23910186.5374
 02  9  9 20 37 29.9980000  0  7G20G 2G13G 1G22G25G 4
 -20970706.27446 -16134151.38546  20079541.2324   20079546.7524
 -11702752.49846   -714889.42746  21596825.3034   21596831.4434
  -8162402.89745  -6216555.87045  22536348.6624   22536355.4244
 -16547289.21247  -8772757.17046  20571010.1004   20571016.0414
 -16958620.63246 -13171723.21046  20582862.7874   20582868.7294
  -3160774.85845  -2418099.67945  23018031.1474   23018038.3694
  -1530865.04642   -382205.90442  23906961.1474   23906970.6894
 02  9  9 20 37 59.9980000  0  7G20G 2G13G 1G22G25G 4
 -20929000.44846 -16101653.39446  20087477.8344   20087483.3544
 -11737527.06046   -741986.42246  21590207.6934   21590214.0684
  -8227292.43545  -6267119.03145  22524000.7484   22524007.1824
 -16571404.00147  -8791547.90546  20566421.3034   20566427.2564
 -16988761.24146 -13195209.36146  20577127.4434   20577133.5254
  -3066232.86845  -2344430.72945  23036022.1864   23036029.5374
  -1547251.69843   -394974.73942  23903844.1704   23903853.8304
 02  9  9 20 38 29.9980000  0  7G20G 2G13G 1G22G25G 4
 -20886738.79146 -16068722.28246  20095519.7094   20095525.4984
 -11771873.73146   -768749.99946  21583671.8424   21583677.9944
  -8292091.17445  -6317611.44545  22511669.2014   22511675.2954
 -16595319.08947  -8810183.02646  20561870.3734   20561876.2444
 -17018287.09446 -13218216.47746  20571508.7254   20571514.7834
  -2971605.46145  -2270695.21245  23054029.4674   23054036.6194
  -1563109.79342   -407331.70442  23900824.3424   23900831.9864
 02  9  9 20 38 59.9980000  0  7G20G 2G13G 1G22G25G 4
 -20843937.42146 -16035370.61846  20103664.6314   20103670.2794
 -11805806.87346   -795191.33446  21577214.6154   21577220.7564
  -8356814.38245  -6368044.99645  22499353.0294   22499359.0644
 -16619049.68147  -8828674.37946  20557354.7404   20557360.7054
 -17047212.20546 -13240755.49046  20566004.5144   20566010.7484
  -2876910.38045  -2196906.96945  23072049.2174   23072055.4514
  -1578454.64542   -419288.85042  23897904.6234   23897914.7644
 02  9  9 20 39 29.9980000  0  7G20G 2G13G 1G22G25G 4
 -20800582.75346 -16001587.82046  20111914.7094   20111920.4984
 -11839310.94846   -821298.34546  21570838.9754   21570845.0684
  -8421447.36445  -6418408.24245  22487053.0924   22487058.9754
 -16642581.37147  -8847010.75046  20552876.7094   20552882.7794
 -17075520.72546 -13262814.03146  20560617.2874   20560623.2404
  -2782134.88245  -2123056.06845  23090084.5684   23090092.0494
  -1593271.89643   -430834.77542  23895086.8264   23895098.5494
 02  9  9 20 39 59.9980000  0  7G20G 2G13G 1G22G25G 4
 -20756672.93746 -15967372.44046  20120270.5924   20120276.2874
 -11872381.71446   -847067.70846  21564545.6784   21564551.9124
  -8485986.93645  -6468698.71645  22474771.4594   22474778.4244
 -16665910.83047  -8865189.53646  20548437.2324   20548443.3144
 -17103208.30946 -13284388.74646  20555348.7094   20555354.8264
  -2687277.98545  -2049141.74145  23108135.1934   23108143.1784
  -1607558.45142   -441967.21742  23892366.5064   23892376.2134
 02  9  9 20 40 29.9980000  0  7G20G 2G13G 1G22G25G 4
 -20712211.34446 -15932727.10046  20128731.3574   20128737.2404
 -11905020.70046   -872500.62446  21558334.7404   21558340.9044
  -8550435.58545  -6518918.34545  22462507.7014   22462514.3114
 -16689040.32247  -8883212.51046  20544035.7174   20544041.7294
 -17130276.05646 -13305480.45346  20550197.9904   20550203.9324
  -2592344.06245  -1975167.40345  23126200.5454   23126208.4474
  -1621316.71643   -452687.99842  23889748.4904   23889758.8304
 02  9  9 20 40 59.9980000  0  7G20G 2G13G 1G22G25G 4
 -20667192.48546 -15897647.52746  20137298.2724   20137303.9794
 -11937220.43146   -897591.26746  21552207.1624   21552213.1864
  -8614786.43245  -6569061.74145  22450261.5764   22450267.6004
 -16711963.17446  -8901074.46346  20539673.6314   20539679.7254
 -17156716.25546 -13326083.16846  20545166.6394   20545172.8614
  -2497328.45545  -1901129.39845  23144281.6934   23144289.1624
  -1634539.97143   -462991.86942  23887235.6154   23887246.6584
 02  9  9 20 41 29.9980000  0  7G20G 2G13G 1G22G25G 4
 -20621631.85546 -15862145.80146  20145968.1864   20145973.9164
 -11968994.58946   -922350.28946  21546160.7644   21546166.7524
  -8679053.97145  -6619140.24745  22438032.5534   22438038.5764
 -16734693.97847  -8918786.77046  20535348.2564   20535354.3034
 -17182542.35946 -13346207.38146  20540251.6154   20540257.7564
  -2402247.86045  -1827040.75145  23162374.9284   23162381.2564
  -1647243.22043   -472890.46842  23884816.2254   23884823.2364
 02  9  9 20 41 59.9980000  0  7G20G 2G13G 1G22G25G 4
 -20575511.88746 -15826208.22346  20154744.5844   20154750.3974
 -12000323.42146   -946762.30846  21540198.9284   21540205.1154
  -8743219.34045  -6669139.11745  22425821.8574   22425827.8224
 -16757213.82847  -8936334.68746  20531062.9904   20531068.9554
 -17207734.33746 -13365837.46246  20535458.0684   20535464.1744
  -2307084.88245  -1752887.92145  23180483.7094   23180491.1314
  -1659407.73843   -482369.43342  23882501.3344   23882511.1704
 02  9  9 20 42 29.9980000  0  7G20G 2G13G 1G22G25G 4
 -20528835.59246 -15789837.14846  20163626.9364   20163632.6894
 -12031207.89646   -970828.07246  21534321.8114   21534328.0104
  -8807284.35845  -6719059.80945  22413630.8114   22413637.1974
 -16779524.22047  -8953719.40146  20526817.2014   20526823.0494
 -17232292.93746 -13384974.00946  20530784.8654   20530790.9594
  -2211843.50645  -1678674.00745  23198608.1624   23198615.4434
  -1671035.50743   -491430.04042  23880289.2954   23880297.6544
 02  9  9 20 42 59.9980000  0  7G20G 2G13G 1G22G25G 4
 -20481602.63646 -15753032.31046  20172615.1314   20172620.9324
 -12061645.88946   -994545.93446  21528529.6154   21528535.9794
  -8871247.80045  -6768901.34145  22401458.3814   22401463.9124
 -16801623.74647  -8970939.80146  20522611.9674   20522617.7794
 -17256215.94646 -13403615.28946  20526232.3114   20526238.3114
  -2116524.52145  -1604399.61045  23216746.8504   23216754.3304
  -1682125.35543   -500071.61242  23878177.7484   23878189.5294
 02  9  9 20 43 29.9980000  0  7G20G 2G13G 1G22G25G 4
 -20433813.12746 -15715793.78846  20181708.9904   20181714.9554
 -12091635.43146  -1017914.36346  21522822.8264   21522829.0144
  -8935108.17445  -6818662.58245  22389305.8814   22389312.5144
 -16823511.30247  -8987995.02746  20518446.7954   20518452.8304
 -17279501.03246 -13421759.49046  20521801.0614   20521806.9434
  -2021128.86545  -1530065.47445  23234900.4204   23234908.3464
  -1692676.43343   -508293.20942  23876169.6544   23876180.2404
 02  9  9 20 43 59.9980000  0  7G20G 2G13G 1G22G25G 4
 -20385454.77646 -15678112.01746  20190911.4204   20190917.3734
 -12121162.06046  -1040922.06646  21517204.0374   21517210.1544
  -8998851.86345  -6868332.86845  22377175.9284   22377182.5144
 -16845173.09847  -9004874.33746  20514324.5764   20514330.5294
 -17302133.73746 -13439395.32746  20517494.4044   20517500.6624
  -1925644.83445  -1455662.45245  23253070.2484   23253078.6544
  -1702675.70642   -516084.89742  23874264.8114   23874275.5024
 02  9  9 20 44 29.9980000  0  7G20G 2G13G 1G22G25G 4
 -20336547.74146 -15640002.70746  20200218.2174   20200224.0644
 -12150243.95346  -1063583.24346  21511669.7174   21511675.9514
  -9062497.84445  -6917927.05245  22365064.9514   22365071.5614
 -16866627.98047  -9021592.41246  20510241.9434   20510247.8034
 -17324132.01446 -13456536.81646  20513308.1934   20513314.2874
  -1830093.32845  -1381206.89945  23271252.9984   23271260.8304
  -1712142.15243   -523461.42742  23872464.7484   23872474.0924
 02  9  9 20 44 59.9980000  0  7G20G 2G13G 1G22G25G 4
 -20287086.38346 -15601461.45046  20209630.6074   20209636.4904
 -12178873.39646  -1085891.85046  21506221.7644   21506227.8574
  -9126038.84545  -6967439.42545  22352973.0534   22352979.5684
 -16887868.84547  -9038143.73646  20506199.7724   20506205.7484
 -17345487.87046 -13473177.68446  20509244.1004   20509250.3814
  -1734469.41945  -1306694.88845  23289449.7874   23289457.8184
  -1721068.89842   -530417.34242  23870765.1394   23870777.5884
 02  9  9 20 45 29.9990000  0  7G20G 2G13G 1G22G25G 4
 -20237067.86246 -15562486.04546  20219148.6904   20219154.6324
 -12207048.08246  -1107846.10446  21500860.4404   21500866.6984
  -9189474.61645  -7016869.80245  22340902.0504   22340908.4134
 -16908893.77147  -9054526.76846  20502199.0894   20502205.1474
 -17366198.71846 -13489316.02746  20505302.9804   20505308.9684
  -1638769.27845  -1232123.50845  23307661.0894   23307668.5584
  -1729454.41443   -536951.61642  23869170.8944   23869180.0974
 02  9  9 20 45 59.9990000  0  7G20G 2G13G 1G22G25G 4
 -20186504.01446 -15523085.71546  20228770.8004   20228776.8944
 -12234772.70746  -1129449.66246  21495584.0734   21495590.4374
  -9252808.14145  -7066220.49745  22328849.6904   22328855.7724
 -16929708.68147  -9070746.16546  20498238.1054   20498244.1984
 -17386269.42947 -13504955.50946  20501483.7614   20501489.7844
  -1543008.48045  -1157504.84445  23325883.9174   23325891.3864
  -1737305.47643   -543069.37342  23867677.3234   23867686.3864
 02  9  9 20 46 29.9990000  0  7G20G 2G13G 1G22G25G 4
 -20135386.71646 -15483254.12546  20238498.2694   20238504.1984
 -12262039.83946  -1150696.73146  21490395.4404   21490401.5694
  -9316033.58545  -7115486.99745  22316818.5734   22316824.7844
 -16950306.32247  -9086796.26346  20494318.6204   20494324.5734
 -17405692.21046 -13520090.11846  20497787.6284   20497793.8274
  -1447177.81745  -1082831.71545  23344119.3864   23344126.9724
  -1744615.28543   -548765.37742  23866288.0734   23866297.8154
 02  9  9 20 46 59.9990000  0  7G20G 2G13G 1G22G25G 4
 -20083726.04446 -15442999.11746  20248328.9334   20248334.6874
 -12288857.34546  -1171593.44046  21485292.4094   21485298.3274
  -9379159.36245  -7164675.81145  22304805.9724   22304812.1014
 -16970695.09947  -9102683.61046  20490438.4954   20490444.6474
 -17424474.81246 -13534725.88546  20494213.2144   20494219.4834
  -1351288.27745  -1008112.72045  23362366.9404   23362374.6084
  -1751392.67243   -554046.53342  23864996.3234   23865005.0464
 02  9  9 20 47 29.9990000  0  7G20G 2G13G 1G22G25G 4
 -20031521.05046 -15402319.97046  20258263.2144   20258268.9804
 -12315222.30946  -1192137.52846  21480275.5734   21480281.7844
  -9442183.13345  -7213785.15145  22292812.5584   22292819.0974
 -16990872.82547  -9118406.50946  20486599.0264   20486605.0154
 -17442614.14946 -13548860.41246  20490761.7144   20490767.8314
  -1255339.16945   -933347.33645  23380625.8784   23380633.4994
  -1757635.86643   -558911.36742  23863809.2304   23863818.9834
 02  9  9 20 47 59.9990000  0  7G20G 2G13G 1G22G25G 4
 -19978770.46746 -15361215.68946  20268301.4254   20268307.1794
 -12341131.49746  -1212326.46546  21475344.8864   21475350.9684
  -9505102.31045  -7262812.98945  22280838.9014   22280844.7494
 -17010836.83947  -9133962.87246  20482799.8784   20482805.7844
 -17460106.90646 -13562491.11446  20487432.9404   20487438.9994
  -1159329.87345   -858535.02945  23398895.7924   23398902.6874
  -1763342.54244   -563358.21242  23862724.9404   23862735.8084
 02  9  9 20 48 29.9990000  0  7G20G 2G13G 1G22G25G 4
 -19925485.21746 -15319694.78446  20278441.1904   20278447.1674
 -12366593.45246  -1232166.90446  21470499.3394   21470505.5734
  -9567925.78445  -7311766.25445  22268884.2844   22268890.7764
 -17030595.96147  -9149359.58246  20479039.7924   20479045.6634
 -17476961.55946 -13575624.58946  20484225.6514   20484231.7574
  -1063271.56845   -783684.55245  23417175.2374   23417183.6084
  -1768522.59144   -567394.64842  23861738.7224   23861747.2454
 02  9  9 20 48 59.9990000  0  7G20G 2G13G 1G22G25G 4
 -19871675.71046 -15277765.36246  20288680.7534   20288686.7184
 -12391616.62746  -1251665.43446  21465737.8314   21465743.7964
  -9630662.64046  -7360652.05145  22256945.8624   22256951.9094
 -17050159.21847  -9164603.67546  20475317.0504   20475323.0264
 -17493186.44646 -13588267.33446  20481138.0654   20481144.1714
   -967175.24045   -708804.41845  23435462.1204   23435470.3514
  -1773185.78143   -571028.38043  23860849.5194   23860861.2414
 02  9  9 20 49 29.9990000  0  7G20G 2G13G 1G22G25G 4
 -19817331.73346 -15235419.48146  20299022.2064   20299028.0074
 -12416188.78446  -1270812.52846  21461061.6124   21461067.7064
  -9693301.41146  -7409461.38645  22245026.0424   22245031.9134
 -17069514.97447  -9179686.07746  20471633.8004   20471639.7414
 -17508769.46546 -13600409.91846  20478172.7144   20478178.7374
   -871030.95345   -633886.94445  23453758.2454   23453766.0894
  -1777320.86243   -574250.56443  23860063.8554   23860074.6514
 02  9  9 20 49 59.9990000  0  7G20G 2G13G 1G22G25G 4
 -19762462.91946 -15192664.63546  20309463.6054   20309469.4874
 -12440317.69546  -1289614.23446  21456470.3474   21456476.4404
  -9755849.50546  -7458200.08245  22233124.0894   22233130.4524
 -17088671.13647  -9194612.95246  20467988.4724   20467994.4604
 -17523718.03746 -13612058.13746  20475328.0584   20475333.9054
   -774848.79345   -558939.93145  23472060.7764   23472068.4914
  -1780936.46443   -577067.95942  23859374.8864   23859386.9604
 02  9  9 20 50 29.9990000  0  7G20G 2G13G 1G22G25G 4
 -19707069.51746 -15149501.01646  20320004.5504   20320010.4094
 -12464001.10246  -1308068.79846  21451963.4954   21451969.5894
  -9818305.45146  -7506866.94745  22221238.5584   22221244.7804
 -17107626.13547  -9209383.07546  20464381.3314   20464387.4374
 -17538030.05746 -13623210.33946  20472604.4804   20472610.5154
   -678629.20245   -483963.78045  23490370.8704   23490378.9484
  -1784031.69042   -579479.88143  23858784.6204   23858795.4644
 02  9  9 20 50 59.9990000  0  7G20G 2G13G 1G22G25G 4
 -19651158.10646 -15105933.75347  20330644.2224   20330650.0814
 -12487243.91846  -1326180.03946  21447540.3004   21447546.3584
  -9880674.92146  -7555466.46545  22209369.7304   22209375.7534
 -17126385.24947  -9224000.56046  20460811.6754   20460817.5694
 -17551710.43446 -13633870.35446  20470001.0264   20470006.9334
   -582379.88645   -408964.42445  23508686.3474   23508695.2104
  -1786612.57643   -581490.97843  23858295.8004   23858306.3044
 02  9  9 20 51 29.9990000  0  7G20G 2G13G 1G22G25G 4
 -19594721.24246 -15061957.05146  20341383.9014   20341389.7374
 -12510036.45646  -1343940.41046  21443203.0504   21443209.3554
  -9942948.27446  -7603991.05645  22197519.3784   22197525.4604
 -17144938.87247  -9238457.92346  20457281.2374   20457287.2374
 -17564749.31546 -13644030.50546  20467520.0584   20467526.0934
   -486093.00845   -333935.84345  23527009.4174   23527017.6834
  -1788670.65743   -583094.70942  23857903.8704   23857911.9954
 02  9  9 20 51 59.9990000  0  7G20G 2G13G 1G22G25G 4
 -19537753.74046 -15017566.86546  20352224.5974   20352230.4214
 -12532371.38946  -1361344.20746  21438952.9644   21438959.0224
 -10005118.69946  -7652435.44545  22185688.8944   22185695.4684
 -17163280.44147  -9252750.04746  20453790.7534   20453796.5194
 -17577139.44946 -13653685.13546  20465162.2064   20465168.3354
   -389764.01345   -258874.42545  23545340.0734   23545348.7024
  -1790199.76643   -584286.28643  23857612.0264   23857622.6364
 02  9  9 20 52 29.9990000  0  7G20G 2G13G 1G22G25G 4
 -19480254.13946 -14972762.05746  20363166.6364   20363172.4604
 -12554245.06646  -1378388.58746  21434790.4644   21434796.4994
 -10067182.80746  -7700797.02145  22173878.7614   22173884.9724
 -17181406.65247  -9266874.35846  20450341.6904   20450347.8664
 -17588877.20146 -13662831.42446  20462928.5264   20462934.3624
   -293391.07545   -183778.78844  23563679.5734   23563688.1444
  -1791197.34543   -585063.69342  23857422.8624   23857433.5304
 02  9  9 20 52 59.9990000  0  7G20G 2G13G 1G22G25G 4
 -19422231.50346 -14927549.68646  20374207.7454   20374213.7804
 -12575664.63846  -1395079.12146  21430714.4334   21430720.6204
 -10129147.89946  -7749081.40745  22162086.6904   22162092.7264
 -17199324.62447  -9280836.39646  20446931.8944   20446937.9874
 -17599969.61646 -13671474.86246  20460817.8004   20460823.7884
   -196983.72645   -108656.29644  23582025.1594   23582032.5344
  -1791671.62543   -585433.26743  23857332.2224   23857343.2064
 02  9  9 20 53 29.9990000  0  7G20G 2G13G 1G22G25G 4
 -19363678.63746 -14881924.15146  20385350.0504   20385356.0504
 -12596620.68646  -1411408.46246  21426726.7224   21426732.8044
 -10191005.04146  -7797281.68745  22150315.9094   22150321.9914
 -17217025.41747  -9294629.21647  20443563.4484   20443569.5194
 -17610407.55447 -13679608.29346  20458831.5584   20458837.5114
   -100534.98345    -33501.57545  23600379.0264   23600386.8234
  -1791614.49443   -585388.82143  23857342.3474   23857351.5974
 02  9  9 20 53 59.9990000  0  7G20G 2G13G 1G22G25G 4
 -19304610.11946 -14835896.81046  20396590.4874   20396596.5584
 -12617125.94846  -1427386.54246  21422824.3154   21422830.3744
 -10252766.95346  -7845407.76445  22138562.6124   22138568.7414
 -17234521.95747  -9308262.86346  20440234.0734   20440239.8744
 -17620203.48847 -13687241.47746  20456967.4484   20456973.5424
     -4060.15145     41673.49545  23618737.7224   23618745.7304
  -1791039.78343   -584941.07642  23857453.7454   23857463.2534
 02  9  9 20 54 29.9990000  0  7G20G 2G13G 1G22G25G 4
 -19245022.15546 -14789464.71546  20407929.6284   20407935.4174
 -12637174.42646  -1443008.68846  21419009.3004   21419015.3944
 -10314427.94046  -7893455.19045  22126828.9644   22126835.0344
 -17251808.38647  -9321732.79546  20436944.6124   20436950.4954
 -17629351.53646 -13694369.81246  20455226.4564   20455232.3864
     92444.75045    116871.97144  23637102.4254   23637108.8124
  -1789942.58543   -584086.13643  23857661.8944   23857671.4954
 02  9  9 20 54 59.9990000  0  7G20G 2G13G 1G22G25G 4
 -19184918.50646 -14742630.78246  20419367.2534   20419373.1834
 -12656767.49546  -1458275.96746  21415281.1204   21415287.3664
 -10375989.74346  -7941425.33645  22115114.0734   22115119.9094
 -17268886.46847  -9335040.37646  20433694.7374   20433700.5854
 -17637853.15546 -13700994.42846  20453608.6284   20453614.7574
    188976.35045    192091.28144  23655471.5654   23655479.8084
  -1788325.77143   -582826.35442  23857969.8314   23857980.5934
 02  9  9 20 55 29.9990000  0  7G20G 2G13G 1G22G25G 4
 -19124288.23046 -14695386.48946  20430904.7694   20430910.9094
 -12675892.60346  -1473178.61446  21411641.5894   21411647.6594
 -10437439.82046  -7989308.40145  22103420.4564   22103426.8194
 -17285743.74147  -9348175.89746  20430486.8624   20430492.7574
 -17645695.90846 -13707105.65246  20452116.3154   20452122.2804
    285544.97145    267339.43844  23673847.7614   23673855.9804
  -1786177.71343   -581152.60842  23858378.2614   23858388.4954
 02  9  9 20 55 59.9990000  0  7G20G 2G13G 1G22G25G 4
 -19063135.73546 -14647735.27446  20442541.7224   20442547.7574
 -12694551.57346  -1487718.02446  21408090.7454   21408096.7104
 -10498780.36846  -8037106.13045  22091747.6754   22091753.7924
 -17302382.39547  -9361141.07146  20427320.4724   20427326.5074
 -17652881.81046 -13712705.03546  20450748.8624   20450754.8274
    382146.72545    342613.40044  23692230.7534   23692238.8084
  -1783501.68344   -579067.44743  23858888.4874   23858899.0264
 02  9  9 20 56 29.9990000  0  7G20G 2G13G 1G22G25G 4
 -19001460.70646 -14599676.89346  20454278.0814   20454284.0814
 -12712742.08246  -1501892.40946  21404629.2224   21404635.3044
 -10560009.12446  -8084816.75345  22080095.8944   22080101.8824
 -17318800.19847  -9373934.15446  20424196.4724   20424202.3554
 -17659408.53546 -13717790.76946  20449506.6514   20449512.7334
    478781.49545    417913.06543  23710619.6754   23710627.6944
  -1780296.37043   -576569.91143  23859497.8704   23859507.5074
 02  9  9 20 56 59.9990000  0  7G20G 2G13G 1G22G25G 4
 -18939271.77646 -14551218.07046  20466112.4014   20466118.2724
 -12730470.87546  -1515707.01246  21401255.6754   21401261.6164
 -10621132.78346  -8132445.48145  22068464.8004   22068471.1164
 -17335003.94047  -9386560.43046  20421112.9874   20421118.9174
 -17665282.82346 -13722368.11446  20448388.6364   20448394.7534
    575440.38644    493231.55943  23729013.0584   23729022.7764
  -1776569.75143   -573666.13443  23860207.2224   23860218.1474
 02  9  9 20 57 29.9990000  0  7G20G 2G13G 1G22G25G 4
 -18876580.00046 -14502367.41946  20478042.2224   20478048.2454
 -12747746.73846  -1529168.69046  21397967.9644   21397973.9404
 -10682160.41646  -8179999.39545  22056851.4334   22056857.2804
 -17351002.37947  -9399026.73546  20418068.4174   20418074.3704
 -17670513.69846 -13726444.11046  20447393.3704   20447399.5694
    672112.49345    568560.33343  23747409.5584   23747417.7064
  -1772331.80943   -570363.89643  23861011.7614   23861021.3864
 02  9  9 20 57 59.9990000  0  7G20G 2G13G 1G22G25G 4
 -18813350.15046 -14453097.49046  20490074.4404   20490080.2884
 -12764532.11446  -1542248.15946  21394773.5894   21394779.5774
 -10743054.40946  -8227449.17445  22045263.9334   22045269.9214
 -17366758.24247  -9411304.02246  20415070.1514   20415076.1754
 -17675063.87946 -13729989.69046  20446527.6594   20446533.5774
    768833.68045    643927.38144  23765815.2454   23765824.0504
  -1767546.31744   -566635.01544  23861924.4954   23861933.7224
 02  9  9 20 58 29.9990000  0  7G20G 2G13G 1G22G25G 4
 -18749620.91346 -14403438.43146  20502201.7764   20502207.9764
 -12780863.80246  -1554974.12146  21391666.0344   21391672.2454
 -10803851.56946  -8274823.48445  22033694.4724   22033700.3554
 -17382308.40747  -9423421.02146  20412111.1054   20412116.9764
 -17678970.17846 -13733033.53246  20445784.2614   20445790.1904
    865564.99845    719302.30143  23784222.8944   23784230.7494
  -1762251.21845   -562509.00043  23862933.4724   23862943.9174
 02  9  9 20 58 59.9990000  0  7G20G 2G13G 1G22G25G 4
 -18685365.70446 -14353369.52146  20514429.5814   20514435.5464
 -12796713.33546  -1567324.35746  21388649.8704   21388655.9054
 -10864523.29746  -8322100.06445  22022148.8704   22022154.9294
 -17397624.35347  -9435355.51646  20409196.5264   20409202.5264
 -17682204.11747 -13735553.46746  20445169.0344   20445174.9294
    962333.24244    794705.98743  23802636.5194   23802644.4914
  -1756419.06644   -557964.54943  23864043.0654   23864052.2334
 02  9  9 20 59 29.9990000  0  7G20G 2G13G 1G22G25G 4
 -18620588.98446 -14302894.23746  20526755.9804   20526762.0504
 -12812082.93246  -1579300.62846  21385725.0894   21385731.0074
 -10925072.11946  -8369280.87145  22010626.4484   22010632.7064
 -17412708.53647  -9447109.41047  20406326.1054   20406332.1514
 -17684768.24447 -13737551.47346  20444681.0034   20444687.0034
   1059133.85745    870134.91544  23821058.3084   23821066.2334
  -1750053.58744   -553004.49543  23865254.6754   23865263.4214
 02  9  9 20 59 59.9990000  0  7G20G 2G13G 1G22G25G 4
 -18555301.21846 -14252020.74546  20539179.8314   20539185.8194
 -12826980.80046  -1590909.31646  21382890.2224   21382896.3864
 -10985505.83746  -8416372.00345  21999126.2844   21999132.4134
 -17427568.98847  -9458688.97246  20403498.3864   20403504.2924
 -17686670.92146 -13739034.06146  20444318.8554   20444324.7614
   1155956.58445    945581.07443  23839482.6674   23839492.4214
  -1743164.06443   -547636.14644  23866562.7764   23866573.5384
 02  9  9 21  0 29.9990000  0  7G20G 2G13G 1G22G25G 4
 -18489489.95146 -14200739.31946  20551703.3554   20551709.3664
 -12841392.38746  -1602139.09846  21380147.7694   21380153.9444
 -11045810.09346  -8463362.23445  21987650.5654   21987656.8584
 -17442190.95247  -9470082.68646  20400715.8394   20400722.0384
 -17687897.73646 -13739990.00546  20444085.4874   20444091.3354
   1252814.69945   1021054.78044  23857914.4724   23857924.3784
  -1735737.07344   -541848.98343  23867978.3784   23867989.8664
 02  9  9 21  0 59.9990000  0  7G20G 2G13G 1G22G25G 4
 -18423147.86946 -14149044.27046  20564328.1124   20564334.1944
 -12855308.34146  -1612982.66846  21377499.4724   21377505.5544
 -11105975.22246  -8510244.07545  21976201.7924   21976207.6634
 -17456565.06247  -9481283.27846  20397980.6444   20397986.5154
 -17688439.63946 -13740412.25246  20443982.2764   20443988.4404
   1349715.13445   1096561.50344  23876354.1444   23876361.5304
  -1727764.82145   -535636.91943  23869497.2614   23869508.7144
 02  9  9 21  1 29.9990000  0  7G20G 2G13G 1G22G25G 4
 -18356290.12946 -14096947.42046  20577050.7694   20577056.7924
 -12868741.84446  -1623450.30346  21374943.4404   21374949.6874
 -11166014.40346  -8557027.77345  21964776.3864   21964782.2104
 -17470704.68647  -9492301.15446  20395289.7454   20395295.6404
 -17688309.78446 -13740311.05146  20444006.7694   20444012.8394
   1446642.95345   1172089.55244  23894798.8474   23894808.7064
  -1719261.42245   -529010.93244  23871116.8154   23871127.0034
 02  9  9 21  1 59.9990000  0  7G20G 2G13G 1G22G25G 4
 -18288925.98646 -14044455.97446  20589869.9014   20589875.7494
 -12881699.95446  -1633547.49746  21372477.4724   21372483.4014
 -11225934.51446  -8603718.68345  21953374.1364   21953379.9374
 -17484616.57247  -9503141.56646  20392642.5344   20392648.4764
 -17687515.68346 -13739692.26346  20444158.1364   20444164.3354
   1543589.04445   1247631.81744  23913247.0734   23913255.4564
  -1710235.38342   -521977.67143  23872826.4014   23872837.1054
 02  9  9 21  2 29.9990000  0  7G20G 2G13G 1G22G25G 4
 -18221054.27346 -13991569.02546  20602785.4404   20602791.2884
 -12894179.02246  -1643271.41546  21370102.5974   21370108.8084
 -11285731.83246  -8650313.91745  21941994.8474   21942000.8124
 -17498297.07747  -9513801.68746  20390039.0264   20390044.8864
 -17686054.01447 -13738553.29446  20444436.2844   20444442.2614
   1640555.14145   1323189.67644  23931699.5424   23931707.6444
  -1700684.06144   -514535.27043  23874650.2224   23874659.9174
 02  9  9 21  2 59.9990000  0  7G20G 2G13G 1G22G25G 4
 -18152660.09546 -13938274.96446  20615800.4644   20615806.4054
 -12906162.30546  -1652609.01546  21367822.0584   21367828.2454
 -11345389.39546  -8696800.24645  21930642.5344   21930648.4524
 -17511729.34147  -9524268.36846  20387483.0654   20387489.1014
 -17683908.22546 -13736881.24546  20444844.4404   20444850.4994
   1737556.41345   1398774.97844  23950158.2304   23950167.1284
  -1690592.36544   -506671.66143  23876568.4094   23876579.2184
 02  9  9 21  3 29.9990000  0  7G20G 2G13G 1G22G25G 4
 -18083741.02446 -13884571.87146  20628915.3394   20628921.2104
 -12917645.28446  -1661556.75946  21365637.0344   21365643.0344
 -11404902.33246  -8743173.89845  21919317.3624   21919323.4334
 -17524908.66647  -9534537.95946  20384975.1674   20384980.9804
 -17681073.93046 -13734672.68446  20445383.9874   20445390.0584
   1834595.79045   1474389.94544  23968624.0264   23968633.6874
  -1679956.75343   -498384.24743  23878591.5034   23878602.1364
 02  9  9 21  3 59.9990000  0  7G20G 2G13G 1G22G25G 4
 -18014292.19846 -13830455.98646  20642131.2064   20642137.1014
 -12928620.88546  -1670109.14546  21363548.4724   21363554.4954
 -11464263.52646  -8789429.29245  21908021.5264   21908027.6084
 -17537827.96847  -9544604.93446  20382516.5344   20382522.3584
 -17677544.45347 -13731922.42946  20446055.6054   20446061.6754
   1931678.42645   1550038.61544  23987098.1984   23987106.9444
  -1668771.69444   -489668.71843  23880719.5344   23880728.6674
 02  9  9 21  4 29.9990000  0  7G20G 2G13G 1G22G25G 4
 -17944328.98646 -13775939.29046  20655444.6754   20655450.6054
 -12939102.54746  -1678276.65446  21361554.0194   21361560.1244
 -11523486.04846  -8835576.63845  21896751.8234   21896757.8124
 -17550500.36347  -9554479.52046  20380105.2614   20380111.2374
 -17673333.70647 -13728641.31446  20446856.8944   20446862.8474
   2028789.26744   1625709.27444  24005577.5584   24005586.7724
  -1657051.63843   -480536.24443  23882950.1284   23882961.1364
 02  9  9 21  4 59.9990000  0  7G20G 2G13G 1G22G25G 4
 -17873852.14046 -13721022.34846  20668856.1444   20668862.0264
 -12949088.61646  -1686057.97546  21359653.6514   21359659.8624
 -11582567.90646  -8881614.37645  21885508.7064   21885514.9764
 -17562923.91647  -9564160.19746  20377740.9254   20377746.8194
 -17668440.05746 -13724828.07346  20447787.8864   20447793.9804
   2125928.62044   1701402.12944  24024062.5974   24024072.6794
  -1644796.34743   -470986.76943  23885282.0814   23885292.4094
 02  9  9 21  5 29.9990000  0  7G20G 2G13G 1G22G25G 4
 -17802844.63246 -13665691.90846  20682368.4014   20682374.3554
 -12958560.02946  -1693438.27046  21357851.2694   21357857.2804
 -11641489.88846  -8927527.53345  21874296.2144   21874302.3084
 -17575079.40047  -9573631.99946  20375427.9804   20375433.7924
 -17662844.93146 -13720468.23046  20448852.5504   20448858.5264
   2223113.33144   1777130.32343  24042556.9564   24042565.2694
  -1631988.02744   -461006.32543  23887721.8314   23887733.2844
 02  9  9 21  5 59.9990000  0  7G20G 2G13G 1G22G25G 4
 -17731310.25346 -13609950.92546  20695980.9254   20695986.9954
 -12967518.54146  -1700418.89846  21356146.4874   21356152.5464
 -11700253.29546  -8973317.13645  21863113.9404   21863119.9524
 -17586968.21647  -9582896.00346  20373165.5814   20373171.5464
 -17656550.23046 -13715563.26146  20450050.5734   20450056.4914
   2320340.16244   1852891.35843  24061058.4484   24061067.6754
  -1618629.54544   -450597.22143  23890263.6594   23890273.3084
 02  9  9 21  6 29.9990000  0  7G20G 2G13G 1G22G25G 4
 -17659257.46946 -13553805.99146  20709692.3784   20709698.1904
 -12975970.52546  -1707004.82946  21354537.9334   21354544.1444
 -11758864.22846  -9018987.90745  21851960.6754   21851966.4874
 -17598596.39747  -9591956.92146  20370952.6754   20370958.5934
 -17649562.81146 -13710118.51246  20451380.2844   20451386.5074
   2417601.21544   1928679.08443  24079567.4094   24079577.1984
  -1604728.82743   -439765.60143  23892908.1444   23892918.2964
 02  9  9 21  6 59.9990000  0  7G20G 2G13G 1G22G25G 4
 -17586698.37446 -13497266.53446  20723499.8704   20723505.9994
 -12983926.10446  -1713203.95146  21353023.9804   21353030.2494
 -11817331.84646  -9064547.02145  21840834.2694   21840840.0934
 -17609973.72747  -9600822.36546  20368787.7844   20368793.9134
 -17641892.93346 -13704141.98546  20452839.4174   20452845.3704
   2514884.83843   2004484.35042  24098078.5734   24098087.7764
  -1590296.92643   -428520.03743  23895654.5344   23895664.8864
 02  9  9 21  7 29.9990000  0  7G20G 2G13G 1G22G25G 4
 -17513642.22546 -13440339.75646  20737401.9404   20737408.0584
 -12991392.20146  -1719021.65646  21351603.4564   21351609.6444
 -11875663.01046  -9109999.79545  21829734.4724   21829740.5424
 -17621106.89747  -9609497.55046  20366669.1444   20366675.0384
 -17633548.01846 -13697639.45446  20454427.7534   20454433.6124
   2612182.75843   2080300.79442  24116594.5034   24116606.2264
  -1575342.38144   -416867.22243  23898500.7224   23898511.6244
 02  9  9 21  7 59.9990000  0  7G20G 2G13G 1G22G25G 4
 -17440074.23946 -13383014.15246  20751401.7614   20751407.9724
 -12998351.99946  -1724444.83846  21350278.7844   21350284.8434
 -11933840.56846  -9155332.88145  21818663.3784   21818669.3784
 -17631978.63747  -9617969.03046  20364600.2764   20364606.2414
 -17624511.65446 -13690598.12646  20456147.1054   20456153.0694
   2709509.87043   2156139.96143  24135115.4874   24135122.7334
  -1559849.36744   -404794.85743  23901449.0194   23901457.7764
 02  9  9 21  8 29.9990000  0  7G20G 2G13G 1G22G25G 4
 -17366017.44346 -13325307.65946  20765494.4334   20765500.6084
 -13004826.47646  -1729489.85546  21349046.6674   21349052.7844
 -11991884.89046  -9200562.14845  21807618.1364   21807624.0544
 -17642609.59147  -9626252.88346  20362577.3154   20362583.3044
 -17614805.11647 -13683034.58146  20457994.4334   20458000.3974
   2806844.09843   2231984.71042  24153636.8154   24153645.7724
  -1543840.18443   -392320.24443  23904495.0344   23904505.0114
 02  9  9 21  8 59.9990000  0  7G20G 2G13G 1G22G25G 4
 -17291454.96946 -13267207.13146  20779683.0264   20779688.8394
 -13010796.39246  -1734141.70746  21347910.5424   21347916.7184
 -12049776.44546  -9245672.37645  21796601.7304   21796607.5654
 -17652980.19447  -9634333.86446  20360603.7374   20360609.6794
 -17604409.63046 -13674934.20346  20459972.6514   20459978.5464
   2904202.86843   2307848.50642  24172164.6834   24172174.2264
  -1527297.22643   -379429.75743  23907643.3554   23907656.0624
 02  9  9 21  9 29.9990000  0  7G20G 2G13G 1G22G25G 4
 -17216397.48246 -13208720.87246  20793966.1754   20793972.2104
 -13016270.56446  -1738407.26346  21346869.1054   21346875.2334
 -12107523.34546  -9290669.88745  21785612.8474   21785618.8704
 -17663098.69847  -9642218.39846  20358678.1284   20358684.1514
 -17593334.46746 -13666304.20046  20462080.0264   20462086.0734
   3001575.88443   2383723.40742  24190693.9874   24190704.1514
  -1510230.48444   -366131.06243  23910891.5504   23910902.2884
 02  9  9 21  9 59.9990000  0  7G20G 2G13G 1G22G25G 4
 -17140848.44346 -13149851.58046  20808342.6284   20808348.6874
 -13021250.43546  -1742287.64546  21345921.5034   21345927.7614
 -12165126.46146  -9335555.35745  21774651.0114   21774657.0584
 -17672966.11047  -9649907.28546  20356800.6754   20356806.6284
 -17581581.41746 -13657145.98046  20464316.6514   20464322.6634
   3098960.60743   2459607.52142  24209225.5114   24209234.2104
  -1492642.62444   -352426.35543  23914238.0734   23914250.0774
 02  9  9 21 10 29.9990000  0  7G20G 2G13G 1G22G25G 4
 -17064821.14546 -13090609.62246  20822810.3154   20822816.3864
 -13025747.13846  -1745791.54046  21345065.4174   21345071.4644
 -12222596.21946  -9380336.91945  21763714.6364   21763720.6014
 -17682593.08647  -9657408.81246  20354968.7924   20354974.8514
 -17569161.95546 -13647468.47746  20466679.9254   20466685.8664
   3196344.71144   2535491.10242  24227758.0504   24227766.9484
  -1474545.90344   -338325.11943  23917682.8864   23917692.2414
 02  9  9 21 10 59.9990000  0  7G20G 2G13G 1G22G25G 4
 -16988307.31646 -13030988.56046  20837370.3394   20837376.1054
 -13029750.23646  -1748910.81346  21344303.7614   21344309.6324
 -12279921.65546  -9425006.00645  21752806.0424   21752811.9254
 -17691968.54747  -9664714.35846  20353184.6514   20353190.5584
 -17556065.94646 -13637263.78446  20469172.0734   20469178.2724
   3293737.35944   2611381.33443  24246291.8624   24246300.4444
  -1455931.29843   -323820.29943  23921223.4804   23921230.5504
 02  9  9 21 11 29.9990000  0  7G20G 2G13G 1G22G25G 4
 -16911308.85946 -12970989.87146  20852023.0194   20852028.9724
 -13033259.55646  -1751645.32146  21343636.0584   21343642.0934
 -12337101.92546  -9469562.00745  21741925.0814   21741930.7414
 -17701091.85247  -9671823.41846  20351448.6514   20351454.6754
 -17542293.81046 -13626532.24346  20471792.6834   20471798.8234
   3391137.39444   2687277.34243  24264826.1984   24264835.6944
  -1436799.86743   -308912.82943  23924864.3624   23924875.3824
 02  9  9 21 11 59.9990000  0  7G20G 2G13G 1G22G25G 4
 -16833825.64846 -12910613.44846  20866767.3944   20866773.2184
 -13036273.16446  -1753993.55246  21343062.5194   21343068.4134
 -12394134.47146  -9514002.88145  21731071.9954   21731077.9014
 -17709960.69847  -9678734.19246  20349760.8554   20349766.9604
 -17527844.15846 -13615272.76946  20474542.4644   20474548.4764
   3488545.01045   2763179.24743  24283362.1984   24283370.4644
  -1417151.04044   -293602.14943  23928605.0894   23928616.0734
 02  9  9 21 12 29.9990000  0  7G20G 2G13G 1G22G25G 4
 -16755873.77846 -12849871.83846  20881601.4254   20881607.4014
 -13038804.75246  -1755966.19346  21342580.9334   21342587.0624
 -12451032.36246  -9558338.82845  21720244.5034   21720250.6324
 -17718588.16447  -9685456.89146  20348118.9724   20348124.7844
 -17512731.16146 -13603496.39246  20477418.2924   20477424.3864
   3585945.17145   2839075.35343  24301896.8784   24301907.3234
  -1396999.85143   -277900.00743  23932438.5734   23932448.7724
 02  9  9 21 12 59.9990000  0  7G20G 2G13G 1G22G25G 4
 -16677448.23146 -12788761.12746  20896524.8394   20896530.8044
 -13040847.08346  -1757557.59146  21342192.2224   21342198.2804
 -12507787.40346  -9602563.47545  21709444.5734   21709450.5384
 -17726966.49847  -9691985.45346  20346524.6054   20346530.4764
 -17496948.01046 -13591197.82646  20480421.7454   20480427.6634
   3683344.16045   2914970.52543  24320431.4564   24320440.8824
  -1376340.41043   -261801.84143  23936369.8784   23936381.9644
 02  9  9 21 13 29.9990000  0  7G20G 2G13G 1G22G25G 4
 -16598557.64446 -12727288.04646  20911537.5344   20911543.7924
 -13042407.01846  -1758773.09546  21341895.2694   21341901.3044
 -12564405.89746  -9646681.70246  21698670.3704   21698676.2884
 -17735101.89547  -9698324.72346  20344976.4724   20344982.3194
 -17480502.14146 -13578382.86146  20483551.1984   20483557.1164
   3780733.82345   2990858.43643  24338963.7534   24338973.3314
  -1355181.15143   -245314.20343  23940396.0114   23940406.1984
 02  9  9 21 13 59.9990000  0  7G20G 2G13G 1G22G25G 4
 -16519207.37146 -12665456.77346  20926637.3314   20926643.3084
 -13043487.46246  -1759614.97846  21341689.8944   21341696.0464
 -12620890.38846  -9690695.53645  21687921.4334   21687927.4214
 -17742996.57247  -9704476.41646  20343474.2454   20343480.1164
 -17463396.92846 -13565054.11746  20486806.3084   20486812.2844
   3878109.85245   3066735.72844  24357494.7454   24357504.5114
  -1333525.94943   -228440.17043  23944516.6204   23944526.9604
 02  9  9 21 14 29.9990000  0  7G20G 2G13G 1G22G25G 4
 -16439409.86646 -12603277.00046  20941822.7844   20941828.9604
 -13044099.13946  -1760091.58646  21341573.4404   21341579.4764
 -12677250.33046  -9734612.30646  21677196.7144   21677202.4334
 -17750660.58447  -9710448.37246  20342015.8234   20342021.8944
 -17445643.60246 -13551220.34746  20490184.7534   20490190.8474
   3975460.60645   3142593.35244  24376019.5194   24376028.3944
  -1311386.98143   -211189.10843  23948728.7844   23948739.3944
 02  9  9 21 14 59.9990000  0  7G20G 2G13G 1G22G25G 4
 -16359160.86346 -12540745.42146  20957093.5814   20957099.6984
 -13044235.61146  -1760197.89846  21341547.5974   21341553.7724
 -12733478.23246  -9778426.19746  21666496.6444   21666502.5264
 -17758087.01547  -9716235.20246  20340602.6984   20340608.5344
 -17427236.19946 -13536876.91446  20493687.4094   20493693.4094
   4072791.47644   3218435.43444  24394541.3394   24394551.0814
  -1288759.24643   -193557.19842  23953037.4174   23953048.8234
 02  9  9 21 15 29.9990000  0  7G20G 2G13G 1G22G25G 4
 -16278464.56946 -12477865.30946  20972449.9014   20972456.1364
 -13043898.78746  -1759935.40646  21341611.0814   21341616.9764
 -12789575.87546  -9822138.58346  21655821.4174   21655827.2884
 -17765276.95347  -9721837.75046  20339234.5504   20339240.4094
 -17408177.35146 -13522025.85846  20497314.3004   20497320.4174
   4170099.15844   3294259.45543  24413057.2614   24413068.5154
  -1265645.77343   -175546.82342  23957435.3474   23957446.9994
 02  9  9 21 15 59.9990000  0  7G20G 2G13G 1G22G25G 4
 -16197323.88746 -12414638.90746  20987890.1674   20987896.3664
 -13043089.65546  -1759304.89346  21341765.2924   21341771.2694
 -12845543.10846  -9865749.36246  21645171.1904   21645177.2494
 -17772230.84347  -9727256.37046  20337911.3394   20337917.2694
 -17388468.62046 -13506668.40046  20501064.5194   20501070.6944
   4267381.36944   3370063.64343  24431570.7614   24431579.9644
  -1242049.29343   -157160.05643  23961925.4564   23961936.5464
 02  9  9 21 16 29.9990000  0  7G20G 2G13G 1G22G25G 4
 -16115746.55146 -12351072.27046  21003414.0034   21003419.9684
 -13041813.76546  -1758310.67746  21342008.1284   21342014.1164
 -12901384.94246  -9909262.41446  21634544.9484   21634550.8784
 -17778953.67147  -9732494.94146  20336631.9334   20336637.8974
 -17368116.36146 -13490809.49946  20504937.7144   20504943.6324
   4364631.67943   3445843.00043  24450077.1364   24450087.0194
  -1217976.65743   -138402.29842  23966506.9094   23966517.7184
 02  9  9 21 16 59.9990000  0  7G20G 2G13G 1G22G25G 4
 -16033736.52546 -12287168.46646  21019020.5034   21019026.7724
 -13040073.04446  -1756954.24846  21342339.2374   21342345.1324
 -12957101.92446  -9952678.17546  21623941.9724   21623947.9484
 -17785446.34447  -9737554.16946  20335396.4484   20335402.3314
 -17347122.73246 -13474450.83246  20508932.4174   20508938.4764
   4461847.21443   3521595.22343  24468575.5504   24468586.5114
  -1193430.96143   -119275.87743  23971175.8154   23971187.9374
 02  9  9 21 17 29.9990000  0  7G20G 2G13G 1G22G25G 4
 -15951304.79746 -12222936.06746  21034706.9174   21034713.0814
 -13037876.55546  -1755242.67246  21342757.1364   21342763.1124
 -13012702.18846  -9996003.00246  21613361.7534   21613367.5654
 -17791717.25347  -9742440.59846  20334203.0424   20334209.0074
 -17325497.51846 -13457600.01546  20513047.5584   20513053.5814
   4559018.52543   3597313.00542  24487067.5974   24487078.4874
  -1168422.45843    -99788.88042  23975937.1904   23975950.8354
 02  9  9 21 17 59.9990000  0  7G20G 2G13G 1G22G25G 4
 -15868449.32246 -12158373.47046  21050473.6054   21050479.5814
 -13035220.45846  -1753172.97046  21343262.4804   21343268.5504
 -13068180.54746 -10039232.83646  21602804.4954   21602810.4374
 -17797761.48747  -9747150.39146  20333052.9484   20333058.8904
 -17303236.96446 -13440254.13046  20517283.8084   20517289.6674
   4656147.72442   3672997.93442  24505549.7374   24505560.0304
  -1142948.52442    -79939.18243  23980783.4564   23980794.1714
